[[{"header":{"parameterUnit":"m.s-1","parameterCategory":1,"la1":30.6,"la2":28.766,"lo1":-90.7593,"lo2":-88.6598,"dy":0.0162,"dx":0.0183,"nx":116,"ny":114,"refTime":"2024-03-14T06:00:00:Z","depth":0,"parameterNumber":2,"parameterNumberName":"U-component_of_WINDS"},"data":[0.0,0.0,0.0,0.0,0.0,0.0,0.0,0.0,0.0,0.0,0.0,0.0,0.0,0.0,0.0,0.0,0.0,0.0,0.0,0.0,0.0,0.0,0.0,0.0,0.0,0.0,0.0,0.0,0.0,0.0,0.0,0.0,0.0,0.0,0.0,0.0,0.0,0.0,0.0,0.0,0.0,0.0,0.0,0.0,0.0,0.0,0.0,0.0,0.0,0.0,0.0,0.0,0.0,0.0,0.0,0.0,0.0,0.0,0.0,0.0,0.0,0.0,0.0,0.0,0.0,0.0,0.0,0.0,0.0,0.0,0.0,0.0,0.0,0.0,0.0,0.0,0.0,0.0,0.0,0.0,0.0,0.0,0.0,0.0,0.0,0.0,0.0,0.0,0.0,0.0,0.0,0.0,0.0,0.0,0.0,0.0,0.0,0.0,0.0,0.0,0.0,0.0,0.0,0.0,0.0,0.0,0.0,0.0,0.0,0.0,0.0,0.0,0.0,0.0,0.0,0.0,0.0,0.0,0.0,0.0,0.0,0.0,0.0,0.0,0.0,0.0,0.0,0.0,0.0,0.0,0.0,0.0,0.0,0.0,0.0,0.0,0.0,0.0,0.0,0.0,0.0,0.0,0.0,0.0,0.0,0.0,0.0,0.0,0.0,0.0,0.0,0.0,0.0,0.0,0.0,0.0,0.0,0.0,0.0,0.0,0.0,0.0,0.0,0.0,0.0,0.0,0.0,0.0,0.0,0.0,0.0,0.0,0.0,0.0,0.0,0.0,0.0,0.0,0.0,0.0,0.0,0.0,0.0,0.0,0.0,0.0,0.0,0.0,0.0,0.0,0.0,0.0,0.0,0.0,0.0,0.0,0.0,0.0,0.0,0.0,0.0,0.0,0.0,0.0,0.0,0.0,0.0,0.0,0.0,0.0,0.0,0.0,0.0,0.0,0.0,0.0,0.0,0.0,0.0,0.0,0.0,0.0,0.0,0.0,0.0,0.0,0.0,0.0,0.0,0.0,0.0,0.0,0.0,0.0,0.0,0.0,0.0,0.0,0.0,0.0,0.0,0.0,0.0,0.0,0.0,0.0,0.0,0.0,0.0,0.0,0.0,0.0,0.0,0.0,0.0,0.0,0.0,0.0,0.0,0.0,0.0,0.0,0.0,0.0,0.0,0.0,0.0,0.0,0.0,0.0,0.0,0.0,0.0,0.0,0.0,0.0,0.0,0.0,0.0,0.0,0.0,0.0,0.0,0.0,0.0,0.0,0.0,0.0,0.0,0.0,0.0,0.0,0.0,0.0,0.0,0.0,0.0,0.0,0.0,0.0,0.0,0.0,0.0,0.0,0.0,0.0,0.0,0.0,0.0,0.0,0.0,0.0,0.0,0.0,0.0,0.0,0.0,0.0,0.0,0.0,0.0,0.0,0.0,0.0,0.0,0.0,0.0,0.0,0.0,0.0,0.0,0.0,0.0,0.0,0.0,0.0,0.0,0.0,0.0,0.0,0.0,0.0,0.0,0.0,0.0,0.0,0.0,0.0,0.0,0.0,0.0,0.0,0.0,0.0,0.0,0.0,0.0,0.0,0.0,0.0,0.0,0.0,0.0,0.0,0.0,0.0,0.0,0.0,0.0,0.0,0.0,0.0,0.0,0.0,0.0,0.0,0.0,0.0,0.0,0.0,0.0,0.0,0.0,0.0,0.0,0.0,0.0,0.0,0.0,0.0,0.0,0.0,0.0,0.0,0.0,0.0,0.0,0.0,0.0,0.0,0.0,0.0,0.0,0.0,0.0,0.0,0.0,0.0,0.0,0.0,0.0,0.0,0.0,0.0,0.0,0.0,0.0,0.0,0.0,0.0,0.0,0.0,0.0,0.0,0.0,0.0,0.0,0.0,0.0,0.0,0.0,0.0,0.0,0.0,0.0,0.0,0.0,0.0,0.0,0.0,0.0,0.0,0.0,0.0,0.0,0.0,0.0,0.0,0.0,0.0,0.0,0.0,0.0,0.0,0.0,0.0,0.0,0.0,0.0,0.0,0.0,0.0,0.0,0.0,0.0,0.0,0.0,0.0,0.0,0.0,0.0,0.0,0.0,0.0,0.0,0.0,0.0,0.0,0.0,0.0,0.0,0.0,0.0,0.0,0.0,0.0,0.0,0.0,0.0,0.0,0.0,0.0,0.0,0.0,0.0,0.0,0.0,0.0,0.0,0.0,0.0,0.0,0.0,0.0,0.0,0.0,0.0,0.0,0.0,0.0,0.0,0.0,0.0,0.0,0.0,0.0,0.0,0.0,0.0,0.0,0.0,0.0,0.0,0.0,0.0,0.0,0.0,0.0,0.0,0.0,0.0,0.0,0.0,0.0,0.0,0.0,0.0,0.0,0.0,0.0,0.0,0.0,0.0,0.0,0.0,0.0,0.0,0.0,0.0,0.0,0.0,0.0,0.0,0.0,0.0,0.0,0.0,0.0,0.0,0.0,0.0,0.0,0.0,0.0,0.0,0.0,0.0,0.0,0.0,0.0,0.0,0.0,0.0,0.0,0.0,0.0,0.0,0.0,0.0,0.0,0.0,0.0,0.0,0.0,0.0,0.0,0.0,0.0,0.0,0.0,0.0,0.0,0.0,0.0,0.0,0.0,0.0,0.0,0.0,0.0,0.0,0.0,0.0,0.0,0.0,0.0,0.0,0.0,0.0,0.0,0.0,0.0,0.0,0.0,0.0,0.0,0.0,0.0,0.0,0.0,0.0,0.0,0.0,0.0,0.0,0.0,0.0,0.0,0.0,0.0,0.0,0.0,0.0,0.0,0.0,0.0,0.0,0.0,0.0,0.0,0.0,0.0,0.0,0.0,0.0,0.0,0.0,0.0,0.0,0.0,0.0,0.0,0.0,0.0,0.0,0.0,0.0,0.0,0.0,0.0,0.0,0.0,0.0,0.0,0.0,0.0,0.0,0.0,0.0,0.0,0.0,0.0,0.0,0.0,0.0,0.0,0.0,0.0,0.0,0.0,0.0,0.0,0.0,0.0,0.0,0.0,0.0,0.0,0.0,0.0,0.0,0.0,0.0,0.0,0.0,0.0,0.0,0.0,0.0,0.0,0.0,0.0,0.0,0.0,0.0,0.0,0.0,0.0,0.0,0.0,0.0,0.0,0.0,0.0,0.0,0.0,0.0,0.0,0.0,0.0,0.0,0.0,0.0,0.0,0.0,0.0,0.0,0.0,0.0,0.0,0.0,0.0,0.0,0.0,0.0,0.0,0.0,0.0,0.0,0.0,0.0,0.0,0.0,0.0,0.0,0.0,0.0,0.0,0.0,0.0,0.0,0.0,0.0,0.0,0.0,0.0,0.0,0.0,0.0,0.0,0.0,0.0,0.0,0.0,0.0,0.0,0.0,0.0,0.0,0.0,0.0,0.0,0.0,0.0,0.0,0.0,0.0,0.0,0.0,0.0,0.0,0.0,0.0,0.0,0.0,0.0,0.0,0.0,0.0,0.0,0.0,0.0,0.0,0.0,0.0,0.0,0.0,0.0,0.0,0.0,0.0,0.0,0.0,0.0,0.0,0.0,0.0,0.0,0.0,0.0,0.0,0.0,0.0,0.0,0.0,0.0,0.0,0.0,0.0,0.0,0.0,0.0,0.0,0.0,0.0,0.0,0.0,0.0,0.0,0.0,0.0,0.0,0.0,0.0,0.0,0.0,0.0,0.0,0.0,0.0,0.0,0.0,0.0,0.0,0.0,0.0,0.0,0.0,0.0,0.0,0.0,0.0,0.0,0.0,0.0,0.0,0.0,0.0,0.0,0.0,0.0,0.0,0.0,0.0,0.0,0.0,0.0,0.0,0.0,0.0,0.0,0.0,0.0,0.0,0.0,0.0,0.0,0.0,0.0,0.0,0.0,0.0,0.0,0.0,0.0,0.0,0.0,0.0,0.0,0.0,0.0,0.0,0.0,0.0,0.0,0.0,0.0,0.0,0.0,0.0,0.0,0.0,0.0,0.0,0.0,0.0,0.0,0.0,0.0,0.0,0.0,0.0,0.0,0.0,0.0,0.0,0.0,0.0,0.0,0.0,0.0,0.0,0.0,0.0,0.0,0.0,0.0,0.0,0.0,0.0,0.0,0.0,0.0,0.0,0.0,0.0,0.0,0.0,0.0,0.0,0.0,0.0,0.0,0.0,0.0,0.0,0.0,0.0,0.0,0.0,0.0,0.0,0.0,0.0,0.0,0.0,0.0,0.0,0.0,0.0,0.0,0.0,0.0,0.0,0.0,0.0,0.0,0.0,0.0,0.0,0.0,0.0,0.0,0.0,0.0,0.0,0.0,0.0,0.0,0.0,0.0,0.0,0.0,0.0,0.0,0.0,0.0,0.0,0.0,0.0,0.0,0.0,0.0,0.0,0.0,0.0,0.0,0.0,0.0,0.0,0.0,0.0,0.0,0.0,0.0,0.0,0.0,0.0,0.0,0.0,0.0,0.0,0.0,0.0,0.0,0.0,0.0,0.0,0.0,0.0,0.0,0.0,0.0,0.0,0.0,0.0,0.0,0.0,0.0,0.0,0.0,0.0,0.0,0.0,0.0,0.0,0.0,0.0,0.0,0.0,0.0,0.0,0.0,0.0,0.0,0.0,0.0,0.0,0.0,0.0,0.0,0.0,0.0,0.0,0.0,0.0,0.0,0.0,0.0,0.0,0.0,0.0,0.0,0.0,0.0,0.0,0.0,0.0,0.0,0.0,0.0,0.0,0.0,0.0,0.0,0.0,0.0,0.0,0.0,0.0,0.0,0.0,0.0,0.0,0.0,0.0,0.0,0.0,0.0,0.0,0.0,0.0,0.0,0.0,0.0,0.0,0.0,0.0,0.0,0.0,0.0,0.0,0.0,0.0,0.0,0.0,0.0,0.0,0.0,0.0,0.0,0.0,0.0,0.0,0.0,0.0,0.0,0.0,0.0,0.0,0.0,0.0,0.0,0.0,0.0,0.0,0.0,0.0,0.0,0.0,0.0,0.0,0.0,0.0,0.0,0.0,0.0,0.0,0.0,0.0,0.0,0.0,0.0,0.0,0.0,0.0,0.0,0.0,0.0,0.0,0.0,0.0,0.0,0.0,0.0,0.0,0.0,0.0,0.0,0.0,0.0,0.0,0.0,0.0,0.0,0.0,0.0,0.0,0.0,0.0,0.0,0.0,0.0,0.0,0.0,0.0,0.0,0.0,0.0,0.0,0.0,0.0,0.0,0.0,0.0,0.0,0.0,0.0,0.0,0.0,0.0,0.0,0.0,0.0,0.0,0.0,0.0,0.0,0.0,0.0,0.0,0.0,0.0,0.0,0.0,0.0,0.0,0.0,0.0,0.0,0.0,0.0,0.0,0.0,0.0,0.0,0.0,0.0,0.0,0.0,0.0,0.0,0.0,0.0,0.0,0.0,0.0,0.0,0.0,0.0,0.0,0.0,0.0,0.0,0.0,0.0,0.0,0.0,0.0,0.0,0.0,0.0,0.0,0.0,0.0,0.0,0.0,0.0,0.0,0.0,0.0,0.0,0.0,0.0,0.0,0.0,0.0,0.0,0.0,0.0,0.0,0.0,0.0,0.0,0.0,0.0,0.0,0.0,0.0,0.0,0.0,0.0,0.0,0.0,0.0,0.0,0.0,0.0,0.0,0.0,0.0,0.0,0.0,0.0,0.0,0.0,0.0,0.0,0.0,0.0,0.0,0.0,0.0,0.0,0.0,0.0,0.0,0.0,0.0,0.0,0.0,0.0,0.0,0.0,0.0,0.0,0.0,0.0,0.0,0.0,0.0,0.0,0.0,0.0,0.0,0.0,0.0,0.0,0.0,0.0,0.0,0.0,0.0,0.0,0.0,0.0,0.0,0.0,0.0,0.0,0.0,0.0,0.0,0.0,0.0,0.0,0.0,0.0,0.0,0.0,0.0,0.0,0.0,0.0,0.0,0.0,0.0,0.0,0.0,0.0,0.0,0.0,0.0,0.0,0.0,0.0,0.0,0.0,0.0,0.0,0.0,0.0,0.0,0.0,0.0,0.0,0.0,0.0,0.0,0.0,0.0,0.0,0.0,0.0,0.0,0.0,0.0,0.0,0.0,0.0,4.5726,4.5847,0.0,0.0,0.0,0.0,0.0,0.0,0.0,0.0,0.0,0.0,0.0,0.0,0.0,0.0,0.0,0.0,0.0,0.0,0.0,0.0,0.0,0.0,0.0,0.0,0.0,0.0,0.0,0.0,0.0,0.0,0.0,0.0,0.0,0.0,4.079,4.079,4.079,4.079,4.0673,4.05,4.03,4.0419,4.045,4.0466,0.0,0.0,0.0,0.0,0.0,0.0,0.0,0.0,0.0,0.0,0.0,0.0,0.0,0.0,0.0,0.0,0.0,0.0,0.0,0.0,0.0,0.0,0.0,0.0,0.0,0.0,0.0,0.0,0.0,0.0,0.0,0.0,0.0,0.0,0.0,0.0,0.0,0.0,0.0,0.0,0.0,0.0,0.0,0.0,0.0,0.0,0.0,0.0,0.0,0.0,0.0,0.0,0.0,0.0,0.0,0.0,0.0,0.0,0.0,0.0,0.0,0.0,0.0,0.0,0.0,0.0,0.0,0.0,0.0,0.0,4.6225,4.625,0.0,0.0,0.0,0.0,0.0,0.0,0.0,0.0,0.0,0.0,0.0,0.0,0.0,0.0,0.0,0.0,0.0,0.0,0.0,0.0,0.0,0.0,0.0,4.0573,4.0603,4.0593,4.0654,4.0713,4.0778,4.079,4.079,4.079,4.079,4.079,4.079,4.0759,4.0778,4.0778,4.0454,4.0325,4.0367,4.0311,4.0406,4.0577,4.0534,0.0,0.0,0.0,0.0,0.0,0.0,0.0,0.0,0.0,0.0,0.0,0.0,0.0,0.0,0.0,0.0,0.0,0.0,0.0,0.0,0.0,0.0,0.0,0.0,0.0,0.0,0.0,0.0,0.0,0.0,0.0,0.0,0.0,0.0,0.0,0.0,0.0,0.0,0.0,0.0,0.0,0.0,0.0,0.0,0.0,0.0,0.0,0.0,0.0,0.0,0.0,0.0,0.0,0.0,0.0,0.0,0.0,0.0,0.0,0.0,0.0,0.0,0.0,4.608,4.6072,4.6018,4.6072,4.6104,4.6124,4.6173,4.6206,4.6189,4.6189,0.0,0.0,0.0,0.0,0.0,0.0,0.0,0.0,0.0,0.0,0.0,0.0,0.0,0.0,0.0,0.0,0.0,0.0,0.0,0.0,0.0,4.0573,4.0607,4.0588,4.066,4.07,4.07,4.0778,4.079,4.079,4.0746,4.07,4.07,4.0654,4.0621,4.0621,4.0175,4.0304,4.0986,4.0736,4.1011,4.1638,4.069,4.012,3.9905,0.0,0.0,0.0,0.0,0.0,0.0,0.0,0.0,0.0,0.0,0.0,0.0,0.0,0.0,0.0,0.0,0.0,0.0,0.0,0.0,0.0,0.0,0.0,0.0,0.0,0.0,0.0,0.0,0.0,0.0,0.0,0.0,0.0,0.0,0.0,0.0,0.0,0.0,0.0,0.0,0.0,4.0878,4.0897,0.0,0.0,0.0,0.0,0.0,0.0,0.0,0.0,0.0,0.0,0.0,0.0,0.0,4.5852,4.5832,4.6018,4.6092,4.6092,4.6097,4.6095,4.6092,4.6097,4.6126,4.6191,4.6191,0.0,4.6203,4.6201,0.0,0.0,0.0,0.0,0.0,0.0,0.0,0.0,0.0,0.0,0.0,0.0,0.0,0.0,0.0,0.0,0.0,0.0,0.0,0.0,0.0,4.0523,4.0573,4.0607,4.0636,4.0646,4.0635,4.0668,4.07,4.07,4.0668,4.0635,4.0635,4.0621,4.0677,4.0882,4.1016,4.1246,4.1537,4.1431,4.156,4.1886,4.1378,4.1263,4.145,4.1722,0.0,0.0,0.0,0.0,0.0,0.0,0.0,0.0,0.0,0.0,0.0,0.0,0.0,0.0,0.0,0.0,0.0,0.0,0.0,0.0,0.0,0.0,0.0,0.0,0.0,0.0,0.0,0.0,0.0,0.0,0.0,0.0,0.0,0.0,0.0,0.0,0.0,0.0,0.0,4.0826,4.1031,4.1513,4.1574,4.1906,0.0,0.0,0.0,0.0,0.0,0.0,0.0,0.0,0.0,4.6047,4.6017,4.6017,4.6066,4.6099,4.6088,4.6044,4.6073,4.6092,4.6053,4.6072,4.6128,4.6158,4.6184,4.6191,4.6202,4.6192,4.6209,4.6199,0.0,0.0,0.0,0.0,4.6045,4.6033,0.0,0.0,0.0,0.0,0.0,0.0,0.0,0.0,0.0,0.0,0.0,0.0,4.0489,4.0489,4.0523,4.0573,4.0588,4.0603,4.0593,4.0607,4.0588,4.0588,4.0819,4.0921,4.0921,4.1054,4.1259,4.1521,4.1825,4.2063,4.2235,4.2154,4.2239,4.2426,4.2508,4.2498,4.2446,4.2698,4.2833,4.285,0.0,0.0,0.0,0.0,0.0,0.0,0.0,0.0,0.0,0.0,0.0,0.0,0.0,0.0,0.0,0.0,0.0,0.0,0.0,0.0,0.0,0.0,0.0,0.0,0.0,0.0,0.0,0.0,0.0,0.0,0.0,0.0,0.0,0.0,0.0,0.0,0.0,4.1141,4.1482,4.2342,4.2455,4.2776,0.0,0.0,0.0,0.0,0.0,0.0,4.5958,4.5997,4.6007,4.6075,4.6017,4.6017,4.6075,4.6075,4.6056,4.5997,4.6037,4.6066,4.6027,4.6084,4.6111,4.6123,4.6179,4.6205,4.6228,4.621,4.6202,4.6186,4.6124,4.6093,4.6092,4.6013,4.5988,4.5988,0.0,0.0,0.0,0.0,0.0,0.0,0.0,0.0,0.0,0.0,0.0,4.0489,4.0489,4.0489,4.0489,4.0504,4.0573,4.0607,4.0607,4.0612,4.0588,4.0588,4.1388,4.1821,4.1821,4.2334,4.2602,4.262,4.2133,4.2329,4.3136,4.2872,4.3162,4.3906,4.4177,4.3287,4.1659,4.1863,4.2127,4.2341,4.228,0.0,0.0,0.0,0.0,0.0,0.0,0.0,0.0,0.0,0.0,0.0,0.0,0.0,0.0,0.0,0.0,0.0,0.0,0.0,0.0,0.0,0.0,0.0,0.0,0.0,0.0,0.0,0.0,0.0,0.0,0.0,0.0,0.0,0.0,0.0,0.0,0.0,0.0,4.3238,4.3391,0.0,0.0,0.0,0.0,4.5861,4.5936,4.5956,4.5997,4.5994,4.5994,4.6007,4.5997,4.5997,4.6007,4.6007,4.6007,4.5997,4.6007,4.6047,4.6093,4.6093,4.6123,4.6206,4.6211,4.6241,4.6288,4.6228,4.6208,4.6191,4.6127,4.6104,4.608,4.5956,4.5946,4.5978,0.0,0.0,0.0,0.0,0.0,0.0,0.0,0.0,4.0489,4.0489,4.0489,4.0489,4.0489,4.0489,4.0489,4.0489,4.0523,4.0539,4.0539,4.1058,4.1382,4.1382,4.2213,4.259,4.2411,4.2803,4.3026,4.3026,4.3337,4.367,4.397,4.3858,4.4065,4.4511,4.4438,4.4027,4.34,4.366,4.3812,4.3872,4.3298,4.3183,0.0,0.0,0.0,0.0,0.0,0.0,0.0,0.0,0.0,0.0,0.0,0.0,0.0,0.0,0.0,0.0,0.0,0.0,0.0,0.0,0.0,0.0,0.0,0.0,0.0,0.0,0.0,0.0,0.0,0.0,0.0,0.0,0.0,0.0,0.0,0.0,0.0,4.4141,4.4253,0.0,4.5386,4.5526,4.5684,4.5975,4.6005,4.6005,4.5997,4.5986,4.6005,4.5997,4.5997,4.5997,4.5997,4.6037,4.6047,4.6056,4.6102,4.6146,4.6162,4.6164,4.6189,4.6206,4.6245,4.628,4.6295,4.6261,4.623,4.6195,4.6084,4.6033,4.6024,4.5878,4.584,4.5854,0.0,0.0,0.0,0.0,0.0,0.0,0.0,0.0,4.0489,4.0489,4.0489,4.0489,4.0489,4.0489,4.0489,4.0489,4.0489,4.0623,4.0912,4.1489,4.1931,4.2239,4.296,4.3388,4.3414,4.3642,4.3694,4.3586,4.4139,4.4346,4.4279,4.4279,4.4346,4.4538,4.4346,4.4279,4.4279,4.4457,4.4572,4.4612,4.3943,4.3794,4.3872,0.0,0.0,0.0,0.0,0.0,0.0,0.0,0.0,0.0,0.0,0.0,0.0,0.0,0.0,0.0,0.0,0.0,0.0,0.0,0.0,0.0,0.0,0.0,0.0,0.0,0.0,0.0,0.0,0.0,0.0,0.0,0.0,0.0,0.0,4.3835,4.4156,4.4994,4.5126,4.5351,4.5871,4.5972,4.5994,4.5994,4.6005,4.5997,4.5997,4.5997,4.5997,4.5997,4.5997,4.5997,4.5997,4.6037,4.6075,4.6075,4.6138,4.6189,4.6196,4.6195,4.6211,4.624,4.6277,4.63,4.63,4.63,4.6262,4.6225,4.6108,4.6068,4.605,4.5918,4.5858,4.5829,0.0,0.0,0.0,0.0,0.0,0.0,0.0,4.0489,4.0489,4.0489,4.0489,4.0489,4.0489,4.0489,4.0489,4.0489,4.0508,4.0893,4.1739,4.1854,4.2277,4.3143,4.3656,4.4195,4.4781,4.4776,4.465,4.4402,4.4402,4.4279,4.3986,4.3986,4.4036,4.4017,4.4036,4.3986,4.3986,4.3986,4.4151,4.4355,4.4091,4.4308,4.4681,0.0,0.0,0.0,0.0,0.0,0.0,0.0,0.0,0.0,0.0,0.0,0.0,0.0,0.0,0.0,0.0,0.0,0.0,0.0,0.0,0.0,0.0,0.0,0.0,0.0,0.0,0.0,0.0,0.0,0.0,0.0,0.0,0.0,4.4749,4.473,4.5029,4.582,4.5964,4.6005,4.6003,4.6005,4.5997,4.5997,4.5997,4.5997,4.6007,4.6007,4.6007,4.6007,4.6007,4.6007,4.6007,4.6007,4.6007,4.6007,4.6065,4.6146,4.6203,4.6195,4.624,4.63,4.63,4.63,4.63,4.63,4.6303,4.6287,4.6221,4.6206,4.6171,4.6054,4.596,4.5881,0.0,0.0,0.0,0.0,0.0,0.0,0.0,4.0489,4.0489,4.0489,4.0489,4.0489,4.0489,4.0489,4.0489,4.0489,4.1085,4.1546,4.1777,4.2951,4.3989,4.4874,4.4681,4.4645,4.48,4.4599,4.4374,4.4091,4.4289,4.4374,4.4289,4.4289,4.4402,4.4572,4.4374,4.4289,4.4289,4.4289,4.4221,4.4091,4.4017,4.4079,4.4231,0.0,0.0,0.0,0.0,0.0,0.0,0.0,0.0,0.0,0.0,0.0,0.0,0.0,0.0,0.0,0.0,0.0,0.0,0.0,0.0,0.0,0.0,0.0,0.0,0.0,0.0,0.0,0.0,0.0,0.0,0.0,4.5642,4.5653,4.5642,4.5645,4.5714,4.5956,4.5986,4.5997,4.6005,4.5997,4.5997,4.5997,4.5997,4.6017,4.6075,4.6075,4.6093,4.6146,4.6146,4.6146,4.6146,4.6157,4.6151,4.6151,4.6201,4.6255,4.6264,4.6269,4.6277,4.63,4.63,4.6306,4.6297,4.6306,4.6303,4.6284,4.6228,4.62,4.6186,4.6098,4.5998,4.588,0.0,0.0,0.0,0.0,0.0,0.0,0.0,4.0489,4.0489,4.0489,4.0489,4.0489,4.0489,4.0489,4.0642,4.1008,4.1508,4.2104,4.2797,4.4105,4.5012,4.5419,4.503,4.4751,4.4624,4.4465,4.4279,4.4005,4.4279,4.4346,4.4221,4.4221,4.4336,4.4457,4.4289,4.4221,4.4221,4.4221,4.4151,4.4005,4.4005,4.4005,4.4048,4.4484,4.4701,4.4868,4.5282,4.5168,4.4836,4.4836,0.0,0.0,0.0,0.0,0.0,0.0,0.0,0.0,0.0,0.0,0.0,0.0,0.0,0.0,0.0,0.0,0.0,0.0,0.0,0.0,0.0,0.0,0.0,0.0,4.5983,4.5994,4.5994,4.6005,4.5997,4.5997,4.6017,4.6037,4.6037,4.6075,4.6084,4.6084,4.6084,4.6093,4.6138,4.6146,4.6154,4.6196,4.6196,4.6196,4.6196,4.6196,4.6209,4.6209,4.6236,4.6269,4.6269,4.6296,4.63,4.63,4.63,4.6306,4.6295,4.6306,4.6306,0.0,0.0,0.0,0.0,0.0,4.5949,4.5848,0.0,0.0,0.0,0.0,0.0,0.0,0.0,4.0489,4.0489,4.0489,4.0489,4.0489,4.0489,4.0489,4.0854,4.172,4.1893,4.2662,4.4335,4.5145,4.5457,4.5243,4.4962,4.4676,4.4438,4.443,4.4279,4.4005,4.425,4.4221,4.4005,4.4005,4.4005,4.4005,4.4005,4.4005,4.4005,4.4005,4.4005,4.4005,4.4005,4.4036,4.4079,4.4318,4.4572,4.4843,4.5096,4.5342,4.5568,4.5586,0.0,0.0,0.0,0.0,0.0,0.0,0.0,0.0,0.0,0.0,0.0,0.0,0.0,0.0,0.0,0.0,0.0,0.0,0.0,0.0,0.0,0.0,0.0,0.0,4.5964,4.5997,4.6007,4.6007,4.6007,4.6007,4.6075,4.6102,4.6102,4.6181,4.6196,4.6196,4.6196,4.6203,4.6203,4.6203,0.0,0.0,0.0,4.6209,4.6209,4.6209,4.6209,4.6209,4.622,4.6211,4.6211,4.6273,4.6303,4.6306,4.6306,4.6306,4.629,4.6303,4.6303,4.63,4.63,4.6309,4.627,4.6018,4.5873,4.5783,0.0,0.0,0.0,0.0,0.0,0.0,0.0,4.0489,4.0489,4.0489,4.0489,4.0489,4.0489,4.0489,4.0854,4.172,4.245,4.3566,4.524,4.5304,4.5342,4.5513,4.5052,4.4776,4.4726,4.4519,4.4279,4.4005,4.4048,4.4048,4.4005,4.4005,4.4005,4.4005,4.4005,4.4005,4.4005,4.4005,4.4005,4.4005,4.4005,4.4121,4.4318,4.4374,4.4572,4.4843,4.5096,4.5222,4.5322,4.5513,4.5586,4.5586,4.5586,4.547,0.0,0.0,0.0,0.0,0.0,0.0,0.0,0.0,0.0,0.0,0.0,0.0,0.0,0.0,0.0,0.0,0.0,0.0,0.0,4.5905,4.596,4.6025,4.6075,4.6084,4.6084,4.6084,4.6146,4.6189,4.6189,4.6196,4.6196,4.6196,4.6196,4.619,4.6195,4.6201,4.6231,4.6288,4.6288,4.6288,4.6288,4.6288,4.6288,4.6288,4.6273,0.0,4.6277,4.63,4.6295,4.6307,4.6307,4.6307,4.6308,4.6305,4.6293,4.63,4.63,4.6303,4.628,4.6125,4.5979,4.5859,0.0,0.0,0.0,0.0,0.0,0.0,0.0,4.0267,4.0339,4.0339,4.0441,4.0489,4.0489,4.0893,4.1508,4.2374,4.3624,4.4701,4.5547,4.5457,4.5457,4.5586,4.5074,4.48,4.48,4.4402,4.4121,4.4005,4.4005,4.4005,4.4005,4.4005,4.4005,4.4005,4.4005,4.4005,4.4005,4.4005,4.4005,4.4005,4.4005,4.4151,4.4383,4.4383,4.4465,4.4624,4.4896,4.5074,4.5222,4.5322,4.5438,4.5531,4.5513,4.5495,4.5513,0.0,0.0,0.0,0.0,0.0,0.0,0.0,0.0,0.0,0.0,0.0,0.0,0.0,0.0,4.5814,4.5847,0.0,4.5912,4.5949,4.6005,4.6056,4.6093,4.6135,4.615,4.6154,4.6183,4.6203,4.6203,4.624,4.6245,4.6245,4.6245,4.625,4.6245,4.6245,4.6269,4.63,4.63,4.63,4.63,4.6293,4.6297,4.6301,4.6301,4.6301,4.6301,4.6301,4.6306,4.6308,4.6305,4.6301,4.6301,4.6309,4.6277,4.6245,4.6245,4.6269,4.6288,4.6144,4.5988,4.584,0.0,0.0,0.0,0.0,0.0,0.0,0.0,4.0042,4.0196,4.0196,4.0392,4.0489,4.0489,4.1277,4.222,4.3239,4.472,4.5586,4.5586,4.555,4.555,4.5586,4.5052,4.4751,4.48,4.4279,4.4005,4.4005,4.4005,4.4005,4.4005,4.4005,4.4005,4.4005,4.4005,4.4005,4.4005,4.4005,4.4005,4.4005,4.4005,4.4121,4.4318,4.4374,4.4438,4.4493,4.4726,4.4938,4.5118,4.5096,4.5201,4.5342,4.5322,4.5322,4.5342,4.5476,4.5495,0.0,0.0,0.0,0.0,0.0,0.0,0.0,0.0,4.5805,4.58,4.58,4.58,4.5814,4.5893,4.5899,4.5937,4.6003,4.6066,4.6093,4.6119,4.6177,4.6201,4.6222,4.622,4.6216,4.6216,4.6273,4.63,4.63,4.63,4.63,4.63,4.6306,4.6309,4.629,4.629,4.629,4.629,4.6303,4.6308,4.6308,4.6308,4.6307,4.6307,4.6307,4.6307,4.6306,4.6287,4.6277,4.6273,4.6275,4.6226,4.6181,4.617,4.6195,4.6234,4.6135,4.5978,4.5783,0.0,0.0,0.0,0.0,0.0,0.0,0.0,0.0,4.0196,4.0196,4.0392,4.0489,4.0489,4.1277,4.245,4.4028,4.5047,4.5586,4.5586,4.5381,4.5342,4.5586,4.4872,4.4546,4.4776,4.4279,4.4005,4.4005,4.4005,4.4005,4.4005,4.4005,4.4005,4.4005,4.4005,4.4005,4.4005,4.4005,4.4005,4.4005,4.4005,4.4036,4.4079,4.4318,4.4546,4.4751,4.4776,4.4825,4.4872,4.5052,4.4943,4.4825,4.4985,4.5052,4.5096,4.5419,4.5495,4.5513,4.5586,4.5622,4.562,4.5684,4.5715,4.5731,0.0,4.58,4.58,4.58,4.58,4.5814,4.5893,4.5906,4.5944,4.6075,4.6095,4.6122,4.6189,4.6201,4.6216,4.6273,4.6296,4.6296,4.6296,4.63,4.63,4.63,4.63,4.63,4.63,4.6297,4.6306,4.6308,4.6308,4.6308,4.6308,4.6308,4.6308,4.6307,4.6295,4.6306,4.6306,4.6308,4.6303,4.6308,4.6236,4.6211,4.6211,4.6144,4.6125,4.6098,4.6044,4.6026,4.6035,4.6076,4.5979,4.5783,0.0,0.0,0.0,0.0,0.0,0.0,0.0,0.0,0.0,3.9963,4.0285,4.0489,4.0489,4.172,4.3239,4.4913,4.5393,4.5531,4.5381,4.5263,4.518,4.5137,4.4657,4.4438,4.4572,4.4192,4.4005,4.4005,4.4005,4.4005,4.4005,4.4005,4.4005,4.4005,4.4005,4.4005,4.4005,4.4005,4.4005,4.4005,4.4005,4.4005,4.3986,4.4121,4.4318,4.4572,4.4572,4.4776,0.0,4.4887,4.4981,4.5115,4.5175,4.5197,4.526,4.54,4.5476,4.5513,4.5586,4.5586,4.5622,4.5671,4.5703,4.5715,4.5776,4.5805,4.58,4.58,4.5827,4.5874,4.588,4.5925,4.5991,4.6085,4.6122,4.6162,4.6201,4.6221,4.6273,4.63,4.63,4.63,4.63,4.63,4.6303,4.6295,4.6295,4.6297,4.6303,4.6307,4.6308,4.6307,4.6303,4.63,4.63,4.6293,4.6309,4.6303,4.6249,4.6245,4.624,4.6231,4.622,4.6183,4.6144,4.6123,4.6068,4.6052,4.6035,4.6046,4.6008,4.5977,4.5956,4.6027,4.5936,4.5794,0.0,0.0,0.0,0.0,0.0,0.0,0.0,0.0,0.0,0.0,4.0157,4.0614,4.1162,4.2335,4.3778,4.5451,4.5586,4.5495,4.5222,4.5118,4.5007,4.48,4.4465,4.4318,4.4402,4.4151,4.4005,4.4005,4.4005,4.4005,4.4005,4.4005,4.4005,4.4005,4.4005,4.4005,4.4005,4.4005,4.4005,4.4005,4.4005,4.4005,4.4005,4.4005,4.4221,4.4493,4.443,4.4701,4.503,4.4707,4.4814,4.5096,4.509,4.5151,4.5216,4.5381,4.5476,4.555,4.5586,4.5586,4.5622,4.569,4.5703,4.57,4.5715,4.5727,4.5723,4.5723,4.5771,4.5827,4.5893,4.596,4.6035,4.6102,4.6181,4.6216,4.6211,4.6273,4.6303,4.6306,4.6303,4.63,4.63,4.63,4.6309,4.6305,4.6307,4.6308,4.6308,4.6307,4.6305,4.63,4.6306,4.6273,4.6245,4.6231,4.624,4.6248,4.6203,4.6164,4.6164,4.6157,4.6118,4.6068,4.6074,4.6047,4.6008,4.5978,4.5977,4.5975,4.5953,4.5905,4.5867,4.5917,4.588,4.5766,0.0,0.0,0.0,0.0,0.0,0.0,0.0,0.0,0.0,0.0,0.0,0.0,0.0,4.3066,4.3778,4.5451,4.5586,4.5495,4.5222,4.4962,4.48,4.48,4.4308,4.4121,4.4383,4.4151,4.4005,4.4005,4.4005,4.4005,4.4005,4.4005,4.4005,4.4005,4.4005,4.4005,4.4005,4.4005,4.4005,4.4005,4.4005,4.4005,4.4005,4.4005,4.4336,4.4751,4.4493,4.4572,4.4751,4.443,4.4318,4.4374,4.4565,4.4617,4.4745,4.5322,4.5531,4.5586,4.5586,4.5586,4.562,4.5684,4.57,4.5665,4.5543,4.5507,4.5507,4.5507,4.556,4.5677,4.5861,4.596,4.6046,4.6181,4.6196,4.6222,4.6292,4.63,4.6306,4.63,4.629,4.63,4.63,4.63,4.6293,4.6308,4.63,4.6309,4.6301,4.629,4.6296,4.6299,4.6303,4.625,4.6105,4.6105,4.6103,4.6102,4.6102,4.6102,4.6102,4.6036,4.5988,4.6007,4.6007,4.6007,4.5997,4.5941,4.5898,4.5905,4.5838,4.5795,4.5815,4.5731,4.5742,4.5786,0.0,0.0,0.0,0.0,0.0,0.0,0.0,0.0,0.0,0.0,0.0,0.0,0.0,0.0,0.0,0.0,4.5586,4.5419,4.4943,4.4849,4.4624,4.4279,4.4109,4.4048,4.4121,4.4048,4.4005,4.4005,4.4005,4.4005,4.4005,4.4005,4.4005,4.4005,4.4005,4.4005,4.4005,4.4005,4.4005,4.4005,4.4005,4.4005,4.4005,4.4005,4.4091,4.425,0.0,4.4519,4.4985,4.4465,4.443,4.4617,4.4857,4.4934,4.503,4.5438,4.5476,4.5342,4.5342,4.5201,4.514,4.5361,4.5435,4.549,4.5658,4.5708,4.5708,4.5757,4.5761,4.5761,4.5827,4.5886,4.5966,4.6046,4.615,4.622,4.6296,4.63,4.629,4.6307,4.6308,4.6289,4.6249,4.6267,4.6303,4.6297,4.6306,4.63,4.6296,4.6308,4.6255,4.6164,4.6164,4.6144,4.6099,4.6063,4.6026,4.6036,4.6037,4.6005,4.5975,4.5898,4.5873,4.5861,4.5827,4.58,4.58,4.5771,4.5771,4.5757,4.5746,4.5731,4.5731,4.5715,4.5712,4.5712,0.0,0.0,0.0,0.0,0.0,0.0,0.0,0.0,0.0,0.0,0.0,0.0,0.0,0.0,0.0,0.0,0.0,4.5419,4.4985,4.4849,4.4599,4.4181,4.4048,4.4005,4.4005,4.4005,4.4005,4.4005,4.4005,4.4005,4.4005,4.4005,4.4005,4.4005,4.4005,4.4005,4.4005,4.4005,4.4005,4.4005,4.4005,4.4005,4.4005,4.4005,4.4048,0.0,4.4017,4.4402,4.4849,4.4465,4.4572,4.4915,4.5068,4.5135,4.518,4.5381,4.5342,4.5201,4.5201,4.514,4.5118,4.5285,4.5343,4.5343,4.5435,4.5433,4.5433,4.5488,4.5526,4.558,4.5642,4.5796,4.5906,4.5917,4.6044,4.615,4.6225,4.6222,4.6234,4.6257,4.6269,4.6249,4.6189,4.6269,4.628,4.6278,4.6284,4.6284,4.624,4.624,4.6177,4.6068,4.6068,4.6063,4.6026,4.5986,4.5944,4.5891,4.5893,4.5874,4.5841,4.5786,4.5757,4.5757,4.5731,4.57,4.57,4.57,4.57,4.57,4.5703,4.5687,4.5651,4.5635,4.5599,4.5582,0.0,0.0,0.0,0.0,0.0,0.0,0.0,0.0,0.0,0.0,0.0,0.0,0.0,0.0,0.0,0.0,0.0,0.0,4.5222,4.4943,4.4701,4.4438,4.4181,4.4036,4.4036,4.4005,4.4005,4.4005,4.4005,4.4005,4.4005,4.4005,4.4005,4.4005,4.4005,4.4005,4.4005,4.4005,4.4005,4.4005,4.4005,4.4005,4.4005,4.4005,4.4181,4.4374,4.4121,4.4192,4.4411,4.4383,4.4751,4.518,4.5161,4.518,4.518,4.518,4.518,4.518,4.518,4.5342,4.5513,4.5419,4.5362,4.5263,4.4896,4.4825,4.4825,4.4825,4.4985,4.5182,4.5361,4.5679,4.5891,4.5809,4.5908,4.6033,4.6097,4.6101,4.6125,4.6192,4.621,4.6191,4.6191,4.6268,4.6268,4.621,4.6251,4.6245,4.6125,4.6118,4.6068,4.5998,4.5998,4.5956,4.5893,4.5893,4.5838,4.57,4.57,4.57,4.57,4.57,4.568,4.568,4.568,4.568,4.568,4.568,4.568,4.5684,4.569,4.564,4.5586,4.5513,4.5438,4.5419,0.0,0.0,0.0,0.0,0.0,0.0,0.0,0.0,0.0,0.0,0.0,0.0,0.0,0.0,0.0,0.0,0.0,0.0,4.5222,4.5137,4.4985,4.4701,4.4438,4.4289,4.4289,4.4091,4.4005,4.4005,4.4005,4.4005,4.4005,4.4005,4.4005,4.4005,4.4005,4.4005,4.4005,4.4005,4.4005,4.4005,4.4005,4.4005,4.4005,4.4005,4.4181,4.4402,4.4318,4.4465,4.4676,4.4465,4.4624,4.4872,4.4676,4.4751,4.4896,4.4896,4.4896,4.4896,4.4896,4.48,4.4776,4.5052,4.4943,4.4868,4.5052,4.5096,4.514,4.5245,4.5223,4.5243,4.5494,4.57,4.5838,4.5872,4.6033,4.6146,4.617,4.6128,4.6114,4.6187,4.6199,4.6195,4.6195,4.6268,4.6267,4.6216,4.6229,4.6236,4.6254,4.6196,4.6114,4.6007,4.5995,4.5925,4.5761,4.5746,4.5715,4.569,4.5637,4.5603,4.5549,4.5494,4.5475,4.5475,4.5475,4.5475,4.5475,4.5475,4.5475,4.5475,4.5495,4.5476,4.5438,4.5438,4.5419,4.5419,0.0,0.0,0.0,0.0,0.0,0.0,0.0,0.0,0.0,0.0,0.0,0.0,0.0,0.0,0.0,0.0,0.0,0.0,0.0,4.5282,4.5118,4.4985,4.4726,4.4519,4.4383,4.425,4.4121,4.4005,4.4005,4.4005,4.4005,4.4005,4.4005,4.4005,4.4005,4.4005,4.4005,4.4005,4.4005,0.0,0.0,4.4005,4.3986,4.4121,4.4279,4.443,4.4519,4.4751,4.4919,4.4519,4.4572,4.4776,4.4624,4.4599,4.4624,4.4624,4.4701,4.4776,4.465,4.4701,4.4776,4.4838,4.4758,4.4707,4.4929,4.4976,4.5004,4.514,4.5199,4.5239,4.54,4.5618,4.5781,4.577,4.5944,4.6066,4.6056,4.6063,4.6098,4.6195,4.6192,4.6201,4.6201,4.6261,4.6286,4.6257,4.6249,4.6249,4.6255,4.6154,4.6056,4.5951,4.5872,4.575,4.5599,4.5582,4.5584,4.5568,4.5531,4.5495,4.5438,4.5419,4.54,4.54,4.54,4.54,4.54,4.54,4.54,4.54,4.54,4.54,4.54,4.54,4.538,4.5361,0.0,0.0,0.0,0.0,0.0,0.0,0.0,0.0,0.0,0.0,0.0,0.0,0.0,0.0,0.0,0.0,0.0,0.0,0.0,0.0,0.0,4.5243,4.5007,4.4751,4.4519,4.4438,4.4308,4.4048,4.4036,4.4005,4.4005,4.4005,4.4005,4.4005,4.4005,4.4005,4.4005,4.4005,4.4005,4.4005,4.4005,4.4005,4.4017,0.0,0.0,4.4493,4.4751,4.4985,4.5074,4.4624,4.4599,4.4776,4.4751,4.4546,4.4346,4.4346,4.4546,4.4726,4.4465,4.4776,4.5094,4.4796,4.4685,4.4685,4.4693,4.4712,4.4764,4.4895,4.508,4.5213,4.5256,4.5547,4.5761,4.5654,4.5794,4.5917,4.5918,4.598,4.6066,4.6188,4.6203,4.6195,4.622,4.6267,4.6307,4.6308,4.6303,4.6277,4.622,4.608,4.6008,4.5929,4.5723,4.5599,4.5531,4.5438,4.54,4.54,4.54,4.54,4.5381,4.5381,4.5381,4.5361,4.5361,4.5361,4.5361,4.5361,4.5361,4.5361,4.5361,4.5361,4.5359,4.5359,4.5317,4.5256,0.0,0.0,0.0,0.0,0.0,0.0,0.0,0.0,0.0,0.0,4.1284,4.1819,0.0,0.0,0.0,0.0,0.0,0.0,0.0,0.0,0.0,0.0,4.5263,4.5096,4.5074,4.4624,4.4374,4.4318,4.4091,4.4005,4.4005,4.4005,4.4005,4.4005,4.4005,4.4005,4.4005,4.4005,4.4005,4.4005,4.4005,4.4005,4.4017,0.0,0.0,0.0,4.503,4.503,4.4868,4.4751,4.4751,4.4751,4.4546,4.4308,4.4079,4.4079,4.443,4.4726,4.4465,4.4676,4.4915,4.4726,4.4578,4.4496,4.4659,4.4712,4.4789,4.5103,4.517,4.5277,4.5495,4.5663,4.5822,4.5853,4.5918,4.6002,4.6061,4.6085,4.6105,4.6188,4.6203,4.6226,4.6273,4.6282,4.6307,4.6293,4.6292,4.6279,4.6284,4.6203,4.6123,4.6064,4.5819,4.5684,4.5668,4.5494,4.54,4.54,4.54,4.5379,4.5319,4.5319,4.5256,4.5151,4.5194,4.5194,4.5151,4.5151,4.5151,4.5151,4.5151,4.5151,4.5148,4.5148,4.5148,4.5148,0.0,0.0,0.0,0.0,0.0,0.0,0.0,3.9962,4.0609,4.1303,4.2278,4.3134,4.3662,4.447,4.5143,0.0,0.0,0.0,0.0,0.0,0.0,0.0,0.0,0.0,4.5245,4.4995,4.4792,4.4644,0.0,4.4392,4.4279,4.4279,4.4181,4.4005,4.4005,4.4005,4.4005,4.4005,4.4005,4.4005,4.4005,4.4005,0.0,0.0,0.0,0.0,4.514,4.5118,4.5007,4.5007,4.4825,4.4572,4.4438,4.4318,4.4162,4.4048,4.4374,4.4745,4.4383,4.4591,4.4843,4.4595,4.4468,4.4468,4.4745,4.4821,4.4943,4.5235,4.5339,4.5419,4.5568,4.5676,4.578,4.5834,4.5899,4.5976,4.6055,4.6124,4.6169,4.6189,4.6234,4.6253,4.6301,4.6308,4.6295,4.6292,4.6299,4.6294,4.6308,4.6203,4.6066,4.5899,4.5794,4.5658,4.5493,4.5419,4.5362,4.5239,4.5256,4.5233,4.5192,4.5192,4.517,4.5103,4.5148,4.5125,4.5103,4.5103,4.5103,4.5103,4.5103,4.5103,4.5103,4.5103,4.5103,4.5103,0.0,0.0,0.0,0.0,0.0,0.0,0.0,4.0556,4.1309,4.1934,4.3345,4.4374,4.4566,4.5182,4.5586,0.0,0.0,0.0,0.0,0.0,0.0,0.0,0.0,0.0,0.0,0.0,0.0,4.4979,4.4935,0.0,0.0,0.0,0.0,0.0,4.4121,4.4091,4.4079,4.4017,4.4005,0.0,0.0,4.4005,0.0,0.0,0.0,0.0,0.0,4.5201,4.5201,4.5201,4.4872,4.4493,4.4493,4.443,4.4279,4.4097,4.4421,4.4745,4.4325,4.4576,4.4843,4.4505,4.444,4.4532,4.4846,4.4967,4.5106,4.5379,4.5477,4.5531,4.5603,4.5687,4.5731,4.581,4.5874,4.5941,4.6007,4.6123,4.6193,4.6209,4.6253,4.6301,4.6308,4.6293,4.6292,4.6294,4.6289,4.6289,4.6289,4.6162,4.5998,4.5802,4.5802,4.5654,4.5381,4.5362,4.5283,4.5103,4.5103,4.5103,4.508,4.5103,4.5061,4.5057,4.5061,4.508,4.5057,4.5057,4.5057,4.5057,4.5057,4.5057,4.5057,4.5057,4.5057,4.5057,0.0,0.0,0.0,0.0,0.0,0.0,0.0,4.1048,4.181,4.3785,4.4201,4.4605,4.5393,4.5547,4.5586,0.0,0.0,0.0,0.0,0.0,0.0,0.0,0.0,0.0,0.0,0.0,0.0,4.5266,4.5023,0.0,0.0,0.0,0.0,0.0,0.0,4.4411,4.4346,4.4091,0.0,0.0,0.0,0.0,0.0,0.0,0.0,0.0,0.0,4.5201,4.5201,4.5201,4.5007,4.4776,4.4825,4.4484,4.4067,4.4135,4.4522,4.4795,4.4393,4.4681,4.4962,4.4513,4.4551,4.4738,4.4943,4.5103,4.5256,4.5438,4.555,4.562,4.5684,4.575,4.5824,4.588,4.5905,4.5933,4.6075,4.6141,4.6201,4.6201,4.6256,4.6307,4.6309,4.6288,4.6299,4.6294,4.624,4.6209,4.6209,4.6135,4.6093,4.6056,4.5886,4.5723,4.558,4.54,4.5241,4.5103,4.5103,4.508,4.5014,4.5061,4.5014,4.4919,4.4967,4.4967,4.4919,4.4919,4.4919,4.4919,4.4919,4.4919,4.4919,4.4919,4.4919,4.4919,0.0,0.0,0.0,0.0,0.0,0.0,4.1647,4.2395,4.3195,4.4166,4.4759,4.5201,4.5547,4.5586,4.5586,4.5586,0.0,0.0,0.0,0.0,0.0,0.0,0.0,0.0,0.0,0.0,4.5607,4.5607,4.5486,0.0,0.0,0.0,0.0,0.0,0.0,4.465,4.4438,4.4289,0.0,0.0,0.0,0.0,0.0,0.0,0.0,0.0,0.0,0.0,4.5007,4.5322,4.5074,4.4676,4.503,4.4776,4.4365,4.4439,4.4602,4.4726,4.444,4.4621,4.4852,4.4551,4.4578,4.4745,4.4943,4.5087,4.526,4.5457,4.5586,4.5673,4.57,4.5761,4.5819,4.5887,4.5937,4.5986,4.6083,4.6162,4.6215,4.6256,4.6289,4.63,4.6292,4.6299,4.6265,4.619,4.615,4.6127,4.6074,4.6093,4.6066,4.5986,4.5953,4.5775,4.5475,4.5437,4.5263,4.4967,4.4967,4.4986,4.4943,4.4967,4.4943,4.4895,4.4919,4.4919,4.4895,4.4895,4.4895,4.4895,4.4895,4.4846,4.477,4.477,4.4738,4.4659,0.0,0.0,0.0,0.0,0.0,4.1506,4.2517,4.3433,4.4154,4.4626,4.522,4.5586,4.5586,4.5586,4.5622,4.564,4.5673,0.0,0.0,0.0,0.0,0.0,0.0,0.0,0.0,0.0,4.58,4.58,4.58,4.5688,0.0,0.0,4.5398,4.5147,0.0,0.0,0.0,0.0,0.0,0.0,0.0,0.0,0.0,0.0,0.0,0.0,0.0,0.0,0.0,0.0,0.0,4.4701,4.5182,4.5011,4.4643,4.4643,4.4745,4.4833,4.4505,4.4667,4.4852,4.4632,4.4685,4.4846,4.5019,4.5178,4.5342,4.5513,4.562,4.5706,4.5735,4.5771,4.5847,4.5887,4.598,4.6056,4.6127,4.6164,4.6216,4.6284,4.6307,4.6309,4.6294,4.6265,4.6196,4.6107,4.6074,4.6037,4.5975,4.6017,4.5997,4.5898,4.5929,4.5761,4.54,4.5456,4.5303,4.501,4.4967,4.4943,4.49,4.4895,4.4846,4.477,4.477,4.477,4.477,4.477,4.477,4.477,4.477,4.4719,4.4632,4.4632,4.4578,4.4515,0.0,0.0,0.0,0.0,0.0,0.0,4.3412,4.3814,4.4384,4.5453,4.5586,4.5586,4.5586,4.5586,4.5622,4.5693,4.5703,0.0,0.0,0.0,0.0,0.0,0.0,0.0,0.0,0.0,4.58,4.58,4.58,4.58,4.58,4.58,4.5786,4.5781,0.0,0.0,0.0,0.0,0.0,0.0,0.0,0.0,0.0,0.0,0.0,0.0,0.0,0.0,0.0,0.0,0.0,0.0,0.0,4.508,4.4701,4.4701,4.5036,4.5246,4.4674,4.4833,4.5115,4.4796,4.4846,4.5038,4.5159,4.5342,4.555,4.5657,4.5687,4.5715,4.58,4.5852,4.5906,4.5905,4.6005,4.6123,4.6189,4.6196,4.6222,4.6296,4.6307,4.6292,4.6309,4.6183,4.6099,4.6102,4.6027,4.5975,4.5898,4.5886,4.5886,4.5905,4.5841,4.5677,4.54,4.54,4.5321,4.5192,4.5125,4.5042,4.4915,4.49,4.4764,4.4496,4.4496,4.4496,4.4496,4.4496,4.4496,4.4496,4.4496,4.4515,4.4515,4.4515,4.4515,4.4515,0.0,0.0,0.0,0.0,0.0,0.0,0.0,4.48,4.5225,4.5566,4.5586,4.5622,4.5657,4.5676,4.5709,4.577,4.5735,0.0,0.0,0.0,0.0,0.0,0.0,0.0,0.0,0.0,4.58,4.58,4.58,4.58,4.58,4.58,4.58,4.5805,4.5712,4.5563,0.0,0.0,0.0,0.0,0.0,0.0,4.4374,0.0,0.0,0.0,0.0,0.0,0.0,0.0,0.0,0.0,0.0,0.0,0.0,4.5052,4.514,4.5203,4.4934,4.4938,4.5049,4.4924,4.5014,4.5151,4.5241,4.5419,4.5586,4.5693,4.5738,4.5761,4.5805,4.5841,4.5937,4.6016,4.6076,4.6111,4.6183,4.6192,4.6222,4.6287,4.627,4.6215,4.6164,4.6127,4.6056,4.5975,4.5933,4.5898,4.5841,4.5841,4.5841,4.5841,4.5814,4.5708,4.5545,4.5549,4.5457,4.5281,4.5256,4.5106,4.49,4.4895,4.4745,4.4515,4.4515,4.4515,4.4515,4.4515,4.4515,4.4515,4.4515,4.4458,4.4373,4.4373,4.4266,4.4158,0.0,0.0,0.0,0.0,0.0,0.0,0.0,4.5322,4.5622,4.564,4.564,4.5657,4.5706,4.5706,4.5738,4.5781,4.5765,0.0,0.0,0.0,0.0,0.0,0.0,0.0,0.0,4.58,4.58,4.58,4.58,4.58,4.58,4.58,4.58,4.58,4.5805,4.5712,0.0,0.0,0.0,0.0,0.0,0.0,4.4713,0.0,0.0,0.0,0.0,0.0,0.0,0.0,0.0,0.0,0.0,0.0,0.0,0.0,4.5399,4.5399,4.5163,4.5185,4.5246,4.5178,4.522,4.5342,4.54,4.5531,4.5657,4.5722,4.5765,4.5805,4.5833,4.588,4.5972,4.6085,4.6113,4.615,4.6197,4.6228,4.6248,4.6256,4.6201,4.6142,4.6088,4.6056,4.5997,4.5917,4.588,4.5835,4.5814,4.58,4.58,4.58,4.58,4.5742,4.5599,4.5603,4.5513,4.5362,4.5239,4.5087,4.49,4.4758,4.4568,4.4325,4.4325,4.4325,0.0,4.4325,4.4325,4.4325,4.4325,4.4266,4.4177,4.4177,4.4116,4.4005,0.0,0.0,0.0,0.0,0.0,0.0,0.0,4.5419,4.564,4.5693,4.5709,4.5706,4.57,4.5715,4.5731,4.5781,0.0,0.0,0.0,0.0,0.0,0.0,0.0,0.0,0.0,4.58,4.58,4.58,4.58,4.58,4.58,4.58,4.58,4.58,4.58,4.5805,4.5781,0.0,0.0,0.0,4.505,4.497,0.0,0.0,0.0,0.0,0.0,0.0,0.0,0.0,0.0,0.0,0.0,0.0,0.0,0.0,0.0,0.0,0.0,4.5481,4.566,4.5473,4.549,4.5539,4.5601,4.5657,0.0,4.58,4.5805,4.5827,4.5893,4.5956,4.6025,4.6095,4.6166,4.6203,4.6199,4.6247,4.6262,4.6201,4.6146,4.6084,4.608,4.5977,4.5905,4.5886,4.5841,4.58,4.58,4.58,4.58,4.58,4.58,4.5727,4.5622,4.5603,4.5568,4.5513,4.5161,4.4985,4.4872,4.4546,4.425,4.4005,4.4005,4.4005,4.4005,4.4005,4.4005,4.4005,4.4005,4.4005,4.4005,4.4005,4.4005,4.4005,0.0,0.0,0.0,0.0,0.0,0.0,0.0,0.0,0.0,0.0,4.5684,4.5719,4.5765,4.5765,4.5795,0.0,0.0,0.0,0.0,0.0,0.0,0.0,0.0,0.0,4.58,4.58,4.58,4.58,4.58,4.58,4.58,4.58,4.58,4.58,4.58,4.58,4.5786,4.5731,0.0,0.0,4.4421,4.3925,0.0,0.0,0.0,0.0,4.3923,4.4456,0.0,0.0,0.0,0.0,0.0,0.0,0.0,0.0,4.5713,4.6035,4.591,0.0,4.5829,4.5728,4.5771,4.581,0.0,4.58,4.5827,4.5824,4.5847,4.5906,4.5968,4.6025,4.6105,4.6166,4.6183,4.6211,4.6261,4.6202,4.6158,4.6206,4.6091,4.6027,4.6017,4.5956,4.5893,4.5841,4.5814,4.58,4.58,4.58,4.5786,4.5795,4.5795,4.5781,4.575,4.5706,4.5676,4.564,4.5322,4.503,4.48,4.4519,4.425,4.4005,4.4005,4.4005,4.4005,4.4005,4.4005,4.4005,4.4005,4.4005,4.4005,4.4005,4.4005,4.4005,0.0,0.0,0.0,0.0,0.0,0.0,0.0,0.0,0.0,0.0,0.0,4.5765,0.0,0.0,0.0,0.0,0.0,0.0,0.0,0.0,0.0,0.0,0.0,4.58,4.58,4.58,4.58,4.58,4.58,4.58,4.58,4.58,4.58,4.58,4.58,4.5587,4.5258,4.5264,4.4979,4.4501,4.3952,0.0,0.0,0.0,0.0,0.0,4.2953,4.3624,0.0,4.471,4.5109,4.5526,0.0,0.0,0.0,0.0,4.575,4.6105,4.6141,4.6093,4.6008,4.5928,4.5944,4.596,4.5905,4.591,4.5896,4.5905,4.5906,4.5912,4.5991,4.5996,4.604,4.6181,4.6143,4.6145,4.6289,4.6245,4.6181,4.6157,4.6063,4.5988,4.5966,4.5898,4.5841,4.5814,4.58,4.58,4.5805,4.5805,4.5776,4.5765,4.5735,4.5754,4.5754,4.5726,4.5673,4.564,4.5222,4.4938,4.4776,4.4402,4.4151,4.4005,4.4005,4.4005,4.4005,4.4005,4.4005,4.4005,4.4005,4.4005,4.4005,4.4005,4.4005,4.4005,0.0,0.0,0.0,0.0,0.0,0.0,0.0,0.0,0.0,0.0,0.0,0.0,0.0,0.0,0.0,0.0,0.0,0.0,0.0,0.0,0.0,0.0,0.0,4.58,4.58,4.58,4.58,4.58,4.58,4.58,4.58,4.58,4.58,4.58,4.58,4.5355,4.4601,4.4601,4.4446,4.4136,4.3388,0.0,0.0,0.0,0.0,0.0,0.0,0.0,0.0,4.3846,4.4593,4.5439,4.5436,0.0,0.0,0.0,0.0,0.0,4.6154,4.6183,4.6176,4.6041,4.6052,4.6074,4.6003,4.5957,4.5945,4.5984,4.5932,4.591,4.5968,4.5969,4.6002,4.6151,4.6104,4.6083,4.6241,4.626,4.6209,4.6107,4.6027,4.5966,4.5929,4.5854,4.58,4.58,4.58,4.5805,4.5815,4.5781,4.5765,4.57,4.5706,4.5693,4.5673,4.5673,4.564,4.5531,4.503,4.4776,4.4726,4.424,4.4005,4.4005,4.4005,0.0,4.4005,4.4005,4.4005,4.4005,4.4005,4.4005,4.4005,4.4005,4.4005,4.4005,0.0,0.0,0.0,0.0,0.0,0.0,0.0,0.0,0.0,0.0,0.0,0.0,0.0,0.0,0.0,0.0,0.0,0.0,0.0,0.0,0.0,4.58,4.58,4.58,4.58,4.58,4.58,4.58,4.58,4.58,4.58,4.58,4.58,4.58,4.58,4.5355,4.4601,4.4601,4.375,4.2396,4.224,0.0,0.0,0.0,0.0,0.0,0.0,0.0,0.0,4.3733,4.4331,4.4852,4.5398,0.0,0.0,0.0,0.0,0.0,4.6024,4.6105,4.6176,4.6103,4.6037,4.601,4.6005,4.5996,4.5969,4.5932,4.5905,4.5889,4.5903,4.604,4.615,4.611,4.6149,4.616,4.6135,4.6084,4.6047,4.6008,4.5922,4.588,4.596,4.5867,4.58,4.58,4.5791,4.5795,4.58,4.575,4.5719,4.569,4.5709,4.5657,4.5622,4.5622,4.5495,4.5243,4.4962,4.4676,4.4438,4.4151,4.4005,4.4005,0.0,4.4005,4.4005,4.4005,4.4005,4.4005,4.4005,4.4005,4.4005,4.4005,4.4005,4.4005,0.0,0.0,0.0,0.0,0.0,0.0,0.0,0.0,0.0,0.0,0.0,0.0,0.0,0.0,0.0,0.0,0.0,0.0,0.0,0.0,0.0,4.58,4.58,4.58,4.58,4.58,4.58,4.58,4.58,4.58,4.58,4.58,4.5568,4.5142,4.5142,4.4678,4.3866,4.3394,4.2737,4.1963,0.0,0.0,0.0,0.0,0.0,0.0,0.0,0.0,0.0,0.0,4.3484,4.4581,4.4816,0.0,0.0,0.0,0.0,0.0,4.6049,4.6076,4.6076,4.6049,4.6086,4.6112,4.6115,4.6105,4.6095,4.6014,4.6014,4.5998,4.5913,4.5941,4.5996,4.5981,4.6133,4.6221,4.6115,4.6072,4.6046,4.6007,4.596,4.5912,4.5899,4.5841,4.58,4.58,4.581,4.5781,4.575,4.5719,4.5671,4.564,4.564,4.564,4.5586,4.5476,4.5322,4.5201,4.4776,4.4519,4.4402,4.4121,4.4005,4.4005,0.0,4.4005,4.4005,4.4005,4.4005,4.4005,4.4005,4.4005,4.4005,4.4005,4.4005,4.4005,0.0,0.0,0.0,0.0,0.0,0.0,0.0,0.0,0.0,0.0,0.0,0.0,0.0,0.0,0.0,0.0,0.0,0.0,0.0,0.0,4.5814,4.58,4.5814,4.5814,4.58,4.58,4.58,4.58,4.58,4.58,4.58,4.58,4.5471,4.4871,4.4678,4.4117,4.3247,4.2375,4.1879,4.1627,0.0,0.0,0.0,0.0,0.0,0.0,0.0,0.0,0.0,0.0,0.0,0.0,0.0,0.0,0.0,4.5822,4.5867,4.5969,4.6024,4.6026,4.5998,4.5949,4.6021,4.613,4.616,4.6162,4.6144,4.6114,4.6095,4.606,4.5948,4.5889,4.5898,4.5968,4.6137,4.6234,4.6103,4.6076,4.6054,4.596,4.5949,4.5912,4.5814,4.58,4.58,4.58,4.581,4.5765,4.5715,4.5706,4.5676,4.5586,4.5586,4.5568,4.5513,4.5243,4.5096,4.5096,4.4624,4.4374,4.4289,4.4091,4.4005,4.4005,4.4005,4.4005,4.4005,4.4005,4.4005,4.4005,4.4005,4.4005,4.4005,4.4005,4.4005,4.4005,0.0,0.0,0.0,0.0,0.0,0.0,0.0,0.0,0.0,0.0,0.0,0.0,0.0,0.0,0.0,0.0,0.0,0.0,0.0,0.0,4.586,4.58,4.586,4.586,4.58,4.58,4.58,4.58,4.58,4.58,4.58,4.58,4.5761,4.5684,4.4929,4.4117,4.3247,4.2375,4.1531,4.0783,4.0636,0.0,0.0,0.0,0.0,0.0,0.0,0.0,0.0,0.0,0.0,0.0,0.0,0.0,4.5814,4.5794,4.5802,4.5822,4.5898,4.5964,4.5975,4.5848,4.5814,4.5867,4.606,4.6065,4.6026,4.6091,4.6093,4.6084,4.6012,4.6034,4.6104,4.6177,4.6192,4.6164,4.6027,4.6007,4.5964,4.5841,4.5814,4.5814,4.58,4.58,4.58,4.58,4.581,4.5765,4.5715,4.5706,4.5676,4.5586,4.5586,4.5495,4.5222,4.4943,4.4825,4.4843,4.4546,4.4279,4.4036,4.4005,4.4005,4.4005,4.4005,4.4005,4.4005,4.4005,4.4005,4.4005,4.4005,4.4005,4.4005,4.4005,4.4005,4.4005,0.0,0.0,0.0,0.0,0.0,0.0,0.0,0.0,0.0,0.0,0.0,0.0,0.0,0.0,0.0,0.0,0.0,0.0,0.0,4.5854,4.5899,4.586,4.5887,4.5899,4.586,4.5814,4.58,4.58,4.58,4.58,4.58,4.58,4.58,4.5742,4.4388,4.3614,4.3208,4.1795,4.1009,4.0687,4.0485,4.0403,0.0,0.0,0.0,0.0,0.0,0.0,0.0,0.0,4.1938,4.3312,4.3685,4.4756,4.5866,4.5871,4.5859,4.5873,4.5886,4.5939,4.5974,4.5889,4.5878,4.5959,4.6074,4.6103,4.6125,4.6099,4.6135,4.6131,4.6065,4.6015,4.5997,4.6115,4.6142,4.6111,4.6017,4.5997,4.5953,4.5827,4.58,4.58,4.58,4.58,4.58,4.58,4.581,4.5781,4.5765,4.5719,4.5687,4.5651,4.5494,4.5362,4.5263,4.48,4.4546,4.4546,4.4279,4.4109,4.4005,4.4005,4.4005,4.4005,4.4005,4.4005,4.4005,4.4005,4.4005,4.4005,4.4005,4.4005,4.4005,4.4005,4.4005,4.4005,0.0,0.0,0.0,0.0,0.0,0.0,0.0,0.0,0.0,0.0,0.0,0.0,0.0,0.0,0.0,0.0,0.0,0.0,4.5827,4.5893,4.5905,4.5899,4.5925,4.5925,4.5899,4.5854,4.5827,4.5827,4.5827,4.5841,4.5841,4.5841,4.5827,4.5769,4.4072,4.3318,4.3189,4.1448,4.0654,4.0598,4.0367,4.0283,0.0,0.0,0.0,0.0,0.0,0.0,0.0,0.0,4.1672,4.3228,4.3327,4.4525,4.5894,4.584,4.5844,4.5869,4.588,4.5916,4.5949,4.5898,4.593,4.5981,4.6079,4.6144,4.6176,4.6164,4.6195,4.621,4.6111,4.6003,4.5968,4.6083,4.6074,4.6056,4.6047,4.6007,4.5964,4.5835,4.5814,4.58,4.58,4.58,4.58,4.58,4.5805,4.5795,4.58,4.5719,4.5651,4.5651,4.5419,4.526,4.5178,4.4745,4.4503,4.4421,4.4199,4.4067,4.4005,4.4005,4.4005,4.4005,4.4005,4.4005,4.4005,4.4005,4.4005,4.4005,4.4005,4.4005,4.4005,4.4005,4.4005,4.4005,0.0,0.0,0.0,0.0,0.0,0.0,0.0,0.0,0.0,0.0,0.0,0.0,0.0,0.0,0.0,0.0,0.0,0.0,4.5893,4.5956,4.596,4.5898,4.596,4.596,4.5886,4.5886,4.5893,4.5893,4.5893,4.5905,4.5905,4.5905,4.5893,4.5815,4.415,4.3363,4.3189,4.1448,4.0598,4.0406,4.0317,4.0212,4.0081,0.0,0.0,0.0,0.0,0.0,0.0,0.0,4.177,4.3195,4.3272,4.4502,4.5891,4.5742,4.5743,4.5796,4.5799,4.5859,4.588,4.5817,4.5844,4.5933,4.6067,4.6108,4.6138,4.6269,4.6295,4.6269,4.6119,4.6033,4.6027,4.6086,4.6052,4.6027,4.6093,4.6037,4.5975,4.5917,4.5835,4.58,4.58,4.58,4.58,4.58,4.58,4.5805,4.5815,4.5671,4.5568,4.5495,4.536,4.517,4.4895,4.4895,4.4745,4.4515,4.4373,4.4207,4.4005,4.4005,4.4005,4.4005,4.4005,4.4005,4.4005,4.4005,4.4005,4.4005,4.4005,4.4005,4.4005,4.4005,4.4005,4.4005,0.0,0.0,0.0,0.0,0.0,0.0,0.0,0.0,0.0,0.0,0.0,0.0,0.0,0.0,0.0,0.0,0.0,0.0,4.5906,4.596,4.5994,4.596,4.5994,4.5994,4.596,4.596,4.5949,4.5893,4.5905,4.5905,4.5905,4.5905,4.5905,4.5835,4.4143,4.3395,4.3266,4.1506,4.0733,4.066,4.0356,4.0195,4.0139,0.0,0.0,0.0,0.0,0.0,0.0,0.0,0.0,0.0,4.3361,4.4588,4.6027,4.5937,4.5854,4.5801,4.5801,4.5842,4.5893,4.5878,4.5917,4.6,4.6083,4.6109,4.6108,4.6148,4.6088,4.6035,4.6092,4.6014,4.5987,4.6131,4.606,4.6027,4.6093,4.6084,4.6027,4.5898,4.5873,4.5848,4.5794,4.58,4.58,4.58,4.58,4.5771,4.5665,4.5616,4.5547,4.5438,4.5159,4.4981,4.491,4.47,4.4578,4.4515,4.4458,4.4373,4.4226,4.4067,4.4005,4.4005,4.4005,4.4005,4.4005,4.4005,4.4005,4.4005,4.4005,4.4085,4.4207,4.4207,4.4266,4.4354,0.0,0.0,0.0,0.0,0.0,0.0,0.0,0.0,0.0,0.0,4.58,4.5814,0.0,0.0,0.0,4.5841,4.5893,0.0,4.5944,4.5983,4.5997,4.5994,4.5986,4.5997,4.5994,4.5994,4.5983,4.5953,4.5953,4.5953,4.5953,4.5953,4.5941,4.5871,4.416,4.34,4.3298,4.1531,4.0759,4.066,4.0321,4.0158,4.006,0.0,0.0,0.0,0.0,0.0,0.0,0.0,0.0,0.0,4.3369,4.4626,4.6056,4.5978,4.5879,4.5788,4.5793,4.585,4.5889,4.587,4.5913,4.5975,4.6006,4.6085,4.6112,4.606,4.6008,4.5969,4.6014,4.5939,4.5964,4.6135,4.6063,4.6036,4.6138,4.613,4.6075,4.5986,4.5964,4.5898,4.5854,4.5854,4.5841,4.5814,4.5737,4.5677,4.5613,4.5493,4.54,4.5321,4.5045,4.4887,4.4887,4.4726,4.4659,4.4659,4.4605,4.4524,4.444,4.4296,4.4188,4.4188,4.4188,4.4188,4.4188,4.4188,4.4188,4.4188,4.4188,4.4266,4.4373,4.4373,4.4344,4.4296,0.0,0.0,4.4966,4.5418,0.0,0.0,0.0,0.0,0.0,4.58,4.5814,4.5827,0.0,0.0,0.0,4.5905,4.596,4.5991,4.5991,4.6005,4.5997,4.5997,4.5997,4.5997,4.5997,4.5997,4.5997,4.5997,4.5997,4.5997,4.5997,4.5997,4.6005,4.5925,4.4178,4.3408,4.3279,4.1524,4.0668,4.0473,4.0269,4.006,3.9914,3.9911,0.0,0.0,0.0,0.0,0.0,0.0,0.0,0.0,4.3446,4.4657,4.5986,4.5901,4.5847,4.5801,4.5792,4.5832,4.5879,4.5815,4.585,4.5905,4.5913,4.606,4.6156,4.6017,4.5984,4.5954,4.5902,4.5893,4.5925,4.6066,4.6036,4.6046,4.6162,4.6146,4.6102,4.6093,4.6047,4.5975,4.5905,4.5886,4.5848,4.5786,4.5692,4.5629,4.5596,4.5361,4.5235,4.5194,4.5014,4.4895,4.4895,4.4895,4.4895,4.4895,4.4789,4.4738,4.4712,4.4551,4.4515,4.4515,4.4515,4.4515,4.4515,4.4515,4.4515,4.4515,4.4515,4.4515,4.4496,4.4468,4.4277,4.4017,0.0,0.0,4.4966,4.5418,0.0,0.0,0.0,0.0,4.58,4.58,4.5847,4.5874,4.5893,4.5899,0.0,4.5905,4.596,4.5991,4.5991,4.6005,4.5997,4.5997,4.5997,4.5997,4.5997,4.5997,4.5997,4.5997,4.5997,4.5997,4.5997,4.5997,4.5997,4.5908,4.4178,4.34,4.3276,4.1376,4.0545,4.0473,4.012,3.996,3.9962,3.9914,3.9973,0.0,0.0,0.0,0.0,0.0,0.0,0.0,4.4059,4.5054,4.5972,4.5859,4.5812,4.5796,4.58,4.5815,4.5811,4.5799,4.5901,4.5977,4.6044,4.6131,4.6131,4.5899,4.5802,4.5777,4.5796,4.5789,4.5794,4.5925,4.5978,4.6008,4.6046,4.6119,4.6154,4.6102,4.5997,4.5905,4.5841,4.5827,4.5771,4.5651,4.5808,4.5815,4.5613,4.5491,4.5362,4.5185,4.5,4.4895,4.4895,4.4895,4.4895,4.4895,4.487,4.4846,4.4846,4.4605,4.4515,4.4515,4.4515,4.4515,4.4515,4.4515,4.4515,4.4515,4.4515,4.4551,4.4632,4.4374,4.4298,4.4289,0.0,0.0,0.0,0.0,0.0,0.0,0.0,0.0,4.521,4.5555,4.5786,4.5887,4.586,4.5912,0.0,0.0,4.5634,4.5431,4.5431,4.5034,4.4986,4.5414,4.5783,4.5997,4.5997,4.5997,4.5997,4.5997,4.5997,4.5997,4.5997,4.5997,4.5997,4.5919,4.4219,4.3377,4.3144,4.1277,4.0446,4.0321,4.002,3.9939,4.0002,3.9935,3.9975,4.0118,4.029,0.0,0.0,0.0,0.0,0.0,0.0,0.0,4.5898,4.5901,4.5874,4.5844,4.5817,4.5828,4.5835,4.5813,4.5902,4.599,4.5964,4.606,4.6092,4.5919,4.5835,4.5789,4.5796,4.5769,4.5783,4.5883,4.5928,4.5978,4.6036,4.6111,4.6154,4.6142,4.6091,4.6027,4.5964,4.5944,4.591,4.58,4.5861,4.5815,4.5613,4.5472,4.5323,4.5161,4.5065,4.501,4.501,4.501,4.501,4.501,4.501,4.4967,4.4943,4.477,4.4685,4.4685,4.4685,4.4685,4.4685,4.4685,4.4685,4.4685,4.4685,4.464,4.4549,4.4365,4.4125,4.3893,0.0,0.0,0.0,0.0,0.0,0.0,0.0,0.0,0.0,4.5342,4.5692,4.5822,4.5766,4.5867,4.5891,0.0,0.0,0.0,4.4536,4.3973,4.3993,4.4691,4.5506,4.5953,4.5953,4.5975,4.5975,4.5975,4.5997,4.5919,4.5802,4.5919,4.5997,4.5919,4.4248,4.3366,4.3009,4.121,4.0345,4.0139,3.9916,3.9895,3.9981,3.9914,4.0091,4.0386,4.0556,4.1178,4.1975,4.2248,0.0,0.0,0.0,0.0,4.5835,4.5949,4.5947,4.5894,4.5831,4.5852,4.5899,4.5848,4.593,4.5969,4.5874,4.5978,4.6072,4.6014,4.5956,4.5883,4.5848,4.5822,4.5815,4.5891,4.5922,4.5975,4.6047,4.6084,4.6119,4.6183,4.6144,4.6096,4.6056,4.6027,4.5978,4.5898,4.5809,4.5728,4.5596,4.5417,4.5284,4.5173,4.5106,4.5103,4.5103,4.5103,4.5103,4.5103,4.5103,4.508,4.5033,4.4943,4.4919,4.4895,4.4895,4.4895,4.4895,4.4895,4.487,4.4821,4.4846,4.4629,4.4346,4.4318,4.3943,4.344,0.0,0.0,0.0,0.0,0.0,0.0,0.0,0.0,0.0,0.0,4.5616,4.5645,4.5629,4.5696,4.5437,4.4679,4.4525,4.4158,4.3457,0.0,0.0,4.4448,4.5278,4.5742,4.5742,4.5847,4.5919,4.5919,4.5964,4.5627,4.4986,4.5666,4.5997,4.5919,4.4248,4.3427,4.3137,4.1101,4.0173,4.0002,3.9735,3.975,3.9914,3.9911,4.0535,4.1399,4.151,4.2132,4.3054,4.3871,4.4346,0.0,0.0,0.0,4.5886,4.5914,4.5916,4.5899,4.5882,4.5889,4.5918,4.5964,4.5988,4.6022,4.6047,4.6091,4.6072,4.6008,4.5949,4.5924,4.5949,4.5877,4.5823,4.5887,4.5996,4.6041,4.5944,4.6037,4.6102,4.6111,4.591,4.5794,4.5841,4.5728,4.5577,4.5419,4.5587,4.5645,4.5507,4.5417,4.538,4.5361,4.5178,4.5103,4.5103,4.5103,4.5103,4.5103,4.5103,4.5103,4.5103,4.508,4.4991,4.4895,4.4895,4.4895,4.4895,4.4895,4.4732,4.4484,4.4595,4.4449,4.4121,4.3886,4.3744,4.3612,0.0,0.0,0.0,0.0,0.0,0.0,0.0,0.0,0.0,0.0,0.0,4.5632,4.5547,4.5632,4.5353,4.4484,4.3944,4.3115,4.1837,4.2941,4.3674,4.3674,4.4504,4.4967,4.4967,4.4583,4.438,4.438,4.4446,4.4296,4.3918,4.4381,4.4558,4.4436,4.3276,4.2821,4.2806,4.1487,4.0997,4.1118,4.1165,4.0946,4.0631,4.1279,4.1571,4.1665,4.218,4.3013,4.3898,4.4349,4.4882,4.5389,4.5783,0.0,0.0,0.0,4.5949,4.5947,4.5907,4.5863,4.5862,4.588,4.5921,4.5938,4.5929,4.603,4.6077,4.6007,4.5984,4.5935,4.5902,4.5838,4.5789,4.5791,4.5834,4.5882,4.5854,4.5891,4.5964,4.5988,4.5883,4.5822,4.5854,4.5769,4.5665,4.5594,4.5679,4.5694,4.556,4.5526,4.5473,4.54,4.5298,4.5213,4.5213,4.5213,4.5213,4.5213,4.517,4.5148,4.5148,4.5125,4.508,4.5014,4.5014,4.4919,4.4789,4.4789,4.4576,4.4289,4.4355,4.4181,4.3873,4.3744,4.3597,4.3391,0.0,0.0,0.0,0.0,0.0,0.0,0.0,0.0,0.0,0.0,0.0,4.5566,4.5457,0.0,0.0,0.0,4.3407,4.231,4.0635,4.1886,4.2694,4.2694,4.3522,4.3984,4.3984,4.3435,4.3142,4.3142,4.322,4.3137,4.2859,4.302,4.2896,4.2537,4.2272,4.2226,4.2317,4.1532,4.1431,4.1814,4.1787,4.1532,4.1247,4.2105,4.2202,4.2029,4.2909,4.3878,4.4726,4.4793,4.5288,4.5899,4.5905,4.5898,0.0,0.0,0.0,4.5988,4.5933,4.5906,4.5862,4.582,4.5854,4.5893,4.5819,4.5916,4.6007,4.5969,4.5949,4.5916,4.5829,4.5815,4.5849,4.581,4.5795,4.581,4.5802,4.5802,4.5822,4.5879,4.584,4.5835,4.5848,4.5764,4.5722,4.5699,4.5699,4.5654,4.5563,4.5545,4.5494,4.5399,4.5338,4.5317,4.5317,4.5338,4.5338,4.5317,4.5256,4.5235,4.5213,4.517,4.5106,4.5019,4.5014,4.487,4.4693,4.4613,4.4383,4.4072,4.4121,4.3905,4.3631,4.3631,4.3495,4.3286,0.0,0.0,0.0,0.0,0.0,0.0,0.0,0.0,0.0,0.0,0.0,4.5317,4.5317,4.5317,4.4648,4.3024,4.2833,4.2106,4.0424,4.1113,4.1571,4.1571,4.2412,0.0,4.2871,4.2964,4.2996,4.2996,4.3142,4.2777,4.1957,4.1972,4.147,4.0592,4.1577,4.1917,4.1692,4.0762,4.075,4.1276,4.039,4.0545,4.1296,4.1374,4.1952,4.2852,4.379,4.4725,4.5555,4.5607,4.5747,4.5905,4.5905,4.5933,4.5997,0.0,0.0,0.0,4.5991,4.6033,4.6035,4.5857,4.5891,4.5966,4.5819,4.5824,4.58,4.58,4.58,4.58,4.58,4.5896,4.6009,4.6072,4.6083,4.6011,4.5829,4.5796,4.5802,4.5794,4.568,4.5632,4.5703,4.5596,4.5494,4.5438,4.5419,4.5419,4.5419,4.5419,4.54,4.5398,4.5398,4.5379,4.5379,4.54,4.54,4.5379,4.5398,4.5378,4.5297,4.5297,4.5109,4.4819,4.4751,4.4712,4.4685,4.4355,4.4011,4.3744,4.3865,4.3701,4.3411,4.3497,4.3497,4.3479,0.0,0.0,0.0,0.0,0.0,0.0,0.0,0.0,0.0,0.0,0.0,0.0,0.0,4.3997,4.3233,4.2068,4.1495,4.0941,4.0348,4.1055,4.1495,4.1495,4.18,0.0,4.1972,4.1513,4.1282,4.1282,4.1363,4.1226,4.0874,4.1089,4.0887,4.0363,4.0963,4.1311,4.1437,4.126,4.1514,4.2006,4.1833,4.1587,4.1393,4.2107,4.2602,4.304,4.3884,4.4853,4.5731,4.5765,4.5814,4.5905,4.5905,4.5953,4.5997,4.5997,4.6027,4.6052,4.6017,4.6012,4.6015,4.5883,4.5866,4.5881,4.5881,4.5828,4.58,4.58,4.58,4.58,4.58,4.5838,4.5886,4.5899,4.5906,4.588,4.5819,4.5761,4.575,4.5735,4.5654,4.562,4.5616,4.5566,4.5495,4.5476,4.5457,4.5457,4.5457,4.5457,4.5457,4.5458,4.5419,4.54,4.54,4.54,4.54,4.54,4.5399,4.5258,4.5026,4.4981,4.4819,4.4519,4.4327,4.4229,4.4229,4.4109,4.3892,4.3582,4.3615,4.3566,4.3463,4.3497,4.3497,4.3497,0.0,0.0,0.0,0.0,0.0,0.0,0.0,0.0,0.0,0.0,0.0,0.0,0.0,0.0,4.245,4.1571,4.0769,4.031,4.031,4.0807,4.1094,4.1094,4.1094,0.0,4.1094,4.0578,4.031,4.031,4.0344,4.0344,4.0291,4.0527,4.0511,4.031,4.0554,4.0781,4.0977,4.1148,4.1571,4.2088,4.201,4.1896,4.1873,4.2641,4.3116,4.3481,4.4306,4.5086,4.5703,4.5703,4.5776,4.5867,4.5867,4.5944,4.6036,4.6052,4.6098,4.6114,4.6085,4.6072,4.6054,4.5956,4.5923,4.5893,4.5881,4.5863,4.5833,4.5786,4.5805,4.5805,4.58,4.58,4.58,4.58,4.5805,4.5795,4.5815,4.5754,4.5742,4.5706,4.5654,4.5637,4.5637,4.5603,4.5568,4.5568,4.555,4.5531,4.5531,4.5531,4.5513,4.5495,4.5476,4.54,4.5302,4.5322,4.5282,4.518,4.5175,4.5065,4.4838,4.4789,4.461,4.4289,4.4091,4.4036,4.4005,4.3878,4.3716,4.3497,4.3497,4.3497,4.3497,4.3497,4.3497,4.3497,0.0,0.0,0.0,0.0,0.0,0.0,0.0,0.0,0.0,4.2503,0.0,0.0,0.0,0.0,0.0,4.1533,4.075,4.031,4.031,4.031,4.031,4.031,4.031,4.031,4.031,4.031,4.031,4.031,4.031,4.031,4.031,4.031,4.031,4.0291,4.0358,4.036,4.031,4.031,4.075,4.1399,4.0616,4.1266,4.2717,4.2738,4.3274,4.4154,4.5036,4.5399,4.5475,4.5513,4.5635,4.581,4.5814,4.5958,4.6118,4.6171,4.6202,4.6206,0.0,0.0,0.0,4.6039,4.605,4.6053,4.5844,4.5848,4.588,4.5829,4.5795,4.581,4.58,4.58,4.58,4.58,4.58,4.5786,4.5795,4.58,4.5765,4.5715,4.57,4.57,4.57,4.5706,4.5693,4.5693,4.564,4.5605,4.5586,4.5586,4.555,4.5495,4.5476,4.5342,4.5096,4.5159,4.503,4.4701,4.4701,4.4688,4.4685,4.4685,4.4458,4.4109,4.4109,4.4048,4.3974,4.3615,4.3497,4.3497,4.3497,4.3497,4.3497,4.3497,4.3497,4.3497,0.0,0.0,0.0,0.0,0.0,0.0,4.2506,0.0,4.2385,0.0,0.0,0.0,4.17,4.1284,4.0903,4.0654,4.0444,4.031,4.031,4.031,4.031,4.031,4.031,4.031,4.031,4.031,4.031,4.031,4.031,4.031,4.031,4.0362,4.0344,4.0291,4.0358,4.036,4.0291,4.0342,4.0478,4.0616,4.0387,4.0578,4.0998,4.0998,4.1586,4.2549,4.3429,4.4253,4.5026,4.565,4.5925,4.6027,4.6079,4.6123,4.6186,4.6199,4.62,4.6209,4.6209,0.0,0.0,0.0,0.0,0.0,4.6039,4.5994,4.5956,4.5893,4.5867,4.5854,4.5814,4.58,4.58,4.58,4.58,4.5786,4.5795,4.58,4.5765,4.5715,4.57,4.57,4.5706,4.5709,4.5693,4.564,4.5622,4.5513,4.5322,4.5137,4.5007,4.4988,4.5007,4.4962,4.4872,4.4896,4.4849,4.4776,4.4726,4.4591,4.4393,4.4355,4.417,4.3883,4.3781,4.3749,4.3716,4.3548,4.3497,4.3497,4.3497,4.3497,4.3497,4.3497,4.3497,4.3444,0.0,0.0,4.4037,4.3304,0.0,4.2586,4.1757,4.1543,4.1431,0.0,0.0,0.0,4.0781,4.0501,4.031,4.031,4.031,4.031,4.031,4.031,4.031,4.031,4.031,4.031,4.031,4.031,4.031,4.031,4.031,4.031,4.0344,4.0342,4.0342,4.0344,4.0392,4.036,4.0291,4.0358,4.0375,4.0326,4.031,4.0539,4.0881,4.0844,4.1449,4.2367,4.2884,4.3723,4.4686,4.5211,4.5673,4.6066,4.6162,4.6206,4.6204,4.6229,4.5976,4.5698,4.5698,4.5424,4.525,4.56,0.0,0.0,4.5955,4.6013,4.5975,4.5835,4.5827,4.5814,4.5814,4.5786,4.5805,4.58,4.5752,4.5742,4.5791,4.5791,4.5761,4.5665,4.5665,4.5616,4.5513,4.5476,4.5419,4.5322,4.5263,4.5222,4.5118,4.4985,4.4872,4.4872,4.4872,4.48,4.4624,4.4624,4.4572,4.4457,4.443,4.4336,4.4162,4.4121,4.4036,4.3837,4.3719,4.3667,4.3582,4.3532,4.3497,4.3497,4.3497,4.3497,4.3497,4.3497,4.3375,4.3232,0.0,0.0,4.348,4.2641,4.2322,4.1897,4.1105,4.0801,4.0434,0.0,3.9693,3.9804,4.0057,4.0195,4.0291,4.0291,4.0291,4.031,4.031,4.031,4.031,4.031,4.031,4.031,4.031,4.031,4.031,4.031,4.031,4.0344,4.0406,4.0344,4.0362,4.0406,4.0422,4.0394,4.031,4.0375,4.0422,4.0438,4.0363,4.0803,4.1541,4.1508,4.2002,4.2755,4.2848,4.3466,4.4269,4.4357,4.5062,4.5894,4.5909,4.6041,4.6171,4.6056,4.5539,4.4972,4.4871,4.4289,4.3899,4.4657,4.4816,0.0,4.5531,4.5696,4.5669,4.5481,4.5529,4.5621,4.5659,4.5761,4.5805,4.5827,4.5708,4.5645,4.5771,4.5752,4.5708,4.558,4.558,4.5473,4.5222,4.5159,4.5052,4.4919,4.4843,4.4868,4.4985,4.4962,4.4938,4.4938,4.4938,4.4751,4.4402,4.4374,4.425,4.4005,4.4005,4.4005,4.4005,4.4005,4.3974,4.3897,4.3818,4.3719,4.3548,4.3479,4.3479,4.3497,4.3497,4.3479,4.341,4.341,4.3178,4.2806,4.3254,4.2967,4.2661,4.1982,4.1589,4.1067,4.0252,3.9953,3.9789,3.9645,3.9665,3.9762,3.9911,4.0057,4.0137,4.0137,4.0234,4.031,4.031,4.031,4.031,4.031,4.031,4.031,4.031,4.031,4.031,4.031,4.0342,4.0392,4.0406,4.0504,4.0485,4.0406,4.0515,4.0485,4.0392,4.0389,4.0515,4.0707,4.0473,4.0488,4.0655,4.075,4.0911,4.1171,4.1925,4.2381,4.2761,4.3394,4.4319,4.5071,4.4345,4.5117,4.6009,4.4628,4.4582,4.4852,4.4142,4.3829,4.3732,4.3907,4.3938,0.0,4.4097,4.4098,4.4031,4.3947,4.4492,4.4958,4.4916,4.5498,4.5964,4.5964,4.5802,4.5677,4.5635,4.5547,4.5456,4.5381,4.54,4.5342,4.514,4.5201,4.518,4.4988,4.4929,4.4876,4.49,4.47,4.4587,4.4587,4.4505,4.4393,4.4325,4.414,4.4048,4.4005,4.4005,4.4005,4.4005,4.4005,4.4005,4.3974,4.3897,4.3631,4.3177,4.3142,4.325,4.3497,4.3497,4.3304,4.3013,4.3013,4.275,4.2279,4.253,4.2319,4.2082,4.1364,4.1003,4.0635,4.0118,3.9958,3.9845,3.9626,3.9661,3.9717,3.9804,3.9911,4.0015,4.0015,4.0057,4.0117,4.0117,4.0117,4.0137,4.0195,4.0137,4.0157,4.031,4.0291,4.0327,4.0362,4.0457,4.053,4.0607,4.0607,4.0559,4.05,4.0635,4.0593,4.0406,4.053,4.0635,4.0675,4.0485,4.0485,4.0607,4.0588,4.0648,4.0759,4.1234,4.1714,4.2285,4.3191,4.3824,4.4177,4.3791,4.4277,4.4828,4.3961,4.3704,4.3603,4.317,4.2721,4.2506,4.2936,4.3041,0.0,0.0,4.3598,4.3564,4.348,4.3801,4.4093,4.4093,4.4802,4.5346,4.5356,4.5492,4.5591,4.5545,4.5475,4.5361,4.526,4.5279,4.5197,4.4929,4.4953,4.4929,4.4758,4.4719,4.4738,4.4815,4.4685,4.4605,4.4605,4.4524,4.4468,4.4401,4.4237,4.4147,4.4147,4.4036,4.3923,4.3795,4.3795,4.373,4.3615,4.3495,4.3303,4.3051,4.2958,4.2976,4.2995,4.2884,4.2732,4.2537,4.2537,4.2239,4.1821,4.1705,4.1658,4.1564,4.0906,4.0646,4.0457,4.0286,4.0196,4.0,3.965,3.9637,3.9689,3.9689,3.9781,3.9867,3.9826,3.9867,3.9889,3.9889,3.9889,3.9933,4.0057,3.9973,4.0015,4.0215,4.0252,4.0323,4.0372,4.0545,4.0675,4.08,4.07,4.0642,4.0648,4.0745,4.0694,4.0485,4.0675,4.072,4.0635,4.05,4.0579,4.0745,4.0662,4.0707,4.08,4.0812,4.1257,4.1978,4.2809,4.3169,4.3286,4.3192,4.3415,4.3637,4.3297,4.2825,4.2357,4.2197,4.1631,4.1261,4.1963,4.2147,4.232,0.0,0.0,0.0,4.2974,4.3091,4.3216,4.3276,4.3966,4.4442,4.4277,4.486,4.5256,4.5076,4.5244,4.5322,4.517,4.5148,4.5033,4.4738,4.4712,4.4659,4.4578,4.4578,4.4632,4.4719,4.4738,4.4693,4.4621,4.4613,4.4532,4.4335,4.4207,4.4147,4.4147,4.3974,4.3763,4.3545,4.3529,4.3391,4.3196,4.3087,4.2976,4.2864,4.2844,4.2577,4.2239,4.2239,4.2157,4.2074,4.2074,4.1778,4.1401,4.09,4.0913,4.0906,4.081,4.0646,4.0489,4.0473,4.0177,3.9848,3.9626,3.9602,3.9602,3.9602,3.9684,3.9693,3.9623,3.9735,3.9804,3.9804,3.9804,3.9848,3.9911,3.9911,3.9911,3.9933,4.0139,4.0233,4.0306,4.0574,4.0725,4.08,4.0848,4.0818,4.0776,4.0788,4.0788,4.0745,4.0662,4.0675,4.0776,4.0635,4.0607,4.0635,4.0732,4.0788,4.0812,4.0868,4.0917,4.0965,4.115,4.1785,4.2378,4.1554,4.2419,4.3398,4.1841,4.1869,4.2236,4.1468,4.1172,4.1113,4.1211,4.1241,4.1271,4.1358,0.0,4.1379,4.1354,0.0,4.2529,4.2524,0.0,0.0,4.2797,4.38,4.4405,4.3589,4.4542,4.5204,4.4948,4.4919,4.487,4.4712,4.4712,4.4745,4.4846,4.4846,4.4846,4.487,4.487,4.4751,4.443,4.4308,4.4102,4.3791,4.3664,4.3582,4.3582,4.3461,4.3373,4.3338,4.325,4.3232,4.3214,4.316,4.292,4.2476,4.2476,4.2008,4.1401,4.2198,4.2098,4.1561,4.1561,4.1328,4.0965,4.079,4.079,4.079,4.079,4.0733,4.0598,4.0356,3.9979,3.9777,3.9935,3.9731,3.9602,3.9602,3.9631,3.9613,3.9558,3.9583,3.9631,3.9631,3.9631,3.9661,3.9781,3.9731,3.9773,3.9889,4.0101,4.025,4.0375,4.0675,4.0834,4.0865,4.0888,4.0868,4.08,4.0837,4.0784,4.0688,4.0761,4.0694,4.0579,4.0588,4.053,4.0441,4.0526,4.0568,4.0582,4.0694,4.0718,4.0699,4.0819,4.1159,4.1463,4.1169,4.1587,4.2051,4.1306,4.1355,4.1576,4.1202,4.1104,4.1104,4.1104,4.1101,4.1097,4.1101,4.1094,4.1105,4.1105,0.0,0.0,0.0,0.0,0.0,0.0,4.3131,4.3788,4.3834,4.4264,4.4687,4.509,4.5061,4.4986,4.487,4.487,4.4802,4.461,4.4636,4.4584,4.4346,4.4318,4.426,4.4125,4.4053,4.3962,4.3836,4.3693,4.3612,4.3612,4.3495,4.3286,4.3069,4.3032,4.29,4.267,4.267,4.2552,4.2333,4.2333,4.2044,4.1657,4.2026,4.1753,4.1163,4.1163,4.1041,4.0888,4.0733,4.0746,4.0746,4.0778,4.0778,4.0646,4.0269,3.9937,3.9826,4.0,3.9777,3.9602,3.9602,3.9577,3.9546,3.9469,3.9444,3.9425,3.9425,3.9469,3.9527,3.9618,3.9607,3.9698,3.9867,4.0101,4.0283,4.0438,4.0732,4.0886,4.0907,4.0878,4.0858,4.0834,4.0828,4.0776,4.0681,4.0818,4.0718,4.0481,4.0588,4.045,4.0233,4.0312,4.0361,4.0412,4.0554,4.0615,4.0655,4.08,4.0878,4.0954,4.1066,4.1103,4.1092,4.1093,4.1091,4.1099,4.1097,4.1091,4.1108,4.1108,4.1108,4.1108,4.1108,4.1104,4.1097,4.1097,4.1104,0.0,0.0,0.0,4.1891,4.1521,0.0,4.2988,4.3269,4.3765,4.4422,4.5222,4.5192,4.5103,4.5057,4.4967,4.4777,4.443,4.4383,4.4242,4.3881,4.3881,4.3849,4.3754,4.3754,4.3721,4.3623,4.3542,4.3493,4.3493,4.3356,4.316,4.2862,4.2842,4.2649,4.2346,4.2145,4.2086,4.2044,4.1959,4.1727,4.1507,4.1507,4.1146,4.0728,4.0918,4.0965,4.0965,4.0607,4.0621,4.0621,4.07,4.07,4.0598,4.0251,4.0196,4.004,3.9656,3.9602,3.9602,3.9602,3.9546,3.9469,3.9418,3.9283,3.921,3.921,3.9328,3.9418,3.9418,3.9527,3.9656,3.9804,4.0061,4.0302,4.0511,4.07,4.0854,4.0907,4.0818,4.0839,4.0898,4.0754,4.0765,4.0898,4.0834,4.0757,4.0694,4.0694,4.0412,4.0023,4.0154,4.0296,4.0422,4.0549,4.0636,4.0718,4.0926,4.0999,0.0,0.0,4.1097,4.1094,4.1108,4.1093,4.1093,4.1108,4.1099,4.1108,4.1108,4.1108,4.1108,4.1108,4.1108,4.1108,4.1108,4.1108,4.1078,4.1025,4.1033,4.0721,3.976,4.1024,0.0,0.0,4.2874,4.4619,4.5223,4.5235,4.5192,4.5192,4.4895,4.4621,4.443,4.4221,4.4011,4.3818,4.3849,4.3754,4.344,4.3406,4.3266,4.292,4.292,4.292,4.292,4.2842,4.284,4.2783,4.2606,4.2503,4.2463,4.1813,4.1534,4.1472,4.1036,4.0689,4.0449,4.0449,4.0336,4.0221,4.0931,4.1209,4.1209,4.0534,4.0534,4.0549,4.0621,4.0621,4.0545,4.03,4.0195,4.0021,3.9656,3.967,3.9661,3.9476,3.9444,3.9373,3.9301,3.9229,3.921,3.921,3.9346,3.9391,3.9391,3.9546,3.9577,3.9533,3.9979,4.0213,4.025,4.0602,4.0812,4.0823,4.0807,4.0818,4.0839,4.0796,4.0773,4.0765,4.0846,4.0781,4.0629,4.0545,4.03,4.0002,4.0002,4.0062,4.0157,4.0336,4.0526,0.0,4.0826,4.0917,4.1007,4.1026,4.1057,4.1091,4.1097,4.111,4.1094,0.0,0.0,4.1108,4.1108,0.0,4.1108,4.1108,4.1097,4.1101,4.1099,4.1066,4.1025,4.0994,4.0933,4.0751,4.0369,4.0792,4.1228,0.0,4.2904,4.4287,4.5063,4.5026,4.491,4.4862,4.4511,4.4095,4.3767,4.3675,4.3508,4.3213,4.3249,4.3178,4.3087,4.3087,4.3014,4.2882,4.2882,4.2882,4.2882,4.2862,4.2842,4.2783,4.2427,4.2205,4.2086,4.1552,4.1265,4.1174,4.099,4.0849,4.0659,4.0659,4.0611,4.058,4.05,4.0451,4.0451,4.0489,4.0489,4.0519,4.0598,4.0607,4.0526,4.0334,4.0176,3.9982,3.9705,3.9693,3.9631,3.9451,3.9418,3.9346,3.921,3.9183,3.9156,3.9156,3.9275,3.9301,3.9275,3.9451,3.9502,3.942,3.9791,4.0062,4.0213,4.0515,4.0662,4.0688,4.0681,4.0687,4.068,4.0687,4.0718,4.0792,4.0856,4.0804,4.0655,4.05,4.0319,4.012,4.002,4.002,4.0081,0.0,4.0466,4.075,4.0804,4.0907,4.0993,4.1007,4.1045,4.1097,4.1097,4.1099,4.1091,4.1093,4.1093,0.0,4.1101,4.1094,0.0,4.1108,0.0,4.1228,4.1499,4.1267,4.1163,4.1738,4.1257,4.0834,4.1067,4.0828,4.0964,0.0,4.3,4.3969,4.4871,4.4825,4.4587,4.4261,4.405,4.3615,4.2869,4.2941,4.2865,4.2378,4.2378,4.24,4.24,4.24,4.24,4.24,4.24,4.24,4.24,4.2458,4.2436,4.2333,4.2044,4.1831,4.1666,4.1128,4.0849,4.0784,4.0611,4.0466,4.0434,4.0434,4.0434,4.0385,4.0254,4.0204,4.0204,4.0489,4.0489,4.0523,4.0573,4.0598,4.053,4.0334,4.012,3.9962,3.9807,3.9631,3.9495,3.9495,3.9418,3.9328,3.921,3.9129,3.9101,3.9101,3.9156,3.9183,3.9101,3.9275,3.9439,3.9476,3.9552,3.9842,4.0353,4.0389,4.0419,4.0496,4.0504,4.0496,4.0496,4.0492,4.0642,4.0886,4.0897,4.0867,4.0776,4.0574,4.0473,4.0389,4.0177,4.0139,4.0214,4.0211,4.0472,4.0807,4.0877,4.0936,4.1007,4.0988,4.1039,4.1111,4.1091,4.1094,4.1091,4.1103,4.1108,4.1092,4.1093,4.1103,0.0,0.0,0.0,4.1484,4.2305,4.1754,4.1578,4.3075,4.1931,4.099,4.1694,4.1123,4.1116,4.2545,4.3061,4.3662,4.4656,4.4553,4.4139,4.3497,4.3624,4.3173,4.1854,4.2132,4.2092,4.1418,4.1516,4.1525,4.1481,4.1481,4.1481,4.1481,4.1481,4.1481,4.1525,4.1648,4.1648,4.1525,4.1569,4.1498,4.1328,4.0689,4.04,4.0351,3.9901,3.9729,3.9677,3.9677,3.9677,3.9764,4.017,4.0351,4.0351,4.0489,4.0489,4.0523,4.0523,4.0539,4.0454,4.025,4.0194,4.0023,3.9628,3.9513,3.9414,3.921,3.9202,3.9156,3.9129,3.9101,3.9101,3.9101,3.9156,3.9183,3.9101,3.9275,3.9328,3.92,3.9476,3.9668,3.98,4.0193,4.0372,4.0285,4.0422,4.0422,4.0283,4.0386,4.045,4.0545,4.07,4.0781,4.0781,4.054,4.0434,4.0353,4.012,4.0139,4.0283,4.0332,4.0535,4.0823,4.0886,4.0917,4.0937,4.0936,4.0968,4.1032,4.1039,4.1061,4.1091,4.1094,4.1097,4.1097,4.1101,4.1093,4.1266,0.0,0.0,0.0,0.0,0.0,0.0,0.0,0.0,4.1663,4.184,4.2019,4.2488,4.3522,4.3326,4.3417,4.4317,4.361,4.3293,4.3782,4.3175,4.2619,4.2248,4.2216,4.1984,4.1499,4.1803,4.1846,4.1525,4.1481,4.1481,4.1481,4.1481,4.1543,4.1648,4.1692,4.1735,4.1796,4.1463,4.1237,4.1082,4.0549,4.0221,4.002,3.9884,3.9781,3.9677,3.9677,3.9677,3.9729,3.9713,3.9661,3.9609,4.0489,4.0489,4.0489,4.0489,4.0489,4.0441,4.0233,4.0101,3.9903,3.958,3.9439,3.9313,3.9156,3.9156,3.9129,3.9101,3.9101,3.9101,3.9101,3.9129,3.9129,3.9101,3.9202,3.9221,3.9101,3.9287,3.9427,3.9552,3.9863,4.0043,4.012,4.0101,4.012,4.0158,4.0139,4.025,4.0415,4.061,4.0725,4.0745,4.0511,4.0367,0.0,4.0138,4.0157,4.0281,4.0427,4.0596,4.0769,4.0834,4.0886,4.0907,4.0908,4.0954,4.0996,4.0999,4.1056,4.1175,4.1566,4.1667,4.1752,4.2142,4.2236,4.2362,4.2851,4.2968,4.3202,0.0,4.3841,4.3545,0.0,0.0,4.2478,4.2468,4.2868,4.3347,4.3743,4.363,4.3639,4.4106,4.3557,4.3353,4.3918,4.2737,4.1895,4.1743,4.1648,4.1445,4.0972,4.1202,4.1248,4.0972,4.099,4.099,4.099,4.1019,4.1065,4.11,4.1192,4.1283,4.1265,4.1071,4.0884,4.0772,4.0517,4.0288,4.0087,4.0087,3.9986,3.9867,3.9867,3.9833,3.9798,3.9694,3.959,3.9484,4.0681,4.0585,4.0508,4.0489,4.0473,4.0372,4.0177,3.9943,3.975,3.9599,3.935,3.9183,3.9183,3.9183,3.9156,3.9101,3.9101,3.9101,3.9101,3.9101,3.9101,3.9101,3.9101,3.9101,3.9101,3.9101,3.9227,3.9451,3.95,3.9641,3.992,3.9709,3.9754,4.0001,3.9851,3.9963,4.0345,4.0501,4.0577,4.0577,4.0367,4.0229,4.0157,4.0119,4.0119,4.0174,4.0466,4.0615,4.0713,4.0788,4.0834,4.0916,4.1043,4.1111,4.1182,4.1288,4.137,4.1574,4.2344,4.2553,4.2744,4.3509,4.369,4.3737,4.3837,4.3863,4.41,4.4928,4.4423,4.4236,4.551,0.0,4.3361,4.3346,4.3675,4.3907,4.3771,4.3933,4.4079,4.4005,4.3814,0.0,4.3865,4.249,4.1455,4.107,4.1122,4.0896,4.0337,4.0387,4.0436,4.0288,4.0305,4.0305,4.0305,4.0436,4.0436,4.0355,4.06,4.0648,4.0583,4.0697,4.0631,4.0534,4.0534,4.0436,4.0305,4.0305,4.0238,4.0138,4.0138,4.0037,3.9952,3.9952,3.9833,3.9729,4.172,4.0995,4.0515,4.0508,4.0321,4.0101,3.9901,3.9819,3.9731,3.9532,3.9272,3.9129,3.9129,3.9129,3.9129,3.9101,3.9101,3.9101,3.9101,3.9101,3.9101,3.9101,3.9101,3.9101,3.9101,3.9101,3.9137,3.9245,3.9421,3.9513,3.9508,3.9566,3.9585,3.9533,3.9594,3.9766,4.0003,3.9984,3.9986,4.0024,3.9759,3.9775,3.9922,3.9724,3.9728,3.9924,4.0247,4.0496,4.0713,4.0776,4.0804,4.0953,4.1731,4.1985,4.2131,4.2847,4.3058,4.3128,4.3323,4.3383,4.3446,4.3658,4.3704,4.3879,4.4605,4.4764,4.5014,4.5877,4.5852,4.5492,4.5001,0.0,0.0,4.4129,4.4441,4.4676,4.4524,4.4224,4.3986,4.4005,4.3385,4.3228,4.3846,4.3087,4.2368,4.1902,4.1955,4.1516,4.0337,4.0995,4.1041,0.0,4.0387,4.0387,0.0,0.0,4.0485,4.0485,4.0648,4.0745,4.0823,4.0823,4.0793,4.0648,4.0648,4.0551,4.0305,4.0436,4.0387,4.0238,4.0238,4.0188,4.007,4.007,4.0037,4.002,4.2497,4.2059,4.1771,4.1838,4.1608,4.1336,4.1127,4.0991,4.0497,3.9418,3.9165,3.9101,3.9101,3.9101,3.9101,3.9101,3.9101,3.9101,3.9101,3.9101,3.9101,3.9101,3.9101,3.9101,3.9101,3.9101,3.9129,3.9156,3.9253,3.9331,0.0,3.9383,3.9408,3.9489,3.957,3.9656,3.9754,3.9819,3.9882,3.9884,3.9599,3.9571,3.9679,3.9599,3.9604,3.9807,4.071,4.1111,4.1239,4.1377,4.1447,4.1637,4.2501,4.2787,4.2906,4.3335,4.3481,4.3605,4.4097,4.4254,4.439,4.4874,4.5002,4.5113,4.5523,4.5643,4.5761,4.6114,4.6138,4.594,4.5425,4.5267,0.0,0.0,0.0,4.5036,4.4751,4.4439,4.4188,4.4036,4.3656,4.3539,4.391,4.3612,4.3032,4.2167,4.1674,4.1146,4.0436,4.0806,4.0853,0.0,0.0,0.0,4.0502,0.0,4.068,4.06,4.0745,4.084,4.0888,4.0888,4.0871,4.0793,4.0793,4.0697,4.0502,4.0485,4.0271,3.9833,4.0188,3.985,3.9172,3.9523,3.9679,3.9782,4.3269,4.3078,4.2926,4.2998,4.2756,4.2468,4.2248,4.2001,4.1231,3.9593,3.938,3.9305,3.912,3.9101,3.9101,3.9101,3.9101,3.9101,3.9101,3.9101,3.9101,3.9101,3.9101,3.9101,3.9101,3.9101,3.9101,3.9101,3.9073,0.0,0.0,3.9165,3.9237,3.9502,3.9502,3.9489,3.95,3.9683,3.975,3.9728,3.9543,3.9483,3.9477,3.9545,3.9658,3.9981,4.1189,4.1737,4.1944,4.2343,4.2434,4.2504,4.3318,4.3633,4.3715,4.3904,4.3995,4.4171,4.4898,4.5106,4.5324,4.602,4.6196,4.6201,4.6206,4.6231,4.625,4.6136,4.6118,4.6056,4.5953,4.5917,0.0,0.0,0.0,0.0,4.4745,4.4541,4.4354,4.4116,4.4036,4.4005,4.4005,4.3846,4.3318,4.2271,4.1499,4.0931,4.0583,0.0,0.0,0.0,0.0,4.0631,4.0697,0.0,4.084,4.0697,4.0871,4.0965,4.0965,4.0965,4.0965,4.0965,4.0935,4.084,4.0745,4.0485,4.0054,3.961,3.9952,3.947,3.8574,3.9028,3.9242,3.9385,4.4189,4.3536,4.2944,4.2776,4.2509,4.2238,4.1976,4.1764,4.1303,4.0383,4.0271,3.9974,3.9194,3.9101,3.9101,3.9101,3.9101,3.9101,3.9101,3.9101,3.9101,3.9101,3.9101,3.9101,3.9101,3.9101,3.9101,3.9101,3.9036,3.9045,0.0,3.9064,3.9064,3.9156,3.9156,3.9156,0.0,3.9219,3.929,3.9272,3.938,3.9399,3.9399,3.9425,3.9866,4.0562,4.1138,4.1857,4.2679,4.3649,4.3646,4.3337,4.4208,4.4524,4.4723,4.5514,4.577,4.5811,4.5939,4.5985,4.6013,4.6169,4.6203,4.619,4.6201,4.6199,4.6205,4.6187,4.6142,4.6075,4.6007,4.5953,4.5802,0.0,0.0,0.0,0.0,4.4468,4.4314,4.4285,4.4097,4.4005,4.4005,4.3542,4.3069,4.2585,4.2426,4.1828,4.0728,0.0,0.0,4.0697,4.0793,4.084,4.0697,4.084,4.084,4.0697,4.1041,4.1163,4.1163,4.1163,4.1163,4.1163,4.0965,4.0871,4.0823,4.032,4.007,4.002,3.9644,3.9312,3.9135,3.9206,3.9206,3.9259,4.5015,4.4575,4.4204,4.4187,4.3791,4.348,4.3407,4.321,4.2742,4.1943,4.1423,4.0791,3.9974,3.9881,3.9658,3.9138,3.9101,3.9101,3.9101,3.9101,3.9101,3.9101,3.9101,3.9101,3.9101,3.9101,3.9101,3.9101,3.9036,3.9007,3.9036,0.0,0.0,0.0,0.0,3.9129,3.9156,3.9156,3.9202,3.9328,3.9301,3.9626,4.0101,4.0154,4.0686,4.1488,4.237,4.2886,4.3349,4.444,4.4378,4.3983,4.487,4.5156,4.5283,4.579,4.5937,4.5941,4.6016,4.6037,4.6056,4.6075,4.6102,4.6146,4.6142,4.6177,4.6202,4.6191,4.6186,4.6138,4.6075,4.6027,4.5922,4.561,0.0,0.0,0.0,4.4613,4.4496,4.443,4.4266,4.4177,4.4177,4.3873,4.3422,4.2774,4.2404,4.1803,4.0948,0.0,0.0,4.084,0.0,4.0793,4.084,4.0871,4.0918,4.0995,4.1117,4.1209,4.1209,4.1209,4.1117,4.1012,4.0918,4.0776,4.0534,4.0288,3.9799,3.9189,3.9312,3.8865,3.8141,3.8535,3.8701,3.8739,4.5241,4.5068,4.4905,4.4915,4.4572,4.4289,4.425,4.4091,4.3801,4.3225,4.2649,4.1906,4.0866,4.0736,4.0401,3.9547,3.9472,3.9361,3.912,3.9101,3.9101,3.9101,3.9101,3.9101,3.9101,3.9101,3.9101,3.9101,3.9036,3.9007,0.0,0.0,0.0,0.0,3.9101,3.9129,3.9183,3.9129,3.9378,3.9746,3.9682,4.0195,4.1023,4.1076,4.1582,4.2423,4.3283,4.3763,4.409,4.484,4.4762,4.4499,4.5262,4.549,4.556,4.5819,4.5899,4.5917,4.5991,4.5994,4.5997,4.5997,4.6047,4.6075,4.6093,4.6144,4.6173,4.6191,4.6191,4.6189,4.6138,4.6102,4.6017,4.5728,0.0,0.0,0.0,4.4802,4.4659,4.4551,4.4458,4.4344,4.4314,4.4067,4.366,4.2977,4.244,4.1821,4.1117,0.0,0.0,0.0,0.0,0.0,4.0888,4.0965,4.1041,4.1209,4.1346,4.1391,4.1373,4.1346,4.118,4.0888,4.0888,4.0745,4.0453,4.0171,3.9558,3.8832,3.9044,3.8511,3.7711,3.8042,3.8254,3.8254,4.4669,4.4669,4.4599,4.4279,4.4279,4.4221,4.3961,4.3942,4.4005,4.3986,4.3986,4.3355,4.1757,4.159,4.1256,4.0438,4.0383,4.0011,3.9157,3.9101,3.9101,3.9101,3.9101,3.9101,3.9101,3.9101,3.9101,3.9101,3.9036,0.0,3.9101,0.0,3.9101,3.9101,3.9101,3.9101,3.9101,3.9183,3.9722,4.0587,4.0648,4.1215,4.1972,4.1972,4.2524,4.3329,4.3534,4.4099,4.48,4.48,4.48,4.4877,4.5343,4.549,4.556,4.5819,4.5899,4.5917,4.5991,4.5994,4.5997,4.5997,4.5997,4.6017,4.6084,4.6111,4.6128,4.6187,4.6197,4.6196,4.6196,4.6146,4.6056,4.5925,0.0,0.0,0.0,4.4915,4.4712,4.4712,4.4578,4.4458,4.4314,4.4017,4.3627,4.3232,4.2711,4.205,4.1237,0.0,0.0,4.0871,4.0888,0.0,4.0888,4.1088,4.1209,4.1209,4.1657,4.1874,4.1874,4.1692,4.1335,4.0888,4.0888,4.0888,4.0823,3.9969,3.961,3.9506,3.8694,3.8391,3.8335,3.8001,3.7886,3.7886,4.4985,4.4751,4.4493,4.4289,4.4109,4.3929,4.3851,4.3883,4.3929,4.3929,4.3974,4.3801,4.328,4.2742,4.2062,4.1204,4.1189,4.0818,3.9848,3.9822,3.961,3.9054,3.9036,3.9045,3.9101,3.9101,3.9073,3.9036,0.0,0.0,0.0,3.9036,3.9064,3.9101,3.9101,3.9463,4.0058,4.0049,4.057,4.1427,4.14,4.1959,4.2819,4.2819,4.3352,4.412,4.4191,4.4388,4.4613,4.4613,4.4613,4.4648,4.4943,4.5142,4.5343,4.556,4.5771,4.5899,4.5932,4.5968,4.5994,4.5994,4.6005,4.6007,4.6027,4.6066,4.6111,4.6191,4.6202,4.6196,4.6196,4.6176,4.6119,4.5988,4.5731,0.0,4.5285,4.5071,4.487,4.4846,4.4738,4.4632,4.4578,4.4102,4.3758,4.3627,4.3196,4.2595,0.0,0.0,0.0,0.0,4.1117,0.0,4.1117,4.1163,4.1346,4.1657,4.1675,4.1692,4.1675,4.129,4.1059,4.0888,4.0888,4.0549,3.9969,3.9714,3.9259,3.875,3.8504,3.8262,3.8075,3.7943,3.777,3.7535,4.458,4.4383,4.4192,4.4042,4.3878,4.3771,4.3719,4.3818,4.3883,4.3915,4.3929,4.3974,4.4005,4.3559,4.2897,4.2069,4.2025,4.1672,4.0718,4.0693,4.05,3.9999,3.9684,3.9546,3.9584,3.9268,0.0,3.9036,3.9007,3.8997,3.895,3.8997,3.9202,3.9509,3.9584,4.0077,4.0905,4.0876,4.1398,4.2211,4.2153,4.2743,4.3652,4.3652,4.4008,4.4515,4.4515,4.4515,4.4515,4.4515,4.4515,4.4524,4.4655,4.4843,4.5118,4.5418,4.5692,4.5906,4.5899,4.5956,4.6003,4.5994,4.6005,4.5997,4.5997,4.6059,4.6105,4.6145,4.6184,4.6197,4.6195,4.6203,4.6176,4.6083,4.5875,4.5636,4.543,4.5225,4.5045,4.4943,4.4846,4.4764,4.4693,4.4221,4.3818,4.3675,4.3178,4.2652,0.0,0.0,4.1445,4.1346,4.1255,4.1209,4.1209,4.1373,4.1525,4.1657,4.1587,4.1604,4.1604,4.118,4.0965,4.0888,4.0888,4.0517,3.9833,3.9662,3.9206,3.86,3.8319,3.8075,3.7886,3.7669,3.7433,3.7254,4.3716,4.3734,4.3753,4.3532,4.3652,4.3719,4.3615,4.3719,4.3804,4.3865,4.3883,4.3929,4.3974,4.4005,4.3689,4.2946,4.2872,4.2537,4.1739,4.1653,4.1616,4.159,4.0837,4.0447,4.0447,3.9649,3.924,3.924,3.9202,3.9135,3.9047,3.9116,3.9552,4.0274,4.0399,4.0892,4.1683,4.1683,4.2188,4.2973,4.2973,4.3527,4.4383,4.4383,4.444,4.4487,4.4515,4.4515,4.4515,4.4515,4.4515,4.4515,4.4515,4.4648,4.4896,4.5343,4.5677,4.5874,4.5893,4.5949,4.5983,4.5986,4.5997,4.5997,4.5997,4.6052,4.6103,4.6108,4.6152,4.6198,4.6201,4.6201,4.6203,4.6203,4.6046,4.584,4.5636,4.5358,4.5163,4.5014,4.4943,0.0,4.4738,4.4289,4.3862,4.3508,4.2828,4.2436,0.0,0.0,4.1924,4.1648,4.1363,4.1255,4.1255,4.1657,4.1613,4.1192,4.1453,4.1604,4.1542,4.13,4.1088,4.0888,4.0871,4.0631,4.0238,3.9731,3.9312,3.886,3.8173,3.7886,3.777,3.7225,3.7015,3.6938,4.403,4.3974,4.3878,4.3615,4.3566,4.3566,4.3532,4.3582,4.3667,4.3649,4.3753,4.3851,4.3929,4.3929,4.3886,4.3745,4.3726,4.3311,4.2421,4.2106,4.183,4.1526,4.1051,4.0795,4.0859,4.0657,4.0546,4.0546,4.0787,4.0757,4.0501,4.0533,4.0625,4.0809,4.0841,4.1477,4.2519,4.2519,4.2983,4.3739,4.3739,4.393,4.4244,4.4314,4.4373,4.4411,4.4487,4.4515,4.4515,4.4515,4.4515,4.4515,4.4515,4.4648,4.4849,4.5182,4.5418,4.5626,4.5827,4.5912,4.5949,4.6003,4.6005,4.5997,4.5997,4.6044,4.6092,4.6105,4.6141,4.6207,4.6204,4.621,4.6203,4.6203,4.6083,4.5883,4.5636,4.5413,4.5204,4.5038,4.4943,4.487,4.4865,4.4327,4.4065,0.0,0.0,4.2995,4.2975,4.2537,4.2151,4.1849,4.1631,4.1587,4.1744,4.148,4.13,4.1192,4.1453,4.1498,4.13,4.1088,4.0965,4.0871,4.06,4.0171,3.9731,3.9312,3.8772,3.8173,3.8001,3.761,3.7181,3.706,3.6816,3.6616,4.386,4.3828,4.3749,4.3582,4.3548,4.3566,4.3566,4.3548,4.36,4.3667,4.3719,4.3753,4.3851,4.3851,4.3883,4.3915,4.3795,4.3527,4.3004,4.2626,4.232,4.209,4.1517,4.1247,4.1282,4.0917,4.0719,4.0684,4.1056,4.1089,4.087,4.0921,4.1156,4.1504,4.1537,4.2128,4.3098,4.3274,4.3596,4.4005,4.4005,4.4085,4.4214,4.4244,4.4314,4.4411,4.444,4.4468,4.4515,4.4515,4.4515,4.4515,4.4515,4.4587,4.4688,4.4938,4.5245,4.556,4.5833,4.5887,4.5925,4.598,4.5994,4.5997,4.5997,4.6027,4.6052,4.6091,4.6156,4.6209,4.6191,4.6206,4.6195,4.6195,4.6142,4.6008,4.5815,4.558,4.5361,4.5161,4.4995,4.4895,4.4895,4.4495,4.4221,4.4269,4.3612,0.0,4.2995,4.2573,4.2251,4.2103,4.1849,4.1762,4.1762,4.1318,4.118,4.1408,4.1318,4.118,4.0943,4.071,4.0517,4.0286,3.9952,3.9523,3.9049,3.8717,3.823,3.7653,3.7551,3.7285,3.6999,3.6816,3.6693,3.6492,4.3497,4.3566,4.3548,4.3532,4.3566,4.3582,4.3582,4.3532,4.3566,4.3719,4.3667,4.3634,4.3771,4.3771,4.3753,4.3719,4.3424,4.3283,4.3371,4.2959,4.2734,4.281,4.2045,4.1665,4.1665,4.0997,4.0598,4.0542,4.096,4.1065,4.0907,4.0995,4.1429,4.212,4.2172,4.266,4.344,4.3777,4.3923,4.4005,4.4005,4.4055,4.4184,4.4184,4.4304,4.4401,4.4383,4.444,4.4515,4.4515,4.4515,4.4515,4.4515,4.4515,4.4551,4.4745,4.508,4.5472,4.5771,4.5874,4.5932,4.5991,4.6005,4.5997,4.5997,4.5997,4.6027,4.6068,4.6137,4.6186,4.6209,4.62,4.6201,4.6211,4.6203,4.6154,4.6017,0.0,4.5519,4.5304,4.5071,4.4895,4.4895,4.4659,4.4393,4.4095,4.356,4.3105,4.2788,4.2494,4.2351,4.2287,4.2019,4.1719,4.1515,4.1152,4.1152,4.1471,4.1105,4.0789,4.0546,4.037,4.0003,3.9489,3.9242,3.8865,3.8407,3.81,3.777,3.7314,3.7105,3.6954,3.6877,3.6616,3.6492,3.6429,4.3497,4.3532,4.3513,4.3479,4.3532,4.3532,4.3532,4.3532,4.3532,4.3532,4.3532,4.3566,4.3615,4.3634,4.3529,4.3212,4.2867,4.2847,4.3303,4.2657,4.2422,4.281,4.2257,4.192,4.192,4.1813,4.1718,4.1653,4.2124,4.2145,4.1823,4.1823,4.1976,4.2181,4.2221,4.2645,4.3406,4.3474,4.3693,4.4005,4.4005,4.4005,4.4036,4.4153,4.4244,4.4314,4.4383,4.444,4.4515,4.4515,4.4515,4.4515,4.4515,4.4515,4.4551,4.4745,4.4849,4.5033,4.5526,4.5814,4.5991,4.6005,4.5997,4.5997,4.5997,4.5997,4.6007,4.5998,4.606,4.6137,4.6186,4.6191,4.6219,4.6288,4.624,4.6157,4.6027,0.0,4.5519,4.5304,4.5071,4.4895,4.4895,4.4659,4.4487,4.444,4.3873,4.3426,4.3123,4.2788,4.2534,4.2328,4.1866,4.1426,4.1012,4.1335,4.1335,4.1012,4.1088,4.0884,4.0337,4.0288,3.9918,3.9259,3.8794,3.8407,3.8157,3.7695,3.7314,3.706,3.7015,3.6816,3.6554,3.6492,3.6414,3.6274,4.3497,4.3497,4.3497,4.3497,4.3497,4.3513,4.3548,4.3339,4.3178,4.3232,4.2958,4.2808,4.2828,4.2846,4.279,4.2657,4.2302,4.218,4.2422,4.1948,4.1796,4.2032,4.1735,4.1578,4.1578,4.1578,4.1534,4.1507,4.1973,4.2139,4.1966,4.199,4.2015,4.2115,4.2157,4.24,4.2754,4.3212,4.3508,4.3712,4.3923,4.4005,4.4005,4.4055,4.4195,4.4314,4.4344,4.443,4.4515,4.4515,4.4515,4.4515,4.4515,4.4515,4.4524,4.4621,4.4872,4.5245,4.5472,4.5737,4.5956,4.5941,4.5964,4.6005,4.5997,4.5997,4.5997,4.5997,4.6044,4.6118,4.6195,4.6208,4.6204,4.6245,4.622,4.617,4.6127,4.5883,4.565,4.5486,4.5222,4.5014,4.4895,4.4659,4.4515,4.4515,4.3955,4.3563,4.3426,4.2976,4.2595,4.2374,4.1849,4.1426,4.1088,4.1198,4.1105,4.0888,4.0995,4.0758,4.0305,4.0238,3.9679,3.8794,3.8367,3.7927,3.7508,3.7074,3.6846,3.6754,3.6754,3.6631,3.6492,3.6352,3.6274,3.6211,4.3497,4.3497,4.3497,4.3497,4.341,4.3375,4.3444,4.3014,4.275,4.279,4.244,4.2198,4.2239,4.2257,4.2198,4.2074,4.1864,4.1666,4.1552,4.13,4.118,4.1363,4.1226,4.1163,4.1117,4.118,4.118,4.1117,4.1507,4.1727,4.1744,4.1778,4.1821,4.1881,4.2008,4.2133,4.2239,4.2885,4.3212,4.344,4.3744,4.3923,4.4005,4.4005,4.4097,4.4285,4.4285,4.4401,4.4515,4.4515,4.4515,4.4515,4.4515,4.4515,4.4515,4.4515,4.4891,4.5361,4.549,4.5677,4.5847,4.5893,4.5949,4.6003,4.6005,4.5997,4.5997,4.5997,4.6046,4.6098,4.6158,4.6182,4.619,4.6199,0.0,4.6203,4.6209,4.5978,4.5783,4.5665,4.5381,4.5132,4.4991,4.4667,4.4515,4.4515,4.3986,4.3664,4.3579,4.3142,4.2732,4.2338,4.1788,4.1408,4.1117,4.0965,4.0888,4.0888,4.0888,4.068,4.0238,4.0138,3.9454,3.8351,3.8042,3.7492,3.6877,3.6616,3.6492,3.6492,3.6429,3.6414,3.6414,3.6211,3.6133,3.607,4.3497,4.3497,4.3497,4.3497,4.3178,4.2957,4.2957,4.2537,4.2239,4.2239,4.2239,4.2257,4.2378,4.2396,4.2216,4.1778,4.1692,4.1552,4.1186,4.1029,4.1012,4.1209,4.1169,4.1047,4.0918,4.1029,4.1047,4.0918,4.1076,4.114,4.1186,4.1226,4.1346,4.1453,4.1587,4.1874,4.2198,4.2279,4.2734,4.3406,4.344,4.366,4.4005,4.4005,4.4097,4.4285,4.4285,4.4401,4.4515,4.4515,4.4515,4.4515,4.4515,4.4515,4.4515,4.4515,4.4655,4.4966,4.5454,4.5613,4.5677,4.5848,4.5949,4.5991,4.6003,4.6005,4.5997,4.5997,4.6007,4.6027,4.6091,4.6108,4.6127,4.619,0.0,0.0,4.6203,4.6017,4.5871,4.5796,4.5432,4.5184,4.5192,4.4789,4.4515,4.4515,4.4158,4.386,4.3612,4.3545,4.3087,4.2056,4.149,4.1117,4.0918,4.0935,4.0888,4.0888,4.0888,4.0631,4.0121,4.0121,3.9312,3.7927,3.7943,3.7358,3.6554,3.6492,3.6492,3.6492,3.6274,3.6211,3.6211,3.61,3.5894,3.5752,4.3497,4.3304,4.3123,4.3123,4.275,4.2458,4.2458,4.2074,4.1778,4.1778,4.1534,4.1418,4.1463,4.1525,4.1542,4.1318,4.1391,4.1346,4.118,4.1134,4.1041,4.1012,4.0982,4.0935,4.0888,4.0935,4.0935,4.0888,4.0935,4.1,4.0982,4.1134,4.1209,4.1272,4.1498,4.1675,4.1831,4.2092,4.2501,4.3069,4.3283,4.3627,4.3955,4.3726,4.3923,4.4285,4.4017,4.417,4.4515,4.4515,4.4515,4.4515,4.4515,4.4515,4.4515,4.4515,4.456,4.4681,4.5011,4.5362,4.5629,4.5699,4.5808,4.5912,4.5983,4.5972,4.5949,4.5986,4.5997,4.6018,4.6084,4.6104,4.6126,4.619,0.0,4.6203,4.6209,4.6065,4.5914,4.5809,4.5522,4.5283,4.5213,4.4789,4.4515,4.4515,4.4188,4.3974,4.386,4.3266,4.2483,4.1534,4.1209,4.0965,4.0888,4.0888,4.0888,4.0888,4.0888,4.0728,4.0485,4.0387,3.961,3.8254,3.8181,3.7504,3.6492,3.6492,3.6414,3.6274,3.6211,3.6148,3.6022,3.5894,3.5752,3.5688,4.3124,4.2864,4.2673,4.2673,4.2279,4.199,4.199,4.1622,4.1328,4.1328,4.1088,4.0935,4.0935,4.1076,4.1123,4.1123,4.1226,4.1255,4.1209,4.1209,4.1117,4.1012,4.0995,4.0995,4.0995,4.0995,4.0965,4.0935,4.0935,4.0935,4.0871,4.1134,4.1209,4.1209,4.1498,4.1604,4.1604,4.1899,4.2239,4.2657,4.3069,4.3474,4.3841,4.3612,4.3795,4.4177,4.3809,4.3968,4.4364,4.4364,4.444,4.4515,4.4515,4.4515,4.4515,4.4515,4.4515,4.4524,4.4681,4.5055,4.5473,4.5574,4.5638,4.5718,4.5898,4.5925,4.5919,4.596,4.5986,4.6008,4.6052,4.6084,4.6119,4.6152,4.6183,4.6189,4.6203,4.6111,4.6017,4.5879,4.5623,4.5419,4.5279,4.4796,4.4515,4.4515,4.4188,4.4005,4.3974,4.3105,4.2284,4.1561,4.1209,4.0965,4.084,4.0888,4.0888,4.0888,4.0662,4.05,4.032,4.0037,3.9209,3.8124,3.8067,3.7385,3.6414,3.6414,3.6289,3.6148,3.607,3.6022,3.5894,3.5703,3.5574,3.5509,4.2279,4.2216,4.2198,4.2198,4.1821,4.149,4.149,4.1163,4.0888,4.0888,4.0888,4.0935,4.1093,4.1152,4.1209,4.1209,4.1318,4.1363,4.1209,4.1192,4.1209,4.1209,4.1209,4.1209,4.1209,4.1209,4.118,4.1093,4.1093,4.1047,4.0935,4.1134,4.1209,4.1209,4.1498,4.1604,4.1604,4.1604,4.1831,4.2239,4.2657,4.3087,4.3505,4.3734,4.3883,4.3974,4.3697,4.3809,4.4109,4.4091,4.4277,4.4487,4.4515,4.4515,4.4515,4.4515,4.4515,4.4515,4.4515,4.4783,4.5182,4.5509,4.549,4.547,4.5737,4.5847,4.5893,4.5893,4.596,4.5997,4.5997,4.6059,4.6101,4.6104,4.6165,4.6192,4.6203,4.6196,4.6146,4.6017,4.575,4.5558,4.54,4.4876,4.4515,4.4515,4.4188,4.3974,4.3897,4.3195,4.2639,4.2306,4.1604,4.1041,4.0697,4.084,4.0888,4.0888,4.017,3.9732,3.9542,3.8832,3.8124,3.7417,3.7417,3.6921,3.6196,3.6196,3.6148,3.5973,3.5752,3.5688,3.5688,3.5554,3.5359,3.5213,4.2257,4.1948,4.1692,4.1692,4.1373,4.1088,4.1088,4.0965,4.0888,4.0888,4.0888,4.0935,4.0935,4.1076,4.1123,4.1123,4.129,4.1426,4.1453,4.1498,4.1453,4.1363,4.1255,4.1209,4.1209,4.1209,4.1209,4.118,4.118,4.1134,4.1117,4.1272,4.1318,4.1363,4.1515,4.1604,4.1604,4.1604,4.1831,4.2198,4.232,4.2752,4.3267,4.2995,4.3249,4.3679,4.332,4.3458,4.3841,4.403,4.4048,4.3986,4.417,4.4229,4.4277,4.444,4.4515,4.4515,4.4515,4.4667,4.4881,4.5182,4.5362,4.553,4.5696,4.5746,4.5791,4.588,4.596,4.5997,4.5997,4.6059,4.6101,4.6104,4.6165,4.6192,4.6203,4.6154,4.6111,4.6075,4.5822,4.5623,4.5491,4.4966,4.4602,4.4515,4.4188,4.3693,4.2959,4.2716,4.2203,4.1356,4.1117,4.0871,4.0697,4.0745,4.068,4.0631,3.9969,3.9594,3.9437,3.8778,3.7994,3.7191,3.7191,3.6738,3.6037,3.6037,3.5958,3.5752,3.5688,3.5638,3.5554,3.5359,3.5228,3.5148,4.1709,4.1463,4.1283,4.1283,4.1041,4.0888,4.0888,4.0888,4.0888,4.0888,4.0888,4.0888,4.0888,4.1047,4.1093,4.1093,4.1307,4.1426,4.1515,4.156,4.156,4.1471,4.1408,4.1346,4.1272,4.1318,4.1318,4.1272,4.1272,4.1255,4.1209,4.1318,4.138,4.1426,4.156,4.1604,4.1604,4.1604,4.1762,4.1984,4.2198,4.2577,4.2995,4.2826,4.3069,4.3442,4.3087,4.3213,4.3579,4.3744,4.3744,4.3712,4.3873,4.3999,4.414,4.4306,4.4411,4.4515,4.4551,4.4685,4.4821,4.5045,4.5218,4.5381,4.5584,4.5635,4.5668,4.5791,4.5899,4.5983,4.5997,4.6041,4.6108,4.6092,4.6152,4.6202,4.6195,4.6176,4.613,4.6075,4.5866,4.5669,4.5473,4.5011,4.461,4.4306,4.3936,4.3422,4.2792,4.2404,4.1846,4.1163,4.0918,4.0745,4.0648,4.0551,4.0534,4.0485,3.9594,3.9102,3.8995,3.8124,3.737,3.6707,3.6707,3.643,3.5894,3.5894,3.5767,3.5589,3.5589,3.5539,3.5359,3.5228,3.5096,3.4949,4.0965,4.0888,4.0888,4.0888,4.0888,4.0888,4.0888,4.0888,4.0888,4.0888,4.0888,4.0888,4.0888,4.1,4.1093,4.1093,4.1261,4.138,4.138,4.1515,4.1604,4.156,4.1604,4.1515,4.1426,4.1515,4.156,4.1426,4.1426,4.1363,4.1255,4.1363,4.1426,4.1426,4.156,4.1604,4.1604,4.1604,4.1604,4.1675,4.2216,4.2537,4.2711,4.305,4.3196,4.3232,4.2995,4.3069,4.3267,4.3267,4.3442,4.3679,4.3679,4.3841,4.403,4.4121,4.4306,4.4524,4.4667,4.4815,4.4943,4.508,4.5125,4.5173,4.5419,4.5495,4.5531,4.5668,4.5791,4.5932,4.5975,4.6066,4.6115,4.6099,4.6163,4.6209,4.6195,4.6195,4.6154,4.6017,4.5891,4.5713,4.5456,4.5007,4.4511,4.4036,4.349,4.3159,4.3051,4.2203,4.1622,4.1445,4.0948,4.0648,4.0485,4.0355,4.0355,4.0436,3.9119,3.8446,3.8463,3.7103,3.6352,3.6211,3.6133,3.5958,3.5688,3.5688,3.5589,3.5504,3.5504,3.5359,3.5213,3.5148,3.4964,3.4698,4.0935,4.0888,4.0888,4.0888,4.0888,4.0888,4.0888,4.0888,4.0888,4.0888,4.0888,4.0888,4.0888,4.0935,4.0935,4.0935,4.1134,4.1272,4.138,4.1515,4.1498,4.13,4.1498,4.1515,4.1426,4.1515,4.1604,4.156,4.156,4.156,4.1498,4.156,4.156,4.156,4.1604,4.1604,4.1604,4.1604,4.1675,4.1849,4.2002,4.2251,4.2631,4.2709,4.2824,4.2995,4.292,4.292,4.2995,4.2995,4.316,4.3408,4.3495,4.3529,4.3594,4.4229,4.4374,4.4412,4.4751,4.4943,4.5061,4.5103,4.517,4.5256,4.5319,4.5419,4.5513,4.5549,4.5731,4.5906,4.5932,4.6056,4.617,4.6104,4.62,4.6269,4.6214,4.6201,4.617,4.6093,4.6007,4.5866,4.5658,4.5061,4.4511,4.4036,4.349,4.3032,4.2639,4.2056,4.149,4.1041,4.084,4.0648,4.0485,4.0355,4.0238,4.0171,3.8941,3.8334,3.8278,3.6906,3.6211,3.6022,3.5894,3.5718,3.5554,3.5554,3.5504,3.5504,3.5359,3.5228,3.5148,3.4898,3.4765,3.4631,4.0888,4.0888,4.0888,4.0888,4.0888,4.0888,4.0888,4.0888,4.0888,4.0888,4.0888,4.0888,4.0888,4.0888,4.0935,4.1,4.1134,4.1255,4.138,4.1515,4.156,4.1408,4.1515,4.156,4.1515,4.156,4.1604,4.1604,4.1604,4.1604,4.1604,4.1604,4.1604,4.1604,4.1604,4.1604,4.1604,4.1675,4.1805,4.1917,4.2127,4.2391,4.2609,4.2709,4.2824,4.2882,4.2882,4.2938,4.2994,4.2994,4.3087,4.325,4.3339,4.3391,4.3511,4.3936,4.421,4.4439,4.4681,4.4924,4.5125,4.517,4.5254,4.5297,4.5297,4.536,4.5419,4.5495,4.5668,4.5833,4.5893,4.6027,4.6157,4.6153,4.6209,4.6249,4.6195,4.6167,4.6118,4.6056,4.5997,4.5796,4.5359,4.4909,4.4457,4.3974,4.3474,4.2923,4.2426,4.1888,4.1373,4.084,4.068,4.0534,4.0387,4.0288,4.0138,3.9986,3.8778,3.8133,3.8076,3.6723,3.6022,3.5831,3.5752,3.5653,3.5504,3.5424,3.5359,3.5359,3.5148,3.5016,3.4964,3.4765,3.4563,3.4414,4.0888,4.0888,4.0888,4.0888,4.0888,4.0888,4.0888,4.0888,4.0888,4.0888,4.0888,4.0888,4.0888,4.0888,4.0982,4.1076,4.118,4.1255,4.138,4.1515,4.1604,4.156,4.1604,4.1604,4.1604,4.1604,4.1604,4.1604,4.1604,4.1604,4.1604,4.1604,4.1604,4.1604,4.1604,4.1604,4.1675,4.1849,4.1977,4.2044,4.2432,4.2609,4.267,4.2862,4.2882,4.2882,4.2882,4.2994,4.3104,4.3104,4.3142,4.3196,4.3214,4.3375,4.3563,4.3664,4.403,4.4486,4.4591,4.4881,4.517,4.5275,4.5297,4.5297,4.5297,4.5297,4.5319,4.5438,4.5601,4.5742,4.5854,4.5998,4.6135,4.6189,4.6214,4.6204,4.6207,4.6136,4.6086,4.6017,4.5929,4.5615,4.496,4.4738,4.443,4.3929,4.3406,4.2848,4.2346,4.1785,4.122,4.0697,4.0534,4.0387,4.0305,4.0188,4.0037,3.9901,3.8707,3.8117,3.8076,3.66,3.5894,3.5864,3.5752,3.5589,3.5439,3.5294,3.5148,3.5148,3.4935,3.4875,3.4873,3.4908,3.4733,3.4445,4.0888,4.0888,4.0888,4.0888,4.0888,4.0888,4.0888,4.0888,4.0888,4.0888,4.0888,4.0888,4.0888,4.0888,4.0965,4.1163,4.1209,4.1255,4.138,4.1515,4.156,4.1426,4.156,4.1604,4.1604,4.1604,4.1604,4.1604,4.1604,4.1604,4.1604,4.1604,4.1604,4.1604,4.1604,4.1675,4.1831,4.1892,4.2127,4.2512,4.2552,4.2709,4.2844,4.2882,4.2882,4.2882,4.2882,4.2994,4.3104,4.3178,4.3214,4.3214,4.334,4.334,4.3339,4.3795,4.4121,4.4374,4.4676,4.5023,4.5275,4.5297,4.5297,4.5297,4.5297,4.5297,4.5317,4.5319,4.5531,4.5715,4.5727,4.5986,4.6196,4.6203,4.6255,4.6278,4.6207,4.6134,4.6084,4.6008,4.5899,4.5577,4.4957,4.4877,4.4599,4.3961,4.3406,4.2848,4.2346,4.1682,4.1111,4.0697,4.0453,4.0305,4.0305,4.0188,4.0037,3.9901,3.8995,3.8668,3.8606,3.6646,3.6054,3.6554,3.5846,3.5424,3.5228,3.5213,3.5082,3.4935,3.475,3.5019,3.5477,3.5766,3.5826,3.5683,4.0888,4.0888,4.0888,4.0888,4.0888,4.0888,4.0888,4.0888,4.0888,4.0888,4.0982,4.0982,4.0982,4.1059,4.1134,4.1318,4.1318,4.1363,4.1515,4.156,4.156,4.1515,4.156,4.1604,4.1604,4.1604,4.1604,4.1604,4.1604,4.1604,4.1604,4.1604,4.1604,4.1604,4.1719,4.1805,4.1917,4.2187,4.2391,4.2609,4.2709,4.2824,4.2882,4.2882,4.2938,4.2994,4.305,4.3142,4.3287,4.3305,4.3322,4.3393,4.3428,4.3428,4.341,4.3649,4.3923,4.421,4.4511,4.4695,4.4838,4.4981,4.5023,4.5023,4.5068,4.5194,4.5297,4.5297,4.5457,4.5616,4.5688,4.5906,4.6107,4.6203,4.626,4.6295,4.6269,4.6173,4.6053,4.5905,4.5805,4.558,4.5144,4.4919,4.4591,4.4091,4.3627,4.3159,4.2675,4.2021,4.1437,4.0943,4.0517,4.0238,4.0188,4.0037,3.9747,3.9226,3.843,3.8278,3.859,3.689,3.6243,3.6492,3.5653,3.5294,3.5228,3.503,3.5089,3.5263,3.5142,3.5398,3.5824,3.5971,3.587,3.5579]},{"header":{"parameterUnit":"m.s-1","parameterCategory":1,"la1":30.6,"la2":28.766,"lo1":-90.7593,"lo2":-88.6598,"dy":0.0162,"dx":0.0183,"nx":116,"ny":114,"refTime":"2024-03-14T06:00:00:Z","depth":0,"parameterNumber":3,"parameterNumberName":"V-component_of_WINDS"},"data":[0.0,0.0,0.0,0.0,0.0,0.0,0.0,0.0,0.0,0.0,0.0,0.0,0.0,0.0,0.0,0.0,0.0,0.0,0.0,0.0,0.0,0.0,0.0,0.0,0.0,0.0,0.0,0.0,0.0,0.0,0.0,0.0,0.0,0.0,0.0,0.0,0.0,0.0,0.0,0.0,0.0,0.0,0.0,0.0,0.0,0.0,0.0,0.0,0.0,0.0,0.0,0.0,0.0,0.0,0.0,0.0,0.0,0.0,0.0,0.0,0.0,0.0,0.0,0.0,0.0,0.0,0.0,0.0,0.0,0.0,0.0,0.0,0.0,0.0,0.0,0.0,0.0,0.0,0.0,0.0,0.0,0.0,0.0,0.0,0.0,0.0,0.0,0.0,0.0,0.0,0.0,0.0,0.0,0.0,0.0,0.0,0.0,0.0,0.0,0.0,0.0,0.0,0.0,0.0,0.0,0.0,0.0,0.0,0.0,0.0,0.0,0.0,0.0,0.0,0.0,0.0,0.0,0.0,0.0,0.0,0.0,0.0,0.0,0.0,0.0,0.0,0.0,0.0,0.0,0.0,0.0,0.0,0.0,0.0,0.0,0.0,0.0,0.0,0.0,0.0,0.0,0.0,0.0,0.0,0.0,0.0,0.0,0.0,0.0,0.0,0.0,0.0,0.0,0.0,0.0,0.0,0.0,0.0,0.0,0.0,0.0,0.0,0.0,0.0,0.0,0.0,0.0,0.0,0.0,0.0,0.0,0.0,0.0,0.0,0.0,0.0,0.0,0.0,0.0,0.0,0.0,0.0,0.0,0.0,0.0,0.0,0.0,0.0,0.0,0.0,0.0,0.0,0.0,0.0,0.0,0.0,0.0,0.0,0.0,0.0,0.0,0.0,0.0,0.0,0.0,0.0,0.0,0.0,0.0,0.0,0.0,0.0,0.0,0.0,0.0,0.0,0.0,0.0,0.0,0.0,0.0,0.0,0.0,0.0,0.0,0.0,0.0,0.0,0.0,0.0,0.0,0.0,0.0,0.0,0.0,0.0,0.0,0.0,0.0,0.0,0.0,0.0,0.0,0.0,0.0,0.0,0.0,0.0,0.0,0.0,0.0,0.0,0.0,0.0,0.0,0.0,0.0,0.0,0.0,0.0,0.0,0.0,0.0,0.0,0.0,0.0,0.0,0.0,0.0,0.0,0.0,0.0,0.0,0.0,0.0,0.0,0.0,0.0,0.0,0.0,0.0,0.0,0.0,0.0,0.0,0.0,0.0,0.0,0.0,0.0,0.0,0.0,0.0,0.0,0.0,0.0,0.0,0.0,0.0,0.0,0.0,0.0,0.0,0.0,0.0,0.0,0.0,0.0,0.0,0.0,0.0,0.0,0.0,0.0,0.0,0.0,0.0,0.0,0.0,0.0,0.0,0.0,0.0,0.0,0.0,0.0,0.0,0.0,0.0,0.0,0.0,0.0,0.0,0.0,0.0,0.0,0.0,0.0,0.0,0.0,0.0,0.0,0.0,0.0,0.0,0.0,0.0,0.0,0.0,0.0,0.0,0.0,0.0,0.0,0.0,0.0,0.0,0.0,0.0,0.0,0.0,0.0,0.0,0.0,0.0,0.0,0.0,0.0,0.0,0.0,0.0,0.0,0.0,0.0,0.0,0.0,0.0,0.0,0.0,0.0,0.0,0.0,0.0,0.0,0.0,0.0,0.0,0.0,0.0,0.0,0.0,0.0,0.0,0.0,0.0,0.0,0.0,0.0,0.0,0.0,0.0,0.0,0.0,0.0,0.0,0.0,0.0,0.0,0.0,0.0,0.0,0.0,0.0,0.0,0.0,0.0,0.0,0.0,0.0,0.0,0.0,0.0,0.0,0.0,0.0,0.0,0.0,0.0,0.0,0.0,0.0,0.0,0.0,0.0,0.0,0.0,0.0,0.0,0.0,0.0,0.0,0.0,0.0,0.0,0.0,0.0,0.0,0.0,0.0,0.0,0.0,0.0,0.0,0.0,0.0,0.0,0.0,0.0,0.0,0.0,0.0,0.0,0.0,0.0,0.0,0.0,0.0,0.0,0.0,0.0,0.0,0.0,0.0,0.0,0.0,0.0,0.0,0.0,0.0,0.0,0.0,0.0,0.0,0.0,0.0,0.0,0.0,0.0,0.0,0.0,0.0,0.0,0.0,0.0,0.0,0.0,0.0,0.0,0.0,0.0,0.0,0.0,0.0,0.0,0.0,0.0,0.0,0.0,0.0,0.0,0.0,0.0,0.0,0.0,0.0,0.0,0.0,0.0,0.0,0.0,0.0,0.0,0.0,0.0,0.0,0.0,0.0,0.0,0.0,0.0,0.0,0.0,0.0,0.0,0.0,0.0,0.0,0.0,0.0,0.0,0.0,0.0,0.0,0.0,0.0,0.0,0.0,0.0,0.0,0.0,0.0,0.0,0.0,0.0,0.0,0.0,0.0,0.0,0.0,0.0,0.0,0.0,0.0,0.0,0.0,0.0,0.0,0.0,0.0,0.0,0.0,0.0,0.0,0.0,0.0,0.0,0.0,0.0,0.0,0.0,0.0,0.0,0.0,0.0,0.0,0.0,0.0,0.0,0.0,0.0,0.0,0.0,0.0,0.0,0.0,0.0,0.0,0.0,0.0,0.0,0.0,0.0,0.0,0.0,0.0,0.0,0.0,0.0,0.0,0.0,0.0,0.0,0.0,0.0,0.0,0.0,0.0,0.0,0.0,0.0,0.0,0.0,0.0,0.0,0.0,0.0,0.0,0.0,0.0,0.0,0.0,0.0,0.0,0.0,0.0,0.0,0.0,0.0,0.0,0.0,0.0,0.0,0.0,0.0,0.0,0.0,0.0,0.0,0.0,0.0,0.0,0.0,0.0,0.0,0.0,0.0,0.0,0.0,0.0,0.0,0.0,0.0,0.0,0.0,0.0,0.0,0.0,0.0,0.0,0.0,0.0,0.0,0.0,0.0,0.0,0.0,0.0,0.0,0.0,0.0,0.0,0.0,0.0,0.0,0.0,0.0,0.0,0.0,0.0,0.0,0.0,0.0,0.0,0.0,0.0,0.0,0.0,0.0,0.0,0.0,0.0,0.0,0.0,0.0,0.0,0.0,0.0,0.0,0.0,0.0,0.0,0.0,0.0,0.0,0.0,0.0,0.0,0.0,0.0,0.0,0.0,0.0,0.0,0.0,0.0,0.0,0.0,0.0,0.0,0.0,0.0,0.0,0.0,0.0,0.0,0.0,0.0,0.0,0.0,0.0,0.0,0.0,0.0,0.0,0.0,0.0,0.0,0.0,0.0,0.0,0.0,0.0,0.0,0.0,0.0,0.0,0.0,0.0,0.0,0.0,0.0,0.0,0.0,0.0,0.0,0.0,0.0,0.0,0.0,0.0,0.0,0.0,0.0,0.0,0.0,0.0,0.0,0.0,0.0,0.0,0.0,0.0,0.0,0.0,0.0,0.0,0.0,0.0,0.0,0.0,0.0,0.0,0.0,0.0,0.0,0.0,0.0,0.0,0.0,0.0,0.0,0.0,0.0,0.0,0.0,0.0,0.0,0.0,0.0,0.0,0.0,0.0,0.0,0.0,0.0,0.0,0.0,0.0,0.0,0.0,0.0,0.0,0.0,0.0,0.0,0.0,0.0,0.0,0.0,0.0,0.0,0.0,0.0,0.0,0.0,0.0,0.0,0.0,0.0,0.0,0.0,0.0,0.0,0.0,0.0,0.0,0.0,0.0,0.0,0.0,0.0,0.0,0.0,0.0,0.0,0.0,0.0,0.0,0.0,0.0,0.0,0.0,0.0,0.0,0.0,0.0,0.0,0.0,0.0,0.0,0.0,0.0,0.0,0.0,0.0,0.0,0.0,0.0,0.0,0.0,0.0,0.0,0.0,0.0,0.0,0.0,0.0,0.0,0.0,0.0,0.0,0.0,0.0,0.0,0.0,0.0,0.0,0.0,0.0,0.0,0.0,0.0,0.0,0.0,0.0,0.0,0.0,0.0,0.0,0.0,0.0,0.0,0.0,0.0,0.0,0.0,0.0,0.0,0.0,0.0,0.0,0.0,0.0,0.0,0.0,0.0,0.0,0.0,0.0,0.0,0.0,0.0,0.0,0.0,0.0,0.0,0.0,0.0,0.0,0.0,0.0,0.0,0.0,0.0,0.0,0.0,0.0,0.0,0.0,0.0,0.0,0.0,0.0,0.0,0.0,0.0,0.0,0.0,0.0,0.0,0.0,0.0,0.0,0.0,0.0,0.0,0.0,0.0,0.0,0.0,0.0,0.0,0.0,0.0,0.0,0.0,0.0,0.0,0.0,0.0,0.0,0.0,0.0,0.0,0.0,0.0,0.0,0.0,0.0,0.0,0.0,0.0,0.0,0.0,0.0,0.0,0.0,0.0,0.0,0.0,0.0,0.0,0.0,0.0,0.0,0.0,0.0,0.0,0.0,0.0,0.0,0.0,0.0,0.0,0.0,0.0,0.0,0.0,0.0,0.0,0.0,0.0,0.0,0.0,0.0,0.0,0.0,0.0,0.0,0.0,0.0,0.0,0.0,0.0,0.0,0.0,0.0,0.0,0.0,0.0,0.0,0.0,0.0,0.0,0.0,0.0,0.0,0.0,0.0,0.0,0.0,0.0,0.0,0.0,0.0,0.0,0.0,0.0,0.0,0.0,0.0,0.0,0.0,0.0,0.0,0.0,0.0,0.0,0.0,0.0,0.0,0.0,0.0,0.0,0.0,0.0,0.0,0.0,0.0,0.0,0.0,0.0,0.0,0.0,0.0,0.0,0.0,0.0,0.0,0.0,0.0,0.0,0.0,0.0,0.0,0.0,0.0,0.0,0.0,0.0,0.0,0.0,0.0,0.0,0.0,0.0,0.0,0.0,0.0,0.0,0.0,0.0,0.0,0.0,0.0,0.0,0.0,0.0,0.0,0.0,0.0,0.0,0.0,0.0,0.0,0.0,0.0,0.0,0.0,0.0,0.0,0.0,0.0,0.0,0.0,0.0,0.0,0.0,0.0,0.0,0.0,0.0,0.0,0.0,0.0,0.0,0.0,0.0,0.0,0.0,0.0,0.0,0.0,0.0,0.0,0.0,0.0,0.0,0.0,0.0,0.0,0.0,0.0,0.0,0.0,0.0,0.0,0.0,0.0,0.0,0.0,0.0,0.0,0.0,0.0,0.0,0.0,0.0,0.0,0.0,0.0,0.0,0.0,0.0,0.0,0.0,0.0,0.0,0.0,0.0,0.0,0.0,0.0,0.0,0.0,0.0,0.0,0.0,0.0,0.0,0.0,0.0,0.0,0.0,0.0,0.0,0.0,0.0,0.0,0.0,0.0,0.0,0.0,0.0,0.0,0.0,0.0,0.0,0.0,0.0,0.0,0.0,0.0,0.0,0.0,0.0,0.0,0.0,0.0,0.0,0.0,0.0,0.0,0.0,0.0,0.0,0.0,0.0,0.0,0.0,0.0,0.0,0.0,0.0,0.0,0.0,0.0,0.0,0.0,0.0,0.0,0.0,0.0,0.0,0.0,0.0,0.0,0.0,0.0,0.0,0.0,0.0,0.0,0.0,0.0,0.0,0.0,0.0,0.0,0.0,0.0,0.0,0.0,0.0,0.0,0.0,0.0,0.0,0.0,0.0,0.0,0.0,0.0,0.0,0.0,0.0,0.0,0.0,0.0,0.0,0.0,0.0,0.0,0.0,0.0,0.0,0.0,0.0,0.0,0.0,0.0,0.0,0.0,0.0,0.0,0.0,0.0,0.0,0.0,0.0,0.0,0.0,0.0,0.0,0.0,0.0,0.0,0.0,0.0,0.0,0.0,0.0,0.0,0.0,0.0,0.0,0.0,0.0,0.0,0.0,0.0,0.0,0.0,0.0,0.0,0.0,0.0,0.0,0.0,0.0,0.0,0.0,0.0,0.0,0.0,0.0,0.0,0.0,0.0,0.0,0.0,0.0,0.0,0.0,0.0,0.0,0.0,0.0,0.0,0.0,0.0,0.0,0.0,0.0,0.0,0.0,0.0,0.0,0.0,0.0,0.0,0.0,0.0,0.0,0.0,0.0,0.0,0.0,0.0,0.0,-0.1797,-0.1701,0.0,0.0,0.0,0.0,0.0,0.0,0.0,0.0,0.0,0.0,0.0,0.0,0.0,0.0,0.0,0.0,0.0,0.0,0.0,0.0,0.0,0.0,0.0,0.0,0.0,0.0,0.0,0.0,0.0,0.0,0.0,0.0,0.0,0.0,0.5733,0.5733,0.5733,0.5733,0.626,0.6959,0.7834,0.7309,0.7132,0.7044,0.0,0.0,0.0,0.0,0.0,0.0,0.0,0.0,0.0,0.0,0.0,0.0,0.0,0.0,0.0,0.0,0.0,0.0,0.0,0.0,0.0,0.0,0.0,0.0,0.0,0.0,0.0,0.0,0.0,0.0,0.0,0.0,0.0,0.0,0.0,0.0,0.0,0.0,0.0,0.0,0.0,0.0,0.0,0.0,0.0,0.0,0.0,0.0,0.0,0.0,0.0,0.0,0.0,0.0,0.0,0.0,0.0,0.0,0.0,0.0,0.0,0.0,0.0,0.0,0.0,0.0,0.0,0.0,0.0,0.0,-0.2018,-0.2323,0.0,0.0,0.0,0.0,0.0,0.0,0.0,0.0,0.0,0.0,0.0,0.0,0.0,0.0,0.0,0.0,0.0,0.0,0.0,0.0,0.0,0.0,0.0,0.6881,0.6704,0.652,0.6257,0.5994,0.5822,0.5733,0.5733,0.5733,0.5733,0.5733,0.5733,0.5819,0.5822,0.5822,0.7224,0.8113,0.8488,0.8752,0.8681,0.8533,0.733,0.0,0.0,0.0,0.0,0.0,0.0,0.0,0.0,0.0,0.0,0.0,0.0,0.0,0.0,0.0,0.0,0.0,0.0,0.0,0.0,0.0,0.0,0.0,0.0,0.0,0.0,0.0,0.0,0.0,0.0,0.0,0.0,0.0,0.0,0.0,0.0,0.0,0.0,0.0,0.0,0.0,0.0,0.0,0.0,0.0,0.0,0.0,0.0,0.0,0.0,0.0,0.0,0.0,0.0,0.0,0.0,0.0,0.0,0.0,0.0,0.0,0.0,0.0,0.3728,0.3828,0.4431,0.3323,0.2114,0.0906,-0.131,-0.2422,-0.2724,-0.1411,0.0,0.0,0.0,0.0,0.0,0.0,0.0,0.0,0.0,0.0,0.0,0.0,0.0,0.0,0.0,0.0,0.0,0.0,0.0,0.0,0.0,0.6881,0.6795,0.6792,0.6349,0.6083,0.6083,0.5822,0.5733,0.5733,0.5908,0.6083,0.6083,0.6257,0.6343,0.6343,0.8356,0.949,0.9745,1.082,1.1373,1.1449,0.9207,0.8711,0.9396,0.0,0.0,0.0,0.0,0.0,0.0,0.0,0.0,0.0,0.0,0.0,0.0,0.0,0.0,0.0,0.0,0.0,0.0,0.0,0.0,0.0,0.0,0.0,0.0,0.0,0.0,0.0,0.0,0.0,0.0,0.0,0.0,0.0,0.0,0.0,0.0,0.0,0.0,0.0,0.0,0.0,0.4567,0.475,0.0,0.0,0.0,0.0,0.0,0.0,0.0,0.0,0.0,0.0,0.0,0.0,0.0,0.4718,0.4716,0.3521,0.3021,0.3021,0.1811,0.1308,0.1408,0.1207,0.0805,0.0101,-0.0202,0.0,-0.2826,-0.2522,0.0,0.0,0.0,0.0,0.0,0.0,0.0,0.0,0.0,0.0,0.0,0.0,0.0,0.0,0.0,0.0,0.0,0.0,0.0,0.0,0.0,0.7054,0.6881,0.6795,0.6618,0.6438,0.6254,0.6169,0.6083,0.6083,0.6169,0.6254,0.6254,0.6343,0.7081,0.841,1.0037,1.0955,1.1227,1.1685,1.2015,1.2011,1.099,1.0097,0.9474,0.8299,0.0,0.0,0.0,0.0,0.0,0.0,0.0,0.0,0.0,0.0,0.0,0.0,0.0,0.0,0.0,0.0,0.0,0.0,0.0,0.0,0.0,0.0,0.0,0.0,0.0,0.0,0.0,0.0,0.0,0.0,0.0,0.0,0.0,0.0,0.0,0.0,0.0,0.0,0.0,0.5013,0.4947,0.5189,0.5013,0.4867,0.0,0.0,0.0,0.0,0.0,0.0,0.0,0.0,0.0,0.4332,0.4634,0.4634,0.4334,0.3729,0.3627,0.3927,0.302,0.2718,0.3019,0.2717,0.2014,0.1108,0.0806,-0.0202,-0.1613,-0.131,-0.1412,-0.1714,0.0,0.0,0.0,0.0,-0.3422,-0.3825,0.0,0.0,0.0,0.0,0.0,0.0,0.0,0.0,0.0,0.0,0.0,0.0,0.7139,0.7139,0.7054,0.6881,0.6792,0.6704,0.652,0.6432,0.6428,0.6428,0.6465,0.6573,0.6573,0.6962,0.802,0.9777,1.1207,1.1962,1.221,1.2487,1.2612,1.2668,1.239,1.1487,1.019,0.9173,0.8617,0.8329,0.0,0.0,0.0,0.0,0.0,0.0,0.0,0.0,0.0,0.0,0.0,0.0,0.0,0.0,0.0,0.0,0.0,0.0,0.0,0.0,0.0,0.0,0.0,0.0,0.0,0.0,0.0,0.0,0.0,0.0,0.0,0.0,0.0,0.0,0.0,0.0,0.0,0.5325,0.5277,0.548,0.5213,0.5158,0.0,0.0,0.0,0.0,0.0,0.0,0.483,0.4834,0.4734,0.4234,0.4634,0.4634,0.4234,0.4234,0.4435,0.4834,0.4433,0.4334,0.4533,0.4133,0.3325,0.2115,0.1713,0.0706,-0.0504,-0.0302,-0.0907,-0.2017,-0.1611,-0.1912,-0.2718,-0.3823,-0.4327,-0.4529,0.0,0.0,0.0,0.0,0.0,0.0,0.0,0.0,0.0,0.0,0.0,0.7139,0.7139,0.7139,0.7139,0.7051,0.6881,0.6795,0.6795,0.6523,0.6428,0.6428,0.674,0.6998,0.6998,0.8325,0.9153,0.9254,1.1191,1.2238,1.2471,1.3415,1.392,1.416,1.3086,1.2925,1.3235,1.2301,1.1288,1.0459,1.0542,0.0,0.0,0.0,0.0,0.0,0.0,0.0,0.0,0.0,0.0,0.0,0.0,0.0,0.0,0.0,0.0,0.0,0.0,0.0,0.0,0.0,0.0,0.0,0.0,0.0,0.0,0.0,0.0,0.0,0.0,0.0,0.0,0.0,0.0,0.0,0.0,0.0,0.0,0.5405,0.4944,0.0,0.0,0.0,0.0,0.482,0.5031,0.5033,0.4834,0.5037,0.5037,0.4734,0.4834,0.4834,0.4734,0.4734,0.4734,0.4834,0.4734,0.4535,0.4033,0.4033,0.3428,0.2422,0.2321,0.1615,0.0303,-0.0504,-0.0504,-0.0202,-0.0704,-0.0905,-0.1106,-0.3012,-0.3919,-0.463,0.0,0.0,0.0,0.0,0.0,0.0,0.0,0.0,0.7139,0.7139,0.7139,0.7139,0.7139,0.7139,0.7139,0.7139,0.7054,0.6966,0.6966,0.7055,0.7018,0.7018,0.7254,0.7702,0.8436,1.0375,1.1328,1.1328,1.212,1.2522,1.2608,1.2991,1.2844,1.2344,1.2533,1.2833,1.2959,1.1903,1.1331,1.0938,1.0896,1.0467,0.0,0.0,0.0,0.0,0.0,0.0,0.0,0.0,0.0,0.0,0.0,0.0,0.0,0.0,0.0,0.0,0.0,0.0,0.0,0.0,0.0,0.0,0.0,0.0,0.0,0.0,0.0,0.0,0.0,0.0,0.0,0.0,0.0,0.0,0.0,0.0,0.0,0.542,0.514,0.0,0.5372,0.5187,0.5003,0.5035,0.4937,0.4937,0.4834,0.4935,0.4937,0.4834,0.4834,0.4834,0.4834,0.4433,0.4332,0.4232,0.3932,0.3632,0.343,0.3127,0.2724,0.2422,0.2019,0.1616,0.1111,0.0908,0.0,-0.121,-0.2516,-0.332,-0.3925,-0.5024,-0.5527,-0.5732,0.0,0.0,0.0,0.0,0.0,0.0,0.0,0.0,0.7139,0.7139,0.7139,0.7139,0.7139,0.7139,0.7139,0.7139,0.7139,0.7163,0.7214,0.7316,0.7394,0.7448,0.7962,0.8729,0.9824,1.1287,1.222,1.2601,1.2657,1.2926,1.3221,1.3221,1.2926,1.2247,1.2926,1.3221,1.3221,1.2538,1.2047,1.1745,1.198,1.1632,1.0938,0.0,0.0,0.0,0.0,0.0,0.0,0.0,0.0,0.0,0.0,0.0,0.0,0.0,0.0,0.0,0.0,0.0,0.0,0.0,0.0,0.0,0.0,0.0,0.0,0.0,0.0,0.0,0.0,0.0,0.0,0.0,0.0,0.0,0.0,0.5188,0.5129,0.5525,0.5241,0.5167,0.5429,0.5238,0.5037,0.5037,0.4937,0.4834,0.4834,0.4834,0.4834,0.4834,0.4834,0.4834,0.4834,0.4433,0.4234,0.4234,0.3732,0.3331,0.323,0.2623,0.2321,0.212,0.1717,0.1617,0.1617,0.1617,0.0808,-0.0706,-0.2013,-0.3626,-0.5247,-0.6147,-0.6445,-0.6645,0.0,0.0,0.0,0.0,0.0,0.0,0.0,0.7139,0.7139,0.7139,0.7139,0.7139,0.7139,0.7139,0.7139,0.7139,0.7143,0.721,0.736,0.738,0.7455,0.7607,0.8783,1.0,1.1165,1.1268,1.1755,1.2732,1.2732,1.3221,1.4292,1.4292,1.4202,1.4196,1.4202,1.4292,1.4292,1.4292,1.3709,1.2823,1.3902,1.3125,1.1244,0.0,0.0,0.0,0.0,0.0,0.0,0.0,0.0,0.0,0.0,0.0,0.0,0.0,0.0,0.0,0.0,0.0,0.0,0.0,0.0,0.0,0.0,0.0,0.0,0.0,0.0,0.0,0.0,0.0,0.0,0.0,0.0,0.0,0.5099,0.5096,0.523,0.5525,0.5135,0.4937,0.514,0.4937,0.4834,0.4834,0.4834,0.4834,0.4734,0.4734,0.4734,0.4734,0.4734,0.4734,0.4734,0.4734,0.4734,0.4734,0.4131,0.3632,0.313,0.2623,0.212,0.1617,0.1617,0.1617,0.1617,0.1617,0.1516,0.1414,0.0908,-0.1513,-0.4853,-0.5859,-0.6561,-0.6959,0.0,0.0,0.0,0.0,0.0,0.0,0.0,0.7139,0.7139,0.7139,0.7139,0.7139,0.7139,0.7139,0.7139,0.7139,0.7244,0.7326,0.7366,0.7573,0.7756,0.7913,0.9701,1.0821,1.117,1.195,1.2829,1.3902,1.3119,1.2829,1.3119,1.3119,1.2732,1.2047,1.2829,1.3119,1.3119,1.3119,1.3414,1.3902,1.4196,1.4004,1.3312,0.0,0.0,0.0,0.0,0.0,0.0,0.0,0.0,0.0,0.0,0.0,0.0,0.0,0.0,0.0,0.0,0.0,0.0,0.0,0.0,0.0,0.0,0.0,0.0,0.0,0.0,0.0,0.0,0.0,0.0,0.0,0.52,0.5101,0.52,0.4999,0.4906,0.5033,0.4935,0.4834,0.4937,0.4834,0.4834,0.4834,0.4834,0.4634,0.4234,0.4234,0.4033,0.3632,0.3632,0.3632,0.3632,0.3228,0.3025,0.3025,0.2522,0.2222,0.202,0.1919,0.1717,0.1617,0.1617,0.1415,0.101,0.1415,0.0707,-0.0707,-0.0504,-0.1008,-0.2017,-0.3224,-0.4632,-0.6142,0.0,0.0,0.0,0.0,0.0,0.0,0.0,0.7139,0.7139,0.7139,0.7139,0.7139,0.7139,0.7139,0.7166,0.7231,0.7319,0.7424,0.7546,0.7777,0.814,0.8623,1.0293,1.1365,1.1853,1.2436,1.3221,1.4298,1.3221,1.2926,1.3414,1.3414,1.3028,1.2538,1.3119,1.3414,1.3414,1.3414,1.3709,1.4298,1.4298,1.4298,1.41,1.2441,1.156,1.0979,0.9316,0.8371,0.7906,0.7906,0.0,0.0,0.0,0.0,0.0,0.0,0.0,0.0,0.0,0.0,0.0,0.0,0.0,0.0,0.0,0.0,0.0,0.0,0.0,0.0,0.0,0.0,0.0,0.0,0.5138,0.5037,0.5037,0.4937,0.4834,0.4834,0.4634,0.4433,0.4433,0.4234,0.4133,0.4133,0.4133,0.4033,0.3732,0.3632,0.3531,0.323,0.323,0.323,0.323,0.2927,0.2725,0.2725,0.2221,0.1919,0.1919,0.1718,0.1617,0.1617,0.1617,0.1415,0.1111,0.0505,-0.0505,0.0,0.0,0.0,0.0,0.0,-0.4728,-0.5934,0.0,0.0,0.0,0.0,0.0,0.0,0.0,0.7139,0.7139,0.7139,0.7139,0.7139,0.7139,0.7139,0.7204,0.7356,0.7387,0.7522,0.7818,0.8062,0.8528,0.941,1.0587,1.1658,1.2533,1.2635,1.3221,1.4298,1.3318,1.3414,1.4298,1.4298,1.4298,1.4298,1.4298,1.4298,1.4298,1.4298,1.4298,1.4298,1.4298,1.4202,1.4004,1.3022,1.2047,1.1077,0.9998,0.9019,0.8137,0.8038,0.0,0.0,0.0,0.0,0.0,0.0,0.0,0.0,0.0,0.0,0.0,0.0,0.0,0.0,0.0,0.0,0.0,0.0,0.0,0.0,0.0,0.0,0.0,0.0,0.5135,0.4834,0.4734,0.4734,0.4734,0.4734,0.4234,0.3932,0.3932,0.3432,0.323,0.323,0.323,0.313,0.313,0.313,0.0,0.0,0.0,0.3029,0.3029,0.3029,0.3029,0.3029,0.2523,0.2321,0.2321,0.1818,0.1516,0.1415,0.1415,0.1415,0.1313,-0.0707,-0.1516,-0.1617,-0.1617,-0.1314,-0.1313,-0.4431,-0.5734,-0.6129,0.0,0.0,0.0,0.0,0.0,0.0,0.0,0.7139,0.7139,0.7139,0.7139,0.7139,0.7139,0.7139,0.7204,0.7356,0.7485,0.7682,0.7977,0.8806,0.9019,0.8333,1.0194,1.1268,1.1463,1.2242,1.3221,1.4298,1.41,1.41,1.4298,1.4298,1.4298,1.4298,1.4298,1.4298,1.4298,1.4298,1.4298,1.4298,1.4298,1.3806,1.3022,1.2829,1.2047,1.1077,0.9998,0.9509,0.9118,0.8333,0.8038,0.8038,0.8038,0.8018,0.0,0.0,0.0,0.0,0.0,0.0,0.0,0.0,0.0,0.0,0.0,0.0,0.0,0.0,0.0,0.0,0.0,0.0,0.0,0.5636,0.5338,0.4939,0.4234,0.4133,0.4133,0.4133,0.3632,0.3331,0.3331,0.323,0.323,0.323,0.323,0.3027,0.2623,0.2522,0.2322,0.192,0.192,0.192,0.192,0.192,0.192,0.192,0.1818,0.0,0.1717,0.1617,0.1111,0.0303,0.0303,0.0303,0.0202,-0.0606,-0.1212,-0.1617,-0.1617,-0.1516,-0.1616,-0.3124,-0.4427,-0.5529,0.0,0.0,0.0,0.0,0.0,0.0,0.0,0.8101,0.7841,0.7841,0.7404,0.7139,0.7139,0.721,0.7319,0.7472,0.7692,0.7882,0.8031,0.8528,0.8528,0.8038,1.0096,1.117,1.117,1.2732,1.3806,1.4298,1.4298,1.4298,1.4298,1.4298,1.4298,1.4298,1.4298,1.4298,1.4298,1.4298,1.4298,1.4298,1.4298,1.3709,1.2727,1.2727,1.2436,1.1853,1.0779,1.0096,0.9509,0.9118,0.8627,0.8233,0.8333,0.8432,0.8333,0.0,0.0,0.0,0.0,0.0,0.0,0.0,0.0,0.0,0.0,0.0,0.0,0.0,0.0,0.6337,0.6239,0.0,0.5739,0.5438,0.4937,0.4435,0.4033,0.353,0.3328,0.3531,0.3128,0.2826,0.2826,0.2524,0.2424,0.2424,0.2424,0.2323,0.2019,0.2019,0.1919,0.1617,0.1617,0.1617,0.1617,0.1212,0.101,0.0808,0.0808,0.0808,0.0808,0.0808,0.0505,-0.0,-0.0606,-0.0808,-0.0808,-0.1314,-0.1717,-0.2019,-0.2019,-0.1919,-0.192,-0.3126,-0.4327,-0.5527,0.0,0.0,0.0,0.0,0.0,0.0,0.0,0.9061,0.8544,0.8544,0.7669,0.7139,0.7139,0.7278,0.7444,0.7624,0.7885,0.8038,0.8038,0.8237,0.8237,0.8038,1.0194,1.1365,1.117,1.3221,1.4298,1.4298,1.4298,1.4298,1.4298,1.4298,1.4298,1.4298,1.4298,1.4298,1.4298,1.4298,1.4298,1.4298,1.4298,1.3806,1.3022,1.2829,1.2533,1.2339,1.1463,1.0685,0.9899,0.9998,0.9608,0.9019,0.9118,0.9118,0.9019,0.8531,0.8432,0.0,0.0,0.0,0.0,0.0,0.0,0.0,0.0,0.6539,0.6437,0.6437,0.6437,0.6337,0.6042,0.5839,0.5539,0.514,0.4537,0.4033,0.3731,0.2925,0.2522,0.2827,0.2523,0.222,0.222,0.1818,0.1617,0.1617,0.1617,0.1617,0.1617,0.1415,0.1314,0.1313,0.1313,0.1313,0.1313,0.0707,0.0202,-0.0101,-0.0202,-0.0303,-0.0303,-0.0404,-0.0404,-0.0505,-0.1414,-0.1717,-0.1818,-0.2223,-0.2423,-0.2521,-0.2723,-0.2623,-0.2625,-0.353,-0.463,-0.5824,0.0,0.0,0.0,0.0,0.0,0.0,0.0,0.0,0.8544,0.8544,0.7669,0.7139,0.7139,0.7278,0.7485,0.7763,0.7943,0.8038,0.8038,0.8924,0.9019,0.8038,1.0877,1.2145,1.1268,1.3221,1.4298,1.4298,1.4298,1.4298,1.4298,1.4298,1.4298,1.4298,1.4298,1.4298,1.4298,1.4298,1.4298,1.4298,1.4298,1.4202,1.4004,1.3022,1.2145,1.1365,1.1268,1.1072,1.0877,1.0194,1.0583,1.1072,1.0489,1.0194,0.9998,0.8726,0.8432,0.8333,0.8038,0.7942,0.7839,0.7338,0.7138,0.7039,0.0,0.6437,0.6437,0.6437,0.6437,0.6337,0.6042,0.5942,0.5641,0.464,0.4438,0.3934,0.2724,0.2522,0.222,0.1818,0.1718,0.1718,0.1718,0.1617,0.1617,0.1617,0.1617,0.1617,0.1617,0.101,0.0505,0.0202,0.0202,0.0202,0.0202,0.0101,-0.0101,-0.0404,-0.1111,-0.1415,-0.1415,-0.1921,-0.2022,-0.1921,-0.2221,-0.2321,-0.2321,-0.2822,-0.3124,-0.3224,-0.3927,-0.4128,-0.4028,-0.3525,-0.4427,-0.6129,0.0,0.0,0.0,0.0,0.0,0.0,0.0,0.0,0.0,0.9318,0.8013,0.7139,0.7139,0.7356,0.7624,0.7919,0.8004,0.8233,0.8924,0.9312,0.9706,0.9903,1.1653,1.2533,1.2047,1.3511,1.4298,1.4298,1.4298,1.4298,1.4298,1.4298,1.4298,1.4298,1.4298,1.4298,1.4298,1.4298,1.4298,1.4298,1.4298,1.4298,1.4292,1.3806,1.3022,1.2047,1.2047,1.1268,0.0,1.0984,1.0592,1.0002,0.9912,0.9813,0.9517,0.8825,0.8531,0.8333,0.8038,0.8038,0.7942,0.754,0.7341,0.7138,0.6739,0.6539,0.6437,0.6437,0.6237,0.6039,0.5837,0.5639,0.524,0.4336,0.3934,0.343,0.2522,0.2119,0.1818,0.1617,0.1617,0.1617,0.1617,0.1617,0.1516,0.1111,0.1111,0.101,0.0707,0.0404,0.0101,-0.0303,-0.0707,-0.0909,-0.0909,-0.1212,-0.1314,-0.1516,-0.1918,-0.2019,-0.212,-0.2322,-0.2523,-0.2825,-0.3126,-0.3428,-0.3626,-0.3827,-0.4028,-0.413,-0.4531,-0.4832,-0.5033,-0.4331,-0.5031,-0.6334,0.0,0.0,0.0,0.0,0.0,0.0,0.0,0.0,0.0,0.0,0.8536,0.7436,0.7258,0.7465,0.7719,0.8014,0.8038,0.8432,0.9509,0.9899,1.0391,1.117,1.2436,1.3022,1.2732,1.3709,1.4298,1.4298,1.4298,1.4298,1.4298,1.4298,1.4298,1.4298,1.4298,1.4298,1.4298,1.4298,1.4298,1.4298,1.4298,1.4298,1.4298,1.4298,1.3414,1.2339,1.2635,1.156,1.0293,1.177,1.1277,0.9998,1.0203,1.0113,0.9817,0.8924,0.8531,0.8237,0.8038,0.8038,0.7942,0.7543,0.7341,0.7238,0.7138,0.6936,0.6833,0.6833,0.6637,0.6237,0.5737,0.5338,0.4839,0.3932,0.3432,0.2928,0.2321,0.1818,0.1516,0.1415,0.1516,0.1617,0.1617,0.1617,0.1314,0.0606,0.0303,0.0,-0.0202,-0.0404,-0.0606,-0.0909,-0.1415,-0.1818,-0.2019,-0.2322,-0.2524,-0.2727,-0.2826,-0.2823,-0.2823,-0.2924,-0.3225,-0.3626,-0.4031,-0.4332,-0.4531,-0.463,-0.4832,-0.5035,-0.5236,-0.5636,-0.5937,-0.5536,-0.5837,-0.6534,0.0,0.0,0.0,0.0,0.0,0.0,0.0,0.0,0.0,0.0,0.0,0.0,0.0,0.7594,0.7719,0.8014,0.8038,0.8432,0.9509,1.0587,1.117,1.117,1.3125,1.3806,1.2727,1.3709,1.4298,1.4298,1.4298,1.4298,1.4298,1.4298,1.4298,1.4298,1.4298,1.4298,1.4298,1.4298,1.4298,1.4298,1.4298,1.4298,1.4298,1.4298,1.3028,1.1365,1.2339,1.2047,1.1365,1.2635,1.3022,1.2829,1.215,1.1955,1.1468,0.9118,0.8233,0.8038,0.8038,0.8038,0.7839,0.7338,0.7238,0.7335,0.7826,0.7922,0.7922,0.7922,0.7726,0.7132,0.5834,0.5338,0.4738,0.3432,0.323,0.2827,0.1819,0.1617,0.1415,0.0909,0.1313,0.1617,0.1617,0.1617,0.1212,0.0101,-0.0909,-0.1314,-0.0808,-0.1313,-0.1718,-0.2123,-0.2022,-0.2323,-0.3123,-0.3123,-0.3426,-0.3932,-0.3932,-0.3932,-0.3932,-0.423,-0.4529,-0.4734,-0.4734,-0.4734,-0.4834,-0.5336,-0.5534,-0.5636,-0.6442,-0.6742,-0.6745,-0.7039,-0.6836,-0.6537,0.0,0.0,0.0,0.0,0.0,0.0,0.0,0.0,0.0,0.0,0.0,0.0,0.0,0.0,0.0,0.0,0.8038,0.8726,1.0583,1.0974,1.1853,1.3221,1.3908,1.41,1.3806,1.41,1.4298,1.4298,1.4298,1.4298,1.4298,1.4298,1.4298,1.4298,1.4298,1.4298,1.4298,1.4298,1.4298,1.4298,1.4298,1.4298,1.4298,1.4298,1.3902,1.3318,0.0,1.2242,1.0489,1.2436,1.2635,1.1955,1.1184,1.0788,1.0293,0.8627,0.8531,0.9019,0.9019,0.9608,0.9801,0.8612,0.8216,0.8021,0.7129,0.6933,0.6933,0.6736,0.6839,0.6839,0.6237,0.5634,0.4933,0.413,0.3328,0.2523,0.1718,0.1617,0.1313,0.0404,-0.0202,0.0202,0.1918,0.0505,-0.0707,-0.101,-0.1415,-0.1617,-0.1718,-0.1921,-0.2222,-0.2823,-0.2823,-0.3126,-0.3729,-0.3929,-0.4128,-0.423,-0.4636,-0.4937,-0.5035,-0.5534,-0.5734,-0.5834,-0.6237,-0.6437,-0.6437,-0.6637,-0.6637,-0.6736,-0.6939,-0.7039,-0.7039,-0.7138,-0.7036,-0.7036,0.0,0.0,0.0,0.0,0.0,0.0,0.0,0.0,0.0,0.0,0.0,0.0,0.0,0.0,0.0,0.0,0.0,0.8726,1.0489,1.0974,1.195,1.3613,1.41,1.4298,1.4298,1.4298,1.4298,1.4298,1.4298,1.4298,1.4298,1.4298,1.4298,1.4298,1.4298,1.4298,1.4298,1.4298,1.4298,1.4298,1.4298,1.4298,1.4298,1.4298,1.41,0.0,1.4196,1.2732,1.0974,1.2436,1.2047,1.0783,1.0301,1.0006,0.9706,0.8821,0.9019,0.9608,0.9608,0.9801,0.9899,0.9008,0.8814,0.8711,0.8216,0.8113,0.8113,0.7918,0.7925,0.773,0.7229,0.6029,0.5129,0.5029,0.3927,0.2722,0.1513,0.1614,0.1817,0.1716,0.0101,-0.0303,0.1411,0.0101,-0.0909,-0.101,-0.1515,-0.2021,-0.2524,-0.2524,-0.2925,-0.3626,-0.3626,-0.3929,-0.4736,-0.4935,-0.5133,-0.5432,-0.5737,-0.6039,-0.6137,-0.6537,-0.6736,-0.6736,-0.7039,-0.7238,-0.7238,-0.7238,-0.7238,-0.7238,-0.7341,-0.7441,-0.7537,-0.7637,-0.7733,-0.7832,0.0,0.0,0.0,0.0,0.0,0.0,0.0,0.0,0.0,0.0,0.0,0.0,0.0,0.0,0.0,0.0,0.0,0.0,0.9509,1.0583,1.156,1.2533,1.3613,1.4202,1.4202,1.4298,1.4298,1.4298,1.4298,1.4298,1.4298,1.4298,1.4298,1.4298,1.4298,1.4298,1.4298,1.4298,1.4298,1.4298,1.4298,1.4298,1.4298,1.4298,1.3613,1.2829,1.3806,1.3511,1.263,1.2727,1.1365,0.9706,0.9702,0.9706,0.9706,0.9706,0.9706,0.9706,0.9706,0.9019,0.8333,0.8726,0.892,0.9312,1.0779,1.1072,1.1072,1.1072,1.0489,0.9604,0.8612,0.6725,0.5432,0.5929,0.4926,0.332,0.1207,0.1711,0.2821,0.4448,0.1917,0.0101,0.0101,0.0303,0.0404,0.0202,-0.1312,-0.2424,-0.3124,-0.3225,-0.3626,-0.4429,-0.4429,-0.5033,-0.6042,-0.6042,-0.6442,-0.7238,-0.7238,-0.7238,-0.7238,-0.7238,-0.7235,-0.7235,-0.7235,-0.7235,-0.7235,-0.7235,-0.7235,-0.7338,-0.7543,-0.7842,-0.8038,-0.8333,-0.8627,-0.8726,0.0,0.0,0.0,0.0,0.0,0.0,0.0,0.0,0.0,0.0,0.0,0.0,0.0,0.0,0.0,0.0,0.0,0.0,0.9509,0.9903,1.0489,1.156,1.2533,1.3119,1.3119,1.3902,1.4298,1.4298,1.4298,1.4298,1.4298,1.4298,1.4298,1.4298,1.4298,1.4298,1.4298,1.4298,1.4298,1.4298,1.4298,1.4298,1.4298,1.4298,1.3613,1.2732,1.3022,1.2436,1.1658,1.2436,1.1853,1.0877,1.1658,1.1365,1.0779,1.0779,1.0779,1.0779,1.0779,1.117,1.1268,1.0194,1.0583,1.0979,1.0194,0.9998,0.9801,0.9205,0.9406,0.941,0.8329,0.7238,0.6442,0.6345,0.5041,0.3632,0.2723,0.2417,0.2316,0.2421,0.1714,0.121,0.121,0.0303,0.0505,0.222,-0.0403,-0.2221,-0.2626,-0.323,-0.4237,-0.5445,-0.5546,-0.5944,-0.6839,-0.6939,-0.7138,-0.7543,-0.7739,-0.7939,-0.8134,-0.8329,-0.8428,-0.8428,-0.8428,-0.8428,-0.8428,-0.8428,-0.8428,-0.8428,-0.8432,-0.8531,-0.8627,-0.8627,-0.8726,-0.8726,0.0,0.0,0.0,0.0,0.0,0.0,0.0,0.0,0.0,0.0,0.0,0.0,0.0,0.0,0.0,0.0,0.0,0.0,0.0,0.9316,0.9899,1.0489,1.1463,1.2242,1.2727,1.3318,1.3806,1.4298,1.4298,1.4298,1.4298,1.4298,1.4298,1.4298,1.4298,1.4298,1.4298,1.4298,1.4298,0.0,0.0,1.4298,1.4292,1.3806,1.3221,1.2635,1.2242,1.1365,1.0681,1.2242,1.2047,1.1268,1.1853,1.195,1.1853,1.1853,1.156,1.1268,1.1755,1.156,1.1268,1.1179,1.1575,1.177,1.089,1.0694,1.0493,0.9801,0.971,0.9616,0.9031,0.7736,0.6842,0.7045,0.5641,0.4537,0.4638,0.3929,0.3224,0.2623,0.232,0.2118,0.2118,0.0908,0.0505,0.1716,-0.0202,-0.1918,-0.293,-0.3531,-0.4435,-0.5744,-0.6345,-0.7042,-0.7733,-0.7832,-0.7935,-0.8137,-0.8233,-0.8432,-0.8627,-0.8726,-0.8825,-0.8825,-0.8825,-0.8825,-0.8825,-0.8825,-0.8825,-0.8825,-0.8825,-0.8825,-0.8928,-0.8928,-0.9027,-0.9126,0.0,0.0,0.0,0.0,0.0,0.0,0.0,0.0,0.0,0.0,0.0,0.0,0.0,0.0,0.0,0.0,0.0,0.0,0.0,0.0,0.0,0.941,1.0391,1.1365,1.2242,1.2533,1.3125,1.41,1.4202,1.4298,1.4298,1.4298,1.4298,1.4298,1.4298,1.4298,1.4298,1.4298,1.4298,1.4298,1.4298,1.4298,1.4196,0.0,0.0,1.2339,1.1365,1.0489,1.0096,1.1853,1.195,1.1268,1.1365,1.2145,1.2926,1.2926,1.2145,1.1463,1.2436,1.1268,1.01,1.1585,1.2078,1.2078,1.1975,1.198,1.1785,1.1194,1.0511,0.992,0.9723,0.8031,0.6839,0.764,0.6334,0.5536,0.6147,0.534,0.4537,0.3838,0.313,0.2623,0.2523,0.1414,0.0404,-0.0202,-0.0707,-0.1717,-0.3435,-0.3728,-0.4329,-0.5436,-0.6833,-0.7733,-0.8233,-0.8627,-0.8825,-0.8825,-0.8825,-0.8825,-0.8924,-0.8924,-0.8924,-0.9023,-0.9023,-0.9023,-0.9023,-0.9023,-0.9023,-0.9023,-0.9023,-0.9126,-0.9331,-0.9331,-0.9529,-0.9723,0.0,0.0,0.0,0.0,0.0,0.0,0.0,0.0,0.0,0.0,0.8869,0.8508,0.0,0.0,0.0,0.0,0.0,0.0,0.0,0.0,0.0,0.0,0.9312,0.9998,1.0096,1.1853,1.2829,1.3022,1.3902,1.4298,1.4298,1.4298,1.4298,1.4298,1.4298,1.4298,1.4298,1.4298,1.4298,1.4298,1.4298,1.4298,1.4196,0.0,0.0,0.0,1.0293,1.0293,1.0979,1.1365,1.1365,1.1365,1.2145,1.3125,1.4004,1.4004,1.2635,1.1463,1.2436,1.1658,1.0783,1.1775,1.2467,1.2759,1.2175,1.198,1.1688,1.0413,1.0117,0.9624,0.8535,0.8052,0.7463,0.6751,0.6147,0.5648,0.5146,0.4742,0.4338,0.3838,0.313,0.2423,0.1818,0.0808,-0.0303,-0.1212,-0.1819,-0.2122,-0.2021,-0.313,-0.4137,-0.4943,-0.6439,-0.7338,-0.7437,-0.8329,-0.8825,-0.8825,-0.9031,-0.9232,-0.9426,-0.9426,-0.9723,-1.0113,-0.9916,-0.9916,-1.0113,-1.0113,-1.0113,-1.0113,-1.0113,-1.0113,-1.0216,-1.0216,-1.0216,-1.0216,0.0,0.0,0.0,0.0,0.0,0.0,0.0,1.0989,1.0219,0.8968,0.8506,0.8092,0.7699,0.7841,0.796,0.0,0.0,0.0,0.0,0.0,0.0,0.0,0.0,0.0,0.9205,1.0181,1.096,1.1546,0.0,1.2624,1.3221,1.3221,1.3613,1.4298,1.4298,1.4298,1.4298,1.4298,1.4298,1.4298,1.4298,1.4298,0.0,0.0,0.0,0.0,0.9801,0.9899,1.0391,1.0391,1.1072,1.2047,1.2533,1.3022,1.3607,1.41,1.2829,1.1468,1.2937,1.2052,1.1077,1.2262,1.2856,1.2856,1.178,1.1487,1.0998,0.9821,0.9327,0.8931,0.8137,0.7746,0.7353,0.6748,0.6145,0.5543,0.4841,0.434,0.3836,0.3331,0.2625,0.1817,0.0808,-0.0202,-0.1111,-0.1819,-0.2123,-0.2224,-0.1921,-0.313,-0.4537,-0.5839,-0.6334,-0.7129,-0.8226,-0.852,-0.892,-0.9616,-0.9723,-0.9924,-1.0019,-1.0019,-1.0117,-1.0413,-1.0216,-1.0314,-1.0413,-1.0413,-1.0413,-1.0413,-1.0413,-1.0413,-1.0413,-1.0413,-1.0413,-1.0413,0.0,0.0,0.0,0.0,0.0,0.0,0.0,1.0583,0.9822,0.8722,0.8131,0.7824,0.7858,0.7967,0.8038,0.0,0.0,0.0,0.0,0.0,0.0,0.0,0.0,0.0,0.0,0.0,0.0,1.0075,1.0271,0.0,0.0,0.0,0.0,0.0,1.3806,1.3902,1.4004,1.4196,1.4298,0.0,0.0,1.4298,0.0,0.0,0.0,0.0,0.0,0.9608,0.9608,0.9608,1.0877,1.2339,1.2339,1.2635,1.3221,1.401,1.2737,1.1468,1.334,1.2257,1.1077,1.2657,1.2953,1.2559,1.1389,1.09,1.031,0.9232,0.8634,0.8233,0.7939,0.7441,0.7039,0.6642,0.6039,0.5336,0.4734,0.4137,0.3534,0.2725,0.1817,0.0808,-0.0202,-0.1212,-0.1819,-0.2224,-0.2325,-0.2325,-0.2325,-0.343,-0.4632,-0.6132,-0.6132,-0.7027,-0.8821,-0.8715,-0.9213,-1.0413,-1.0413,-1.0413,-1.0511,-1.0413,-1.0507,-1.0609,-1.0507,-1.0511,-1.0609,-1.0609,-1.0609,-1.0609,-1.0609,-1.0609,-1.0609,-1.0609,-1.0609,-1.0609,0.0,0.0,0.0,0.0,0.0,0.0,0.0,1.0234,0.9653,0.8115,0.7794,0.7865,0.8004,0.8031,0.8038,0.0,0.0,0.0,0.0,0.0,0.0,0.0,0.0,0.0,0.0,0.0,0.0,0.8901,0.9878,0.0,0.0,0.0,0.0,0.0,0.0,1.263,1.2926,1.3902,0.0,0.0,0.0,0.0,0.0,0.0,0.0,0.0,0.0,0.9608,0.9608,0.9608,1.0391,1.1268,1.1072,1.2441,1.4106,1.4022,1.2452,1.1272,1.3044,1.1868,1.0587,1.2554,1.2565,1.1883,1.0998,1.0413,0.9723,0.873,0.8237,0.7839,0.7338,0.7042,0.6542,0.5837,0.5636,0.5233,0.4234,0.3935,0.3433,0.2522,0.111,-0.0303,-0.1314,-0.192,-0.2123,-0.2224,-0.2524,-0.2725,-0.2725,-0.353,-0.4033,-0.4232,-0.5634,-0.6833,-0.773,-0.8619,-0.9513,-1.0413,-1.0413,-1.0511,-1.0703,-1.0507,-1.0703,-1.1096,-1.09,-1.09,-1.1096,-1.1096,-1.1096,-1.1096,-1.1096,-1.1096,-1.1096,-1.1096,-1.1096,-1.1096,0.0,0.0,0.0,0.0,0.0,0.0,1.0577,0.9983,0.9181,0.7987,0.7892,0.797,0.8031,0.8038,0.8038,0.8038,0.0,0.0,0.0,0.0,0.0,0.0,0.0,0.0,0.0,0.0,0.7325,0.7325,0.7816,0.0,0.0,0.0,0.0,0.0,0.0,1.1755,1.2533,1.3119,0.0,0.0,0.0,0.0,0.0,0.0,0.0,0.0,0.0,0.0,1.0391,0.9118,1.0096,1.1658,1.0293,1.1268,1.2931,1.2743,1.216,1.1775,1.2953,1.2165,1.1287,1.2565,1.2467,1.178,1.0998,1.0306,0.9517,0.863,0.8038,0.7643,0.7238,0.6839,0.6439,0.5939,0.5539,0.4935,0.393,0.343,0.2624,0.111,0.0101,-0.0909,-0.1819,-0.2123,-0.2425,-0.3027,-0.3328,-0.363,-0.4031,-0.4033,-0.4334,-0.4935,-0.5236,-0.6331,-0.8326,-0.8421,-0.9312,-1.09,-1.09,-1.0904,-1.0998,-1.09,-1.0998,-1.1194,-1.1096,-1.1096,-1.1194,-1.1194,-1.1194,-1.1194,-1.1194,-1.1389,-1.1683,-1.1683,-1.1883,-1.2175,0.0,0.0,0.0,0.0,0.0,1.1413,1.0798,0.9828,0.8883,0.7969,0.7974,0.8038,0.8038,0.8038,0.7942,0.7842,0.7643,0.0,0.0,0.0,0.0,0.0,0.0,0.0,0.0,0.0,0.6437,0.6437,0.6437,0.693,0.0,0.0,0.8312,0.9391,0.0,0.0,0.0,0.0,0.0,0.0,0.0,0.0,0.0,0.0,0.0,0.0,0.0,0.0,0.0,0.0,0.0,1.156,0.9604,1.0288,1.1858,1.1858,1.1468,1.1282,1.2657,1.2073,1.1287,1.2273,1.2078,1.1389,1.06,0.9809,0.9019,0.8333,0.7839,0.7444,0.7141,0.6637,0.6239,0.5939,0.534,0.4638,0.363,0.3127,0.222,0.0707,-0.0404,-0.1314,-0.2224,-0.2425,-0.2927,-0.3629,-0.4031,-0.4433,-0.5035,-0.4634,-0.4834,-0.5534,-0.5436,-0.6431,-0.8825,-0.8425,-0.9114,-1.0806,-1.09,-1.0998,-1.1091,-1.1194,-1.1389,-1.1683,-1.1683,-1.1683,-1.1683,-1.1683,-1.1683,-1.1683,-1.1683,-1.1878,-1.2273,-1.2273,-1.2467,-1.2764,0.0,0.0,0.0,0.0,0.0,0.0,1.0924,0.9914,0.8929,0.8117,0.8038,0.8038,0.8038,0.8038,0.7942,0.7646,0.7341,0.0,0.0,0.0,0.0,0.0,0.0,0.0,0.0,0.0,0.6437,0.6437,0.6437,0.6437,0.6437,0.6437,0.6537,0.6842,0.0,0.0,0.0,0.0,0.0,0.0,0.0,0.0,0.0,0.0,0.0,0.0,0.0,0.0,0.0,0.0,0.0,0.0,0.0,0.9891,1.156,1.156,1.0087,0.9103,1.197,1.1282,1.0002,1.1585,1.1389,1.0605,0.9805,0.9019,0.8237,0.7743,0.7441,0.7138,0.6845,0.6342,0.5942,0.5636,0.4937,0.4137,0.3331,0.323,0.2827,0.1718,-0.0303,-0.1819,-0.2326,-0.3128,-0.3729,-0.3932,-0.4533,-0.5035,-0.5534,-0.5634,-0.5634,-0.5636,-0.6137,-0.7132,-0.8825,-0.8825,-0.9221,-1.0019,-1.0314,-1.0502,-1.0783,-1.1091,-1.1785,-1.2759,-1.2759,-1.2759,-1.2759,-1.2759,-1.2759,-1.2759,-1.2759,-1.2764,-1.2764,-1.2764,-1.2764,-1.2764,0.0,0.0,0.0,0.0,0.0,0.0,0.0,0.9522,0.828,0.8035,0.8038,0.7942,0.7743,0.7746,0.7547,0.7045,0.7141,0.0,0.0,0.0,0.0,0.0,0.0,0.0,0.0,0.0,0.6437,0.6437,0.6437,0.6437,0.6437,0.6437,0.6437,0.6539,0.7036,0.7829,0.0,0.0,0.0,0.0,0.0,0.0,1.2829,0.0,0.0,0.0,0.0,0.0,0.0,0.0,0.0,0.0,0.0,0.0,0.0,1.0194,0.9801,0.9505,1.0788,1.0685,1.0297,1.0993,1.0703,1.0113,0.9513,0.8726,0.8038,0.7646,0.7244,0.6839,0.6539,0.6137,0.5539,0.4836,0.4437,0.3831,0.2825,0.232,0.1614,0.0404,-0.1313,-0.2624,-0.3127,-0.363,-0.4232,-0.5035,-0.5233,-0.5534,-0.6137,-0.6137,-0.6137,-0.6137,-0.6337,-0.6933,-0.7928,-0.8134,-0.863,-0.9418,-0.9723,-1.031,-1.1091,-1.1194,-1.178,-1.2764,-1.2764,-1.2764,-1.2764,-1.2764,-1.2764,-1.2764,-1.2764,-1.2958,-1.3249,-1.3249,-1.3534,-1.3817,0.0,0.0,0.0,0.0,0.0,0.0,0.0,0.9118,0.7942,0.7842,0.7842,0.7743,0.7444,0.7444,0.7244,0.6842,0.6942,0.0,0.0,0.0,0.0,0.0,0.0,0.0,0.0,0.6437,0.6437,0.6437,0.6437,0.6437,0.6437,0.6437,0.6437,0.6437,0.6539,0.7036,0.0,0.0,0.0,0.0,0.0,0.0,1.1356,0.0,0.0,0.0,0.0,0.0,0.0,0.0,0.0,0.0,0.0,0.0,0.0,0.0,0.8517,0.8517,0.96,0.9399,0.9103,0.9809,0.9612,0.9019,0.8825,0.8233,0.7743,0.7344,0.6942,0.6539,0.6339,0.5837,0.5238,0.4539,0.4034,0.3328,0.2219,0.1412,0.0404,-0.111,-0.2522,-0.3429,-0.3627,-0.4232,-0.4834,-0.5536,-0.5837,-0.6034,-0.6337,-0.6437,-0.6437,-0.6437,-0.6437,-0.6836,-0.7733,-0.7939,-0.8333,-0.892,-0.9616,-1.0306,-1.1091,-1.1575,-1.236,-1.334,-1.334,-1.334,0.0,-1.334,-1.334,-1.334,-1.334,-1.3534,-1.3823,-1.3823,-1.4016,-1.4298,0.0,0.0,0.0,0.0,0.0,0.0,0.0,0.8726,0.7842,0.7646,0.7547,0.7444,0.7238,0.7138,0.7039,0.6842,0.0,0.0,0.0,0.0,0.0,0.0,0.0,0.0,0.0,0.6437,0.6437,0.6437,0.6437,0.6437,0.6437,0.6437,0.6437,0.6437,0.6437,0.6539,0.6842,0.0,0.0,0.0,0.9473,0.9661,0.0,0.0,0.0,0.0,0.0,0.0,0.0,0.0,0.0,0.0,0.0,0.0,0.0,0.0,0.0,0.0,0.0,0.7611,0.6722,0.8223,0.8021,0.7621,0.7836,0.7743,0.0,0.6845,0.6539,0.6237,0.6042,0.5541,0.4939,0.4438,0.3633,0.2826,0.1714,0.0504,-0.0808,-0.2522,-0.3632,-0.4133,-0.3728,-0.4832,-0.5636,-0.5634,-0.6137,-0.6437,-0.6437,-0.6437,-0.6437,-0.6437,-0.6437,-0.6936,-0.7942,-0.7939,-0.8137,-0.8333,-0.9702,-1.0489,-1.0877,-1.2145,-1.3318,-1.4298,-1.4298,-1.4298,-1.4298,-1.4298,-1.4298,-1.4298,-1.4298,-1.4298,-1.4298,-1.4298,-1.4298,-1.4298,0.0,0.0,0.0,0.0,0.0,0.0,0.0,0.0,0.0,0.0,0.7338,0.7241,0.6942,0.6942,0.6742,0.0,0.0,0.0,0.0,0.0,0.0,0.0,0.0,0.0,0.6437,0.6437,0.6437,0.6437,0.6437,0.6437,0.6437,0.6437,0.6437,0.6437,0.6437,0.6437,0.6537,0.7039,0.0,0.0,0.8434,0.8837,0.0,0.0,0.0,0.0,1.0646,1.0263,0.0,0.0,0.0,0.0,0.0,0.0,0.0,0.0,0.6628,0.4839,0.5434,0.0,0.5932,0.6528,0.6637,0.6642,0.0,0.6845,0.7054,0.6542,0.6239,0.5942,0.5441,0.4939,0.4338,0.3633,0.3128,0.2321,0.0908,-0.0907,-0.2217,-0.2422,-0.383,-0.4533,-0.4228,-0.5033,-0.5737,-0.6137,-0.6337,-0.6437,-0.6437,-0.6437,-0.6537,-0.6742,-0.6742,-0.6842,-0.7042,-0.7444,-0.7746,-0.7842,-0.9118,-1.0293,-1.117,-1.2242,-1.3318,-1.4298,-1.4298,-1.4298,-1.4298,-1.4298,-1.4298,-1.4298,-1.4298,-1.4298,-1.4298,-1.4298,-1.4298,-1.4298,0.0,0.0,0.0,0.0,0.0,0.0,0.0,0.0,0.0,0.0,0.0,0.6942,0.0,0.0,0.0,0.0,0.0,0.0,0.0,0.0,0.0,0.0,0.0,0.6437,0.6437,0.6437,0.6437,0.6437,0.6437,0.6437,0.6437,0.6437,0.6437,0.6437,0.6437,0.6407,0.6361,0.6462,0.6522,0.6551,0.7158,0.0,0.0,0.0,0.0,0.0,1.0909,1.0473,0.0,0.8792,0.8259,0.7925,0.0,0.0,0.0,0.0,0.6226,0.4338,0.3935,0.4033,0.4329,0.4929,0.5133,0.5338,0.5636,0.635,0.6859,0.6247,0.5942,0.5739,0.524,0.4024,0.3219,0.3432,0.2116,0.0805,-0.0202,-0.1514,-0.2521,-0.2924,-0.3929,-0.4732,-0.4933,-0.5534,-0.6137,-0.6337,-0.6437,-0.6437,-0.6539,-0.6539,-0.6739,-0.6942,-0.7141,-0.7144,-0.7144,-0.7447,-0.7643,-0.7842,-0.9509,-1.0685,-1.1268,-1.2732,-1.3709,-1.4298,-1.4298,-1.4298,-1.4298,-1.4298,-1.4298,-1.4298,-1.4298,-1.4298,-1.4298,-1.4298,-1.4298,-1.4298,0.0,0.0,0.0,0.0,0.0,0.0,0.0,0.0,0.0,0.0,0.0,0.0,0.0,0.0,0.0,0.0,0.0,0.0,0.0,0.0,0.0,0.0,0.0,0.6437,0.6437,0.6437,0.6437,0.6437,0.6437,0.6437,0.6437,0.6437,0.6437,0.6437,0.6437,0.6374,0.6268,0.6268,0.6246,0.6203,0.6194,0.0,0.0,0.0,0.0,0.0,0.0,0.0,0.0,0.922,0.8366,0.7502,0.8319,0.0,0.0,0.0,0.0,0.0,0.3531,0.2825,0.2622,0.3725,0.3827,0.4031,0.514,0.6152,0.6662,0.5952,0.5741,0.5434,0.473,0.3114,0.221,0.3025,0.0905,-0.1006,-0.1615,-0.2121,-0.2725,-0.3629,-0.4331,-0.4933,-0.5436,-0.6037,-0.6437,-0.6437,-0.6437,-0.6539,-0.6745,-0.6842,-0.6942,-0.7238,-0.7444,-0.7646,-0.7643,-0.7643,-0.7842,-0.8233,-1.0293,-1.1268,-1.1463,-1.342,-1.4298,-1.4298,-1.4298,0.0,-1.4298,-1.4298,-1.4298,-1.4298,-1.4298,-1.4298,-1.4298,-1.4298,-1.4298,-1.4298,0.0,0.0,0.0,0.0,0.0,0.0,0.0,0.0,0.0,0.0,0.0,0.0,0.0,0.0,0.0,0.0,0.0,0.0,0.0,0.0,0.0,0.6437,0.6437,0.6437,0.6437,0.6437,0.6437,0.6437,0.6437,0.6437,0.6437,0.6437,0.6437,0.6437,0.6437,0.6374,0.6268,0.6268,0.6149,0.5958,0.6219,0.0,0.0,0.0,0.0,0.0,0.0,0.0,0.0,0.8898,0.7617,0.6304,0.7394,0.0,0.0,0.0,0.0,0.0,0.3925,0.3123,0.2622,0.3426,0.3522,0.3621,0.4937,0.5851,0.6358,0.5741,0.5636,0.4924,0.2607,0.2917,0.2722,0.0503,-0.0503,-0.1713,-0.353,-0.4133,-0.4332,-0.4329,-0.5334,-0.5837,-0.5338,-0.5937,-0.6437,-0.6437,-0.6639,-0.6742,-0.6845,-0.7042,-0.7241,-0.7543,-0.7547,-0.7743,-0.7942,-0.7942,-0.8432,-0.941,-1.0587,-1.1658,-1.2533,-1.3709,-1.4298,-1.4298,0.0,-1.4298,-1.4298,-1.4298,-1.4298,-1.4298,-1.4298,-1.4298,-1.4298,-1.4298,-1.4298,-1.4298,0.0,0.0,0.0,0.0,0.0,0.0,0.0,0.0,0.0,0.0,0.0,0.0,0.0,0.0,0.0,0.0,0.0,0.0,0.0,0.0,0.0,0.6437,0.6437,0.6437,0.6437,0.6437,0.6437,0.6437,0.6437,0.6437,0.6437,0.6437,0.6404,0.6344,0.6344,0.6279,0.6165,0.6292,0.6197,0.6084,0.0,0.0,0.0,0.0,0.0,0.0,0.0,0.0,0.0,0.0,0.7472,0.6265,0.7198,0.0,0.0,0.0,0.0,0.0,0.3624,0.3525,0.3525,0.3624,0.3122,0.3022,0.444,0.4338,0.4236,0.5039,0.5039,0.4227,0.2005,0.1203,0.0,-0.2611,-0.2317,-0.2119,-0.3528,-0.3828,-0.413,-0.4734,-0.5338,-0.5739,-0.5839,-0.6137,-0.6437,-0.6437,-0.6642,-0.6842,-0.7042,-0.7241,-0.754,-0.7842,-0.7842,-0.7842,-0.8038,-0.8531,-0.9118,-0.9608,-1.1268,-1.2242,-1.2732,-1.3806,-1.4298,-1.4298,0.0,-1.4298,-1.4298,-1.4298,-1.4298,-1.4298,-1.4298,-1.4298,-1.4298,-1.4298,-1.4298,-1.4298,0.0,0.0,0.0,0.0,0.0,0.0,0.0,0.0,0.0,0.0,0.0,0.0,0.0,0.0,0.0,0.0,0.0,0.0,0.0,0.0,0.6337,0.6437,0.6337,0.6337,0.6437,0.6437,0.6437,0.6437,0.6437,0.6437,0.6437,0.6437,0.6391,0.6306,0.6279,0.62,0.6078,0.6239,0.6259,0.6221,0.0,0.0,0.0,0.0,0.0,0.0,0.0,0.0,0.0,0.0,0.0,0.0,0.0,0.0,0.0,0.5829,0.5125,0.4325,0.3925,0.4128,0.4429,0.4323,0.3723,0.3327,0.3937,0.343,0.3126,0.4237,0.4438,0.3726,0.1605,-0.0901,-0.3008,-0.4123,-0.3226,-0.2625,-0.3426,-0.3525,-0.4029,-0.5338,-0.5438,-0.5739,-0.6337,-0.6437,-0.6437,-0.6437,-0.6642,-0.6942,-0.7138,-0.7444,-0.7746,-0.8038,-0.8038,-0.8137,-0.8333,-0.941,-0.9998,-0.9998,-1.1853,-1.2829,-1.3119,-1.3902,-1.4298,-1.4298,-1.4298,-1.4298,-1.4298,-1.4298,-1.4298,-1.4298,-1.4298,-1.4298,-1.4298,-1.4298,-1.4298,-1.4298,0.0,0.0,0.0,0.0,0.0,0.0,0.0,0.0,0.0,0.0,0.0,0.0,0.0,0.0,0.0,0.0,0.0,0.0,0.0,0.0,0.6139,0.6437,0.6139,0.6139,0.6437,0.6437,0.6437,0.6437,0.6437,0.6437,0.6437,0.6437,0.6431,0.642,0.6314,0.62,0.6078,0.6239,0.6207,0.6186,0.6618,0.0,0.0,0.0,0.0,0.0,0.0,0.0,0.0,0.0,0.0,0.0,0.0,0.0,0.6337,0.6334,0.6132,0.5829,0.5534,0.5135,0.5035,0.5934,0.6337,0.5937,0.3726,0.4131,0.4736,0.383,0.4033,0.3425,0.0602,-0.3017,-0.4744,-0.2218,-0.232,-0.3127,-0.4533,-0.4734,-0.5135,-0.6137,-0.6337,-0.6337,-0.6437,-0.6437,-0.6437,-0.6437,-0.6642,-0.6942,-0.7138,-0.7444,-0.7746,-0.8038,-0.8038,-0.8432,-0.9509,-1.0583,-1.1072,-1.1077,-1.2145,-1.3221,-1.4202,-1.4298,-1.4298,-1.4298,-1.4298,-1.4298,-1.4298,-1.4298,-1.4298,-1.4298,-1.4298,-1.4298,-1.4298,-1.4298,-1.4298,-1.4298,0.0,0.0,0.0,0.0,0.0,0.0,0.0,0.0,0.0,0.0,0.0,0.0,0.0,0.0,0.0,0.0,0.0,0.0,0.0,0.6037,0.5839,0.6139,0.5939,0.5839,0.6139,0.6337,0.6437,0.6437,0.6437,0.6437,0.6437,0.6437,0.6437,0.6429,0.6238,0.613,0.6072,0.6153,0.6129,0.6171,0.7048,0.7397,0.0,0.0,0.0,0.0,0.0,0.0,0.0,0.0,0.6642,0.5894,0.5751,0.5694,0.5632,0.5429,0.5529,0.5734,0.5634,0.4626,0.382,0.4924,0.5024,0.4628,0.4031,0.3426,0.3124,0.3729,0.353,0.3024,0.2112,-0.1908,-0.4834,-0.3528,-0.3429,-0.3831,-0.4634,-0.4834,-0.5236,-0.6237,-0.6437,-0.6437,-0.6437,-0.6437,-0.6437,-0.6437,-0.6642,-0.6842,-0.6942,-0.7241,-0.7441,-0.7537,-0.8329,-0.892,-0.9312,-1.117,-1.2145,-1.2145,-1.3221,-1.3908,-1.4298,-1.4298,-1.4298,-1.4298,-1.4298,-1.4298,-1.4298,-1.4298,-1.4298,-1.4298,-1.4298,-1.4298,-1.4298,-1.4298,-1.4298,-1.4298,0.0,0.0,0.0,0.0,0.0,0.0,0.0,0.0,0.0,0.0,0.0,0.0,0.0,0.0,0.0,0.0,0.0,0.0,0.6237,0.5737,0.5636,0.5839,0.5639,0.5639,0.5839,0.6037,0.6237,0.6237,0.6237,0.6137,0.6137,0.6137,0.6237,0.6229,0.6096,0.5992,0.607,0.6102,0.6257,0.6612,0.7482,0.7921,0.0,0.0,0.0,0.0,0.0,0.0,0.0,0.0,0.6321,0.5787,0.532,0.5171,0.5229,0.5527,0.5325,0.4922,0.4822,0.3815,0.281,0.3008,0.3111,0.3215,0.3222,0.2822,0.2622,0.3127,0.2623,0.1917,0.1409,-0.1707,-0.4123,-0.393,-0.4031,-0.4232,-0.4535,-0.4734,-0.5135,-0.6034,-0.6337,-0.6437,-0.6437,-0.6437,-0.6437,-0.6437,-0.6539,-0.6742,-0.6845,-0.7241,-0.7537,-0.7537,-0.8726,-0.9517,-0.9809,-1.1468,-1.2446,-1.2737,-1.3619,-1.4106,-1.4298,-1.4298,-1.4298,-1.4298,-1.4298,-1.4298,-1.4298,-1.4298,-1.4298,-1.4298,-1.4298,-1.4298,-1.4298,-1.4298,-1.4298,-1.4298,0.0,0.0,0.0,0.0,0.0,0.0,0.0,0.0,0.0,0.0,0.0,0.0,0.0,0.0,0.0,0.0,0.0,0.0,0.6042,0.5541,0.5338,0.5534,0.5338,0.5338,0.5634,0.5634,0.5737,0.6042,0.5737,0.5636,0.5636,0.5636,0.5737,0.6032,0.5812,0.5805,0.607,0.6102,0.6612,0.7489,0.7746,0.8273,0.8978,0.0,0.0,0.0,0.0,0.0,0.0,0.0,0.5778,0.5879,0.5601,0.5366,0.5432,0.6836,0.5515,0.3604,0.3303,0.3006,0.2304,0.05,0.12,0.2005,0.0804,0.2416,0.3732,0.1919,0.1111,0.0101,-0.2215,-0.2715,-0.2815,-0.3122,-0.3827,-0.4331,-0.4033,-0.4433,-0.5035,-0.5536,-0.6034,-0.6437,-0.6437,-0.6437,-0.6437,-0.6437,-0.6437,-0.6539,-0.6745,-0.754,-0.8137,-0.8432,-0.9229,-1.0117,-1.1194,-1.1194,-1.178,-1.2764,-1.3249,-1.3727,-1.4298,-1.4298,-1.4298,-1.4298,-1.4298,-1.4298,-1.4298,-1.4298,-1.4298,-1.4298,-1.4298,-1.4298,-1.4298,-1.4298,-1.4298,-1.4298,0.0,0.0,0.0,0.0,0.0,0.0,0.0,0.0,0.0,0.0,0.0,0.0,0.0,0.0,0.0,0.0,0.0,0.0,0.5942,0.5338,0.5037,0.5338,0.5037,0.5037,0.5338,0.5338,0.5438,0.5737,0.5636,0.5636,0.5636,0.5636,0.5636,0.5729,0.5714,0.5713,0.5792,0.5833,0.5997,0.6349,0.7753,0.8452,0.8715,0.0,0.0,0.0,0.0,0.0,0.0,0.0,0.0,0.0,0.5036,0.4785,0.4533,0.5539,0.5732,0.5522,0.5522,0.3507,0.1502,0.1903,0.0301,-0.1205,-0.1006,0.0604,0.1509,-0.0604,-0.1509,-0.1909,-0.1408,-0.3016,-0.4124,-0.3024,-0.3726,-0.4331,-0.4033,-0.4133,-0.4533,-0.5534,-0.5734,-0.5934,-0.6334,-0.6437,-0.6437,-0.6437,-0.6437,-0.6637,-0.7335,-0.7633,-0.8031,-0.8627,-0.9805,-1.0592,-1.0886,-1.1873,-1.2467,-1.2764,-1.2958,-1.3249,-1.3732,-1.4106,-1.4298,-1.4298,-1.4298,-1.4298,-1.4298,-1.4298,-1.4298,-1.4298,-1.4298,-1.4112,-1.3727,-1.3727,-1.3534,-1.3244,0.0,0.0,0.0,0.0,0.0,0.0,0.0,0.0,0.0,0.0,0.6437,0.6337,0.0,0.0,0.0,0.6137,0.5737,0.0,0.5641,0.5138,0.4834,0.5037,0.4935,0.4834,0.5037,0.5037,0.5138,0.5236,0.5236,0.5236,0.5236,0.5236,0.5336,0.5429,0.5422,0.5521,0.57,0.5652,0.5819,0.6349,0.7929,0.8719,0.9157,0.0,0.0,0.0,0.0,0.0,0.0,0.0,0.0,0.0,0.5133,0.4789,0.4435,0.4225,0.4014,0.3704,0.2801,0.09,-0.0901,-0.0901,-0.2005,-0.3013,-0.2512,-0.0905,-0.0302,-0.2918,-0.4329,-0.4528,-0.2714,-0.4221,-0.5135,-0.353,-0.3929,-0.423,-0.3732,-0.3833,-0.4234,-0.4935,-0.5135,-0.5534,-0.6037,-0.6037,-0.6137,-0.6337,-0.6734,-0.7132,-0.7531,-0.8226,-0.8825,-0.9221,-1.04,-1.0984,-1.0984,-1.1775,-1.2175,-1.2175,-1.237,-1.2662,-1.2953,-1.3437,-1.3721,-1.3721,-1.3721,-1.3721,-1.3721,-1.3721,-1.3721,-1.3721,-1.3721,-1.3534,-1.3249,-1.3249,-1.3346,-1.3437,0.0,0.0,1.0485,0.8418,0.0,0.0,0.0,0.0,0.0,0.6437,0.6337,0.6237,0.0,0.0,0.0,0.5636,0.5338,0.524,0.524,0.4937,0.4834,0.4834,0.4834,0.4834,0.4834,0.4834,0.4834,0.4834,0.4834,0.4834,0.4834,0.4834,0.4937,0.5131,0.4936,0.5138,0.5698,0.5559,0.6169,0.7228,0.8193,0.9157,0.9859,0.9951,0.0,0.0,0.0,0.0,0.0,0.0,0.0,0.0,0.5623,0.5384,0.4935,0.3512,0.1701,-0.01,-0.2099,-0.3104,-0.4014,-0.5727,-0.492,-0.3714,-0.3613,-0.2212,-0.1813,-0.4634,-0.6667,-0.7381,-0.5331,-0.5737,-0.5944,-0.4334,-0.423,-0.413,-0.343,-0.3632,-0.3932,-0.4033,-0.4535,-0.5035,-0.5636,-0.5634,-0.5934,-0.6537,-0.7033,-0.7431,-0.763,-0.9023,-0.9821,-0.9916,-1.0703,-1.1194,-1.1194,-1.1194,-1.1194,-1.1194,-1.1688,-1.1883,-1.198,-1.2565,-1.2764,-1.2764,-1.2764,-1.2764,-1.2764,-1.2764,-1.2764,-1.2764,-1.2764,-1.2764,-1.2759,-1.2856,-1.3431,-1.4196,0.0,0.0,1.0485,0.8418,0.0,0.0,0.0,0.0,0.6437,0.6437,0.6239,0.6039,0.6042,0.5839,0.0,0.5636,0.5338,0.524,0.524,0.4937,0.4834,0.4834,0.4834,0.4834,0.4834,0.4834,0.4834,0.4834,0.4834,0.4834,0.4834,0.4834,0.4834,0.4926,0.4936,0.5041,0.541,0.6184,0.6694,0.7228,0.8894,0.9501,0.941,0.9859,0.9781,0.0,0.0,0.0,0.0,0.0,0.0,0.0,0.6192,0.5831,0.5238,0.5529,0.4109,0.24,0.19,-0.07,-0.3404,-0.3806,-0.442,-0.4832,-0.3927,-0.3024,-0.272,-0.4016,-0.6132,-0.725,-0.6029,-0.6232,-0.6334,-0.5131,-0.463,-0.4329,-0.413,-0.3731,-0.3531,-0.3932,-0.4834,-0.5636,-0.6137,-0.6237,-0.6637,-0.7537,-0.6234,-0.6032,-0.7531,-0.8124,-0.8715,-0.9399,-1.0596,-1.1194,-1.1194,-1.1194,-1.1194,-1.1194,-1.1292,-1.1389,-1.1389,-1.237,-1.2764,-1.2764,-1.2764,-1.2764,-1.2764,-1.2764,-1.2764,-1.2764,-1.2764,-1.2565,-1.2273,-1.3039,-1.3227,-1.3119,0.0,0.0,0.0,0.0,0.0,0.0,0.0,0.0,0.6958,0.7521,0.6537,0.5939,0.6139,0.5739,0.0,0.0,0.5099,0.4976,0.4976,0.4833,0.4728,0.4773,0.4812,0.4834,0.4834,0.4834,0.4834,0.4834,0.4834,0.4834,0.4834,0.4834,0.4834,0.4826,0.4745,0.523,0.5968,0.6445,0.7041,0.7929,0.9331,0.9589,0.9235,0.9772,0.9689,0.917,0.838,0.0,0.0,0.0,0.0,0.0,0.0,0.0,0.5534,0.442,0.361,0.2603,0.05,-0.17,-0.3607,-0.4512,-0.5331,-0.5749,-0.5135,-0.3726,-0.3021,-0.4826,-0.5729,-0.6232,-0.6029,-0.6229,-0.6129,-0.5329,-0.4929,-0.463,-0.423,-0.3831,-0.3531,-0.3429,-0.383,-0.4331,-0.5135,-0.5133,-0.5434,-0.6437,-0.5834,-0.6032,-0.7531,-0.812,-0.881,-0.9702,-1.0404,-1.0806,-1.0806,-1.0806,-1.0806,-1.0806,-1.0806,-1.09,-1.0998,-1.1683,-1.2078,-1.2078,-1.2078,-1.2078,-1.2078,-1.2078,-1.2078,-1.2078,-1.2078,-1.217,-1.2355,-1.2931,-1.3596,-1.4262,0.0,0.0,0.0,0.0,0.0,0.0,0.0,0.0,0.0,0.8609,0.7033,0.6134,0.6534,0.5937,0.5432,0.0,0.0,0.0,0.5074,0.501,0.5012,0.5092,0.5185,0.5236,0.5236,0.5035,0.5035,0.5035,0.4834,0.4826,0.4814,0.4826,0.4834,0.4826,0.4651,0.5325,0.662,0.6619,0.7386,0.8715,0.9767,0.9854,0.9414,0.9859,0.9625,0.9046,0.8251,0.7818,0.759,0.7165,0.0,0.0,0.0,0.0,0.5729,0.3112,0.2509,0.2004,-0.16,-0.3106,-0.4016,-0.5934,-0.6353,-0.6358,-0.6039,-0.4225,-0.3323,-0.5548,-0.5541,-0.5329,-0.5934,-0.6134,-0.6032,-0.5432,-0.5334,-0.5035,-0.4332,-0.4133,-0.3731,-0.3128,-0.3126,-0.3527,-0.4232,-0.4331,-0.463,-0.5534,-0.5929,-0.6528,-0.763,-0.8315,-0.911,-1.0015,-1.031,-1.0413,-1.0413,-1.0413,-1.0413,-1.0413,-1.0413,-1.0511,-1.0708,-1.0998,-1.1096,-1.1194,-1.1194,-1.1194,-1.1194,-1.1194,-1.1292,-1.1487,-1.1389,-1.2063,-1.2926,-1.3022,-1.4172,-1.5704,0.0,0.0,0.0,0.0,0.0,0.0,0.0,0.0,0.0,0.0,0.7633,0.7332,0.7431,0.7135,0.6892,0.6677,0.6654,0.6599,0.6398,0.0,0.0,0.6643,0.6767,0.6836,0.6836,0.6239,0.5842,0.5842,0.5135,0.4796,0.4728,0.48,0.4834,0.4826,0.4651,0.514,0.6158,0.7155,0.8173,0.9235,1.0554,1.0651,0.9859,0.9951,0.9358,0.8517,0.8163,0.7714,0.7205,0.7047,0.6529,0.0,0.0,0.0,0.5634,0.5231,0.3815,0.2305,0.1803,-0.0901,-0.4017,-0.5949,-0.6361,-0.5957,-0.4535,-0.383,-0.3828,-0.4531,-0.5438,-0.625,-0.6356,-0.6856,-0.6951,-0.5939,-0.5851,-0.5653,-0.5133,-0.4433,-0.3932,-0.3831,-0.5434,-0.6334,-0.5832,-0.6528,-0.7627,-0.8829,-0.7322,-0.6822,-0.7922,-0.8315,-0.8513,-0.8612,-0.9809,-1.0413,-1.0413,-1.0413,-1.0413,-1.0413,-1.0413,-1.0413,-1.0413,-1.0511,-1.0801,-1.1194,-1.1194,-1.1194,-1.1194,-1.1194,-1.1673,-1.2441,-1.2262,-1.2851,-1.3806,-1.4472,-1.4956,-1.5337,0.0,0.0,0.0,0.0,0.0,0.0,0.0,0.0,0.0,0.0,0.0,0.7534,0.8031,0.7534,0.7183,0.7046,0.696,0.6829,0.6533,0.6801,0.6917,0.6917,0.7049,0.7122,0.7122,0.6663,0.6435,0.6435,0.5654,0.5439,0.5782,0.5057,0.488,0.5259,0.474,0.5733,0.7934,0.797,0.9089,1.0826,1.0646,1.0399,1.013,0.9435,0.8836,0.8382,0.8295,0.7778,0.7248,0.7024,0.6508,0.5976,0.5824,0.0,0.0,0.0,0.4728,0.3414,0.1002,-0.1802,-0.4416,-0.6142,-0.6556,-0.615,-0.5436,-0.5244,-0.5352,-0.5445,-0.5952,-0.6456,-0.6553,-0.6851,-0.7048,-0.6639,-0.6748,-0.655,-0.5732,-0.5432,-0.5135,-0.4732,-0.5329,-0.5829,-0.5732,-0.6229,-0.6825,-0.7528,-0.6725,-0.6625,-0.7726,-0.7925,-0.8223,-0.8825,-0.9525,-0.992,-0.992,-0.992,-0.992,-0.992,-1.0117,-1.0216,-1.0216,-1.0314,-1.0511,-1.0703,-1.0703,-1.1096,-1.1688,-1.1688,-1.2257,-1.3119,-1.3033,-1.3613,-1.4573,-1.4956,-1.5439,-1.6008,0.0,0.0,0.0,0.0,0.0,0.0,0.0,0.0,0.0,0.0,0.0,0.8035,0.863,0.0,0.0,0.0,0.7459,0.727,0.6982,0.7197,0.7336,0.7336,0.7478,0.7558,0.7558,0.7171,0.7026,0.7026,0.6267,0.6158,0.6692,0.5568,0.5457,0.6073,0.5097,0.6311,0.8898,0.845,0.947,1.14,1.0419,1.0067,0.9998,0.9142,0.8682,0.8455,0.8438,0.7934,0.7384,0.7095,0.6566,0.5839,0.5636,0.5534,0.0,0.0,0.0,0.4327,0.0601,-0.1703,-0.3509,-0.5525,-0.6037,-0.6042,-0.6439,-0.6453,-0.6364,-0.6358,-0.6356,-0.6453,-0.6645,-0.6745,-0.6648,-0.6642,-0.6742,-0.6642,-0.6132,-0.6132,-0.6134,-0.5532,-0.5527,-0.5729,-0.5934,-0.6126,-0.6426,-0.6728,-0.6728,-0.7027,-0.7829,-0.7928,-0.8329,-0.9133,-0.943,-0.9529,-0.9529,-0.943,-0.943,-0.9529,-0.9723,-0.9821,-0.992,-1.0117,-1.031,-1.06,-1.0703,-1.1292,-1.1975,-1.2268,-1.2937,-1.3896,-1.3806,-1.4478,-1.5343,-1.5343,-1.5724,-1.64,0.0,0.0,0.0,0.0,0.0,0.0,0.0,0.0,0.0,0.0,0.0,0.9529,0.9529,0.9529,0.9389,0.9047,0.9007,0.8854,0.85,0.8645,0.8741,0.8741,0.8918,0.0,0.9015,0.8254,0.7872,0.7872,0.7026,0.6584,0.6645,0.6554,0.6847,0.734,0.6028,0.6265,0.7727,0.8016,0.8755,0.9624,0.9883,0.9828,0.9534,0.9457,0.9109,0.8718,0.8611,0.8188,0.7521,0.7325,0.6531,0.5636,0.5636,0.5233,0.4834,0.0,0.0,0.0,0.241,0.1406,0.01,-0.3307,-0.4318,-0.4933,-0.6439,-0.6542,-0.6437,-0.6437,-0.6437,-0.6437,-0.6437,-0.645,-0.6057,-0.5046,-0.4945,-0.5242,-0.5932,-0.6029,-0.6132,-0.6334,-0.7235,-0.7534,-0.683,-0.763,-0.8329,-0.8627,-0.8623,-0.8726,-0.8726,-0.8726,-0.8928,-0.9236,-0.9236,-0.9232,-0.9232,-0.8928,-0.8928,-0.9232,-0.9236,-0.9335,-0.9628,-0.9628,-1.0207,-1.1175,-1.1678,-1.198,-1.2078,-1.3033,-1.4088,-1.4956,-1.4783,-1.5261,-1.6123,-1.5832,-1.5832,-1.5825,0.0,0.0,0.0,0.0,0.0,0.0,0.0,0.0,0.0,0.0,0.0,0.0,0.0,0.9352,0.919,0.8942,0.882,0.8702,0.8576,0.8727,0.882,0.882,0.8885,0.0,0.8922,0.854,0.8305,0.8305,0.7573,0.7455,0.7853,0.6508,0.6659,0.812,0.6305,0.6728,0.8808,0.8114,0.8729,1.0182,0.9466,0.9315,0.9461,0.8758,0.8377,0.8171,0.8332,0.7808,0.7039,0.6942,0.6337,0.5636,0.5636,0.5236,0.4834,0.4834,0.4331,0.3321,0.1305,0.0602,-0.0201,-0.2605,-0.371,-0.4216,-0.462,-0.5627,-0.6437,-0.6437,-0.6437,-0.6437,-0.6437,-0.6442,-0.6245,-0.5839,-0.5942,-0.6142,-0.6439,-0.6839,-0.7042,-0.7141,-0.764,-0.7839,-0.7633,-0.8035,-0.8432,-0.8531,-0.8528,-0.8528,-0.8528,-0.8528,-0.863,-0.8733,-0.8829,-0.8928,-0.8928,-0.8825,-0.8825,-0.8928,-0.9133,-0.962,-1.0395,-1.0592,-1.1175,-1.2242,-1.313,-1.3522,-1.3522,-1.3908,-1.458,-1.554,-1.5445,-1.5642,-1.5927,-1.5832,-1.5832,-1.5832,0.0,0.0,0.0,0.0,0.0,0.0,0.0,0.0,0.0,0.0,0.0,0.0,0.0,0.0,0.9023,0.8836,0.8666,0.8568,0.8568,0.8674,0.8735,0.8735,0.8735,0.0,0.8735,0.8625,0.8568,0.8568,0.8116,0.8116,0.8564,0.7146,0.7234,0.8568,0.6877,0.7282,0.9178,0.8278,0.8741,1.0007,0.9025,0.9001,0.9379,0.8482,0.8186,0.8255,0.8412,0.795,0.7341,0.7341,0.6739,0.5937,0.5937,0.5133,0.423,0.3827,0.3224,0.2316,0.0905,0.0402,-0.0201,-0.1906,-0.2909,-0.3612,-0.4216,-0.5327,-0.6339,-0.6537,-0.6539,-0.6539,-0.6437,-0.6437,-0.6437,-0.6437,-0.6539,-0.6742,-0.6745,-0.7144,-0.7347,-0.7444,-0.764,-0.7739,-0.7739,-0.7939,-0.8137,-0.8137,-0.8237,-0.8233,-0.8233,-0.8233,-0.8333,-0.8432,-0.8531,-0.8825,-0.9217,-0.9118,-0.9316,-0.9706,-0.9912,-1.0404,-1.1179,-1.1375,-1.2058,-1.3119,-1.3902,-1.4202,-1.4298,-1.4682,-1.5159,-1.5832,-1.5832,-1.5832,-1.5832,-1.5832,-1.5832,-1.5832,0.0,0.0,0.0,0.0,0.0,0.0,0.0,0.0,0.0,1.0696,0.0,0.0,0.0,0.0,0.0,0.8828,0.8662,0.8568,0.8568,0.8568,0.8568,0.8568,0.8568,0.8568,0.8568,0.8568,0.8568,0.8568,0.8568,0.8568,0.8568,0.8568,0.8568,0.8564,0.7845,0.7937,0.8568,0.8568,0.8662,0.88,0.8633,0.8771,0.908,0.8792,0.8804,0.8883,0.8754,0.8517,0.8326,0.8333,0.7637,0.6642,0.6337,0.483,0.2922,0.1915,0.1613,0.1513,0.0,0.0,0.0,-0.1206,-0.2011,-0.3019,-0.5325,-0.5934,-0.6142,-0.6645,-0.6742,-0.6642,-0.6437,-0.6437,-0.6437,-0.6437,-0.6437,-0.6537,-0.6742,-0.6845,-0.6942,-0.7138,-0.7238,-0.7238,-0.7238,-0.7444,-0.7646,-0.7646,-0.7842,-0.8041,-0.8038,-0.8038,-0.8237,-0.8432,-0.8531,-0.9019,-0.9998,-0.9805,-1.0293,-1.156,-1.156,-1.1765,-1.2078,-1.2078,-1.2748,-1.3908,-1.3908,-1.41,-1.4394,-1.5445,-1.5832,-1.5832,-1.5832,-1.5832,-1.5832,-1.5832,-1.5832,-1.5832,0.0,0.0,0.0,0.0,0.0,0.0,1.2188,0.0,1.1754,0.0,0.0,0.0,0.9436,0.8964,0.8694,0.8641,0.8597,0.8568,0.8568,0.8568,0.8568,0.8568,0.8568,0.8568,0.8568,0.8568,0.8568,0.8568,0.8568,0.8568,0.8568,0.8028,0.8116,0.8564,0.7845,0.7937,0.8564,0.8025,0.8143,0.8633,0.8584,0.8625,0.8714,0.8621,0.8178,0.7598,0.756,0.7009,0.6328,0.6517,0.5639,0.4331,0.3222,0.2518,0.2017,0.1714,0.1008,0.0403,0.0403,0.0,0.0,0.0,0.0,0.0,-0.2614,-0.3822,-0.5033,-0.5737,-0.5937,-0.6037,-0.6337,-0.6437,-0.6437,-0.6437,-0.6437,-0.6537,-0.6742,-0.6845,-0.6942,-0.7138,-0.7238,-0.7238,-0.7444,-0.7547,-0.7646,-0.7842,-0.7942,-0.8333,-0.9118,-0.9903,-1.0391,-1.0386,-1.0391,-1.0587,-1.0877,-1.0779,-1.0974,-1.1268,-1.1463,-1.2052,-1.2834,-1.3033,-1.3715,-1.479,-1.4968,-1.5064,-1.5159,-1.5635,-1.5832,-1.5832,-1.5832,-1.5832,-1.5832,-1.5832,-1.5832,-1.592,0.0,0.0,1.1082,1.0297,0.0,1.161,1.1384,1.1716,1.1685,0.0,0.0,0.0,0.9509,0.8886,0.8568,0.8568,0.8568,0.8568,0.8568,0.8568,0.8568,0.8568,0.8568,0.8568,0.8568,0.8568,0.8568,0.8568,0.8568,0.8476,0.8116,0.8025,0.8025,0.8116,0.7669,0.7937,0.8564,0.7845,0.7757,0.8204,0.8476,0.8432,0.8317,0.8496,0.7963,0.728,0.7272,0.673,0.6081,0.6555,0.5103,0.2818,0.2116,0.1513,0.0806,0.0403,-0.0201,-0.0698,-0.0698,-0.0694,-0.0592,-0.0696,0.0,0.0,-0.271,-0.3823,-0.5035,-0.6034,-0.6237,-0.6337,-0.6337,-0.6537,-0.6539,-0.6437,-0.6634,-0.6836,-0.6639,-0.6639,-0.6839,-0.7335,-0.7335,-0.7633,-0.8333,-0.8531,-0.8726,-0.9118,-0.9312,-0.9509,-0.9899,-1.0489,-1.0877,-1.0877,-1.0877,-1.117,-1.1853,-1.1853,-1.2047,-1.2538,-1.2635,-1.3028,-1.3607,-1.3806,-1.4202,-1.4987,-1.5267,-1.5356,-1.554,-1.5737,-1.5832,-1.5832,-1.5832,-1.5832,-1.5832,-1.5832,-1.6109,-1.6487,0.0,0.0,0.9341,0.9064,0.9868,1.0543,1.0249,1.1028,1.1404,0.0,1.0636,1.0294,0.9432,0.9003,0.8656,0.8656,0.8656,0.8568,0.8568,0.8568,0.8568,0.8568,0.8568,0.8568,0.8568,0.8568,0.8568,0.8568,0.8476,0.8116,0.7489,0.8116,0.8028,0.7489,0.7401,0.776,0.8476,0.7757,0.7401,0.7312,0.812,0.8209,0.7793,0.8068,0.7879,0.7443,0.7363,0.6982,0.6517,0.7224,0.4935,0.2004,0.2105,0.1105,-0.0302,-0.1307,-0.159,-0.157,-0.1665,-0.1547,-0.1533,-0.1657,-0.2055,0.0,-0.4184,-0.4702,-0.5304,-0.6594,-0.6804,-0.6716,-0.6315,-0.6431,-0.6539,-0.6237,-0.6933,-0.7332,-0.6637,-0.6634,-0.6933,-0.773,-0.773,-0.8223,-0.9509,-0.9805,-1.0194,-1.0681,-1.1077,-1.0979,-1.0489,-1.0587,-1.0685,-1.0685,-1.0685,-1.1365,-1.2732,-1.2829,-1.3318,-1.4298,-1.4298,-1.4298,-1.4298,-1.4298,-1.4394,-1.4688,-1.4981,-1.5267,-1.5635,-1.5825,-1.5825,-1.5832,-1.5832,-1.5825,-1.6015,-1.6015,-1.6574,-1.7512,0.8506,0.8839,0.8874,0.7876,0.9125,1.0239,1.0036,1.0799,1.1316,1.1181,1.0814,1.0376,0.9951,0.9432,0.9174,0.9174,0.8828,0.8568,0.8568,0.8568,0.8568,0.8568,0.8568,0.8568,0.8568,0.8568,0.8568,0.8568,0.8025,0.7669,0.7489,0.7051,0.7048,0.7489,0.6871,0.7048,0.7669,0.7577,0.6871,0.5902,0.7228,0.7687,0.7535,0.7002,0.6754,0.6613,0.6079,0.5485,0.4778,0.4561,0.2905,0.0787,0.0968,0.0197,-0.0803,-0.1363,-0.1557,-0.1664,-0.1831,-0.1818,-0.1814,-0.1821,-0.2014,0.0,-0.2697,-0.2987,-0.3369,-0.4328,-0.4578,-0.4626,-0.5018,-0.5083,-0.5135,-0.5135,-0.6132,-0.7132,-0.7637,-0.8031,-0.8425,-0.8821,-0.8722,-0.8916,-0.9801,-0.9608,-0.9706,-1.0386,-1.089,-1.1189,-1.1091,-1.1873,-1.2365,-1.2365,-1.2657,-1.3044,-1.334,-1.3811,-1.41,-1.4298,-1.4298,-1.4298,-1.4298,-1.4298,-1.4298,-1.4394,-1.4688,-1.5343,-1.6358,-1.656,-1.6386,-1.5832,-1.5832,-1.6298,-1.7052,-1.7052,-1.7598,-1.8603,0.7595,0.7557,0.7326,0.6644,0.7692,0.8823,0.917,0.9593,1.0212,1.1176,1.0906,1.0549,1.0294,0.9951,0.9607,0.9607,0.9432,0.9262,0.9262,0.9262,0.9174,0.9003,0.9174,0.9087,0.8568,0.8472,0.8296,0.8028,0.7316,0.6782,0.6432,0.6432,0.6605,0.6959,0.6254,0.652,0.7489,0.6782,0.6254,0.5988,0.7048,0.7048,0.6432,0.6428,0.6166,0.5819,0.552,0.5307,0.4818,0.3589,0.268,0.1929,0.1242,0.0097,-0.1174,-0.1439,-0.1526,-0.1618,-0.1696,-0.1679,-0.167,-0.1687,-0.1973,0.0,0.0,-0.2858,-0.3333,-0.4091,-0.4218,-0.4246,-0.4634,-0.461,-0.4666,-0.4767,-0.609,-0.7425,-0.7928,-0.8428,-0.9023,-0.9517,-0.9521,-0.9813,-1.089,-1.0792,-1.089,-1.1575,-1.1878,-1.1883,-1.159,-1.2078,-1.237,-1.237,-1.2662,-1.2856,-1.3152,-1.363,-1.3919,-1.3919,-1.4202,-1.4484,-1.4867,-1.4867,-1.5057,-1.5445,-1.5724,-1.619,-1.6741,-1.703,-1.7037,-1.6936,-1.7217,-1.7591,-1.8056,-1.8056,-1.8696,-1.9613,0.6979,0.6412,0.5841,0.5749,0.6438,0.7316,0.8105,0.8544,0.9419,1.1089,1.0992,1.0727,1.0727,1.0381,1.0125,1.0207,1.0125,1.0038,1.0038,1.0038,0.9864,0.9432,0.9781,0.9607,0.8915,0.8464,0.8021,0.7665,0.6694,0.5988,0.5371,0.5811,0.6074,0.6166,0.5636,0.5991,0.7048,0.5988,0.5813,0.6254,0.6959,0.6609,0.5636,0.6077,0.5902,0.5371,0.5282,0.534,0.5247,0.3463,0.3113,0.3122,0.2075,0.0474,-0.1143,-0.1417,-0.1495,-0.1479,-0.1566,-0.1545,-0.1531,-0.1557,-0.184,-0.231,0.0,0.0,0.0,-0.4043,-0.4054,-0.3971,-0.4167,-0.4137,-0.4084,-0.4166,-0.5806,-0.7168,-0.7543,-0.8283,-0.9118,-1.0117,-1.0216,-1.0708,-1.1883,-1.198,-1.2175,-1.2467,-1.2467,-1.2273,-1.1878,-1.1883,-1.1975,-1.2165,-1.2268,-1.2559,-1.3238,-1.3727,-1.3919,-1.3919,-1.4394,-1.4962,-1.5527,-1.5629,-1.6008,-1.6581,-1.6864,-1.7037,-1.7318,-1.7419,-1.7963,-1.8696,-1.8696,-1.888,-1.9063,-1.9063,-1.9704,-2.0529,0.593,0.5841,0.5749,0.5735,0.6438,0.7139,0.7228,0.8632,1.012,1.1176,1.1262,1.1262,1.1262,1.0819,1.0636,1.0895,1.0554,1.0294,1.0294,1.0294,1.012,0.9951,0.9951,0.9951,0.9864,0.8899,0.8368,0.8109,0.6517,0.5633,0.5371,0.4835,0.4921,0.5549,0.546,0.546,0.5636,0.6077,0.5988,0.5549,0.6254,0.6432,0.6254,0.5725,0.546,0.5282,0.4656,0.4572,0.4667,0.4234,0.3289,0.2314,0.236,0.1389,0.0095,-0.1096,-0.1462,-0.1567,-0.172,-0.1798,-0.1795,-0.1799,-0.1981,-0.2163,-0.1987,0.0,-0.235,-0.2439,0.0,-0.2415,-0.2508,0.0,0.0,-0.2524,-0.4025,-0.5354,-0.6029,-0.7654,-0.9402,-1.0895,-1.1096,-1.1292,-1.198,-1.198,-1.178,-1.1389,-1.1389,-1.1389,-1.1292,-1.1292,-1.1678,-1.2635,-1.3125,-1.38,-1.4758,-1.5248,-1.554,-1.554,-1.5818,-1.6001,-1.6096,-1.6386,-1.6487,-1.6588,-1.6676,-1.7232,-1.8249,-1.8249,-1.9255,-2.0529,-1.8788,-1.8964,-2.0158,-2.0158,-2.0718,-2.1553,0.5733,0.5733,0.5733,0.5733,0.5997,0.6612,0.7753,0.9506,1.0472,0.9772,1.0646,1.1262,1.1262,1.1084,1.1079,1.1343,1.1257,1.1084,1.1084,1.1084,1.0906,1.0381,1.0646,1.0564,1.0038,0.889,0.8189,0.7757,0.5988,0.5104,0.5018,0.4478,0.4656,0.5371,0.4924,0.5188,0.5899,0.5366,0.5719,0.6609,0.6428,0.6782,0.7404,0.6691,0.6425,0.6337,0.5719,0.5542,0.5539,0.4741,0.4144,0.3628,0.2248,0.1089,0.0092,-0.0451,-0.0993,-0.1452,-0.1529,-0.1525,-0.1525,-0.1525,-0.1615,-0.1705,-0.1615,-0.1794,-0.1974,-0.1974,0.0,0.0,0.0,0.0,0.0,0.0,-0.4248,-0.557,-0.6649,-0.8104,-0.9397,-1.0203,-1.0507,-1.0904,-1.1292,-1.1292,-1.1482,-1.2058,-1.196,-1.2155,-1.2926,-1.3022,-1.3216,-1.3596,-1.389,-1.4178,-1.4561,-1.5045,-1.5337,-1.5337,-1.5724,-1.6292,-1.6857,-1.6951,-1.7333,-1.7893,-1.7893,-1.8172,-1.8627,-1.8627,-1.9271,-2.0093,-1.9263,-1.9803,-2.1087,-2.1087,-2.1365,-2.1741,0.5997,0.5908,0.5908,0.5822,0.5822,0.6438,0.8193,0.968,1.0207,0.9419,1.0472,1.1262,1.1262,1.1348,1.1527,1.1785,1.1871,1.1866,1.1866,1.1785,1.1521,1.0987,1.117,1.0916,1.0125,0.889,0.7921,0.7312,0.5725,0.4839,0.4661,0.4567,0.4746,0.5104,0.4832,0.5097,0.5808,0.4921,0.5542,0.6956,0.6428,0.7132,0.8368,0.7562,0.7298,0.7126,0.6514,0.6251,0.5985,0.4739,0.4387,0.4034,0.1973,0.0897,0.0359,0.0179,-0.0448,-0.1076,-0.1166,-0.1345,-0.1436,-0.1436,-0.1436,-0.1436,-0.1436,-0.1525,-0.1705,-0.1705,-0.1525,0.0,0.0,0.0,-0.2287,-0.3633,0.0,-0.566,-0.6853,-0.8013,-0.8937,-0.9509,-1.0019,-1.0413,-1.0609,-1.09,-1.158,-1.2635,-1.2727,-1.321,-1.4364,-1.4364,-1.4459,-1.4746,-1.4746,-1.4841,-1.5127,-1.5419,-1.5615,-1.5615,-1.6103,-1.6676,-1.7426,-1.7527,-1.7994,-1.8743,-1.9096,-1.918,-1.9271,-1.9455,-1.9903,-2.0357,-2.0357,-2.1078,-2.1998,-2.1642,-2.1553,-2.1553,0.6432,0.6343,0.6343,0.6083,0.6083,0.6612,0.8281,0.8544,0.9244,1.0997,1.1262,1.1262,1.1262,1.1527,1.1785,1.1957,1.2198,1.2363,1.2363,1.2118,1.1957,1.1957,1.1521,1.0997,1.0294,0.9065,0.7925,0.6779,0.5811,0.5107,0.4661,0.4921,0.4743,0.4389,0.5275,0.5186,0.4389,0.5104,0.5547,0.5719,0.5719,0.7126,0.9056,0.8169,0.765,0.7401,0.6422,0.5983,0.5542,0.4121,0.3317,0.0,0.0,0.1166,0.1256,0.0628,0.0269,-0.0179,-0.0628,-0.1076,-0.1436,-0.1436,-0.1436,-0.1436,-0.1436,-0.1436,-0.1436,-0.1436,-0.1436,-0.1704,-0.2689,-0.2869,-0.3115,-0.4004,-0.4493,0.0,0.0,-0.6599,-0.7667,-0.9406,-0.9821,-1.0019,-1.0019,-1.1194,-1.2165,-1.2635,-1.3414,-1.4088,-1.4555,-1.4459,-1.4746,-1.5704,-1.5798,-1.6177,-1.7232,-1.7232,-1.7232,-1.7232,-1.7527,-1.7636,-1.7721,-1.8195,-1.8481,-1.8574,-1.972,-2.0257,-2.0339,-2.1248,-2.1863,-2.2306,-2.2306,-2.2589,-2.2872,-2.1535,-2.0997,-2.0997,0.6874,0.6874,0.6786,0.6343,0.6343,0.6694,0.7834,0.8452,0.924,1.0626,1.0722,1.0906,1.1693,1.1871,1.2037,1.2203,1.2369,1.2363,1.2363,1.2123,1.2043,1.2043,1.1527,1.1348,1.1429,0.9506,0.8364,0.8189,0.634,0.5282,0.5193,0.501,0.4921,0.4743,0.5099,0.5277,0.5186,0.5015,0.5369,0.6163,0.6694,0.7834,0.9235,0.9235,0.8973,0.8536,0.7749,0.6691,0.0,0.5013,0.4391,0.3678,0.2959,0.2152,0.1345,0.1166,0.0538,-0.0,0.0,0.0,-0.1436,-0.1436,0.0,-0.1436,-0.1436,-0.1166,-0.0987,-0.1076,-0.1973,-0.2689,-0.2867,-0.3401,-0.4103,-0.5046,-0.528,-0.5703,0.0,-0.8049,-0.9111,-0.9784,-1.0395,-1.0886,-1.1082,-1.2344,-1.3692,-1.4644,-1.5038,-1.5514,-1.6372,-1.6278,-1.6466,-1.6756,-1.6756,-1.6943,-1.7326,-1.7326,-1.7326,-1.7326,-1.7426,-1.7527,-1.7721,-1.8558,-1.9012,-1.918,-2.0266,-2.0799,-2.0979,-2.1338,-2.1606,-2.1961,-2.1961,-2.205,-2.2148,-2.2334,-2.2422,-2.2422,0.7139,0.7139,0.6962,0.6612,0.6432,0.6691,0.7658,0.8448,0.9323,1.0361,1.0636,1.1084,1.178,1.1957,1.2123,1.2363,1.2448,1.2534,1.2534,1.2289,1.2203,1.2289,1.178,1.1607,1.1677,1.0106,0.8973,0.8364,0.6871,0.6077,0.5899,0.5808,0.5628,0.5536,0.5628,0.5542,0.528,0.4926,0.5191,0.5985,0.6959,0.7837,0.8711,0.9331,0.9331,0.8886,0.0,0.7044,0.5455,0.5191,0.4661,0.4037,0.3678,0.269,0.1705,0.1705,0.1076,0.0448,0.0269,-0.0269,0.0,-0.0987,-0.1256,0.0,-0.1436,0.0,-0.045,-0.0634,-0.2253,-0.3692,-0.3835,-0.4336,-0.5104,-0.6138,-0.6284,-0.6671,0.0,-0.9435,-1.0455,-1.0462,-1.1072,-1.1843,-1.2587,-1.3573,-1.4912,-1.6778,-1.6807,-1.721,-1.8427,-1.8427,-1.8326,-1.8326,-1.8326,-1.8326,-1.8326,-1.8326,-1.8326,-1.8326,-1.8241,-1.8342,-1.8627,-1.9271,-1.9729,-1.9985,-2.1069,-2.1606,-2.1686,-2.205,-2.2315,-2.2413,-2.2413,-2.2413,-2.2501,-2.2775,-2.2862,-2.2862,0.7139,0.7139,0.7054,0.6881,0.6612,0.6782,0.7658,0.8619,0.941,1.0202,1.1084,1.1699,1.1699,1.1957,1.2118,1.2363,1.2619,1.2705,1.2705,1.2534,1.2448,1.2705,1.2289,1.1682,1.1133,1.0783,0.9657,0.7661,0.7577,0.7309,0.6868,0.7051,0.6868,0.6505,0.6776,0.6074,0.4839,0.475,0.4837,0.5097,0.6517,0.7228,0.7577,0.854,0.8715,0.8456,0.8181,0.6773,0.501,0.4748,0.4212,0.3678,0.3676,0.305,0.2244,0.2243,0.1794,0.1345,0.0897,0.0628,0.0359,-0.0269,-0.0897,0.0,0.0,0.0,0.0,0.0,-0.228,-0.4462,-0.5289,-0.5613,-0.6126,-0.7164,-0.7251,-0.762,-0.9043,-1.0637,-1.1597,-1.1341,-1.2042,-1.3075,-1.4343,-1.4702,-1.6035,-1.8744,-1.8648,-1.9072,-2.0538,-2.0249,-2.0141,-2.0232,-2.0232,-2.0232,-2.0232,-2.0232,-2.0232,-2.0141,-1.9977,-1.9977,-2.0141,-2.0275,-2.0464,-2.0718,-2.1863,-2.2394,-2.2482,-2.3387,-2.3754,-2.3841,-2.3841,-2.3841,-2.3657,-2.2843,-2.2482,-2.2482,0.7139,0.7139,0.7054,0.7054,0.6966,0.7224,0.8189,0.836,0.9056,1.0804,1.1144,1.1488,1.2363,1.2454,1.2534,1.2619,1.2705,1.2705,1.2705,1.2534,1.2448,1.2705,1.2289,1.2118,1.2266,1.1133,1.0351,0.9831,0.8269,0.7665,0.8013,0.7401,0.7401,0.7921,0.7485,0.7132,0.6694,0.5811,0.5369,0.5369,0.6602,0.7221,0.7661,0.8711,0.8623,0.7921,0.7566,0.6511,0.5193,0.4839,0.4572,0.4393,0.4212,0.3674,0.3139,0.278,0.2062,0.1345,0.1256,0.1166,0.1166,0.0987,0.0269,-0.054,0.0,0.0,0.0,0.0,0.0,0.0,0.0,0.0,-0.6506,-0.7002,-0.7788,-0.8548,-0.8954,-1.1104,-1.2552,-1.2603,-1.4804,-1.5651,-1.4226,-1.6142,-1.7762,-1.848,-1.8796,-1.9355,-2.024,-1.9604,-1.9513,-2.0141,-2.0232,-2.0232,-2.0232,-2.0232,-2.015,-1.9977,-1.9886,-1.9795,-1.9712,-2.0447,-2.0898,-2.1159,-2.2246,-2.2872,-2.3222,-2.3493,-2.3667,-2.3841,-2.3841,-2.3841,-2.3754,-2.3744,-2.3831,-2.3917,0.7139,0.7139,0.7139,0.7139,0.7139,0.7404,0.8368,0.8707,0.9488,1.0977,1.1402,1.1832,1.2534,1.2534,1.2619,1.2705,1.2705,1.2705,1.2705,1.2619,1.2619,1.2705,1.2454,1.246,1.2705,1.1918,1.1305,1.0783,0.957,0.8969,0.8803,0.8707,0.8619,0.8719,0.8715,0.8189,0.7217,0.616,0.5633,0.5636,0.6779,0.7482,0.0,0.8532,0.8444,0.783,0.7037,0.6248,0.5458,0.5104,0.4839,0.4661,0.448,0.4034,0.3587,0.3317,0.2511,0.1708,0.1724,0.1637,0.1458,0.1472,0.0922,0.0277,-0.028,-0.0187,-0.0283,0.0,-0.2394,-0.381,0.0,0.0,-0.6728,-0.6916,-0.8236,-0.9313,-0.9697,-1.1793,-1.3446,-1.359,-1.5317,-1.5886,-1.4376,-1.7267,-1.9314,-1.9687,-1.9977,-2.0439,-2.1329,-2.0881,-2.0791,-2.1329,-2.1338,-2.1338,-2.1338,-2.1239,-2.115,-2.1168,-2.0988,-2.0808,-2.0799,-2.1266,-2.1624,-2.1793,-2.2344,-2.2794,-2.3144,-2.3144,-2.3319,-2.3484,-2.3484,-2.358,-2.3677,-2.3851,-2.4024,-2.4196,0.7173,0.7156,0.7143,0.7139,0.7228,0.7665,0.854,0.9405,1.0188,1.0982,1.1843,1.2448,1.2448,1.2448,1.2534,1.2705,1.2705,1.2705,1.2705,1.2705,1.2705,1.2705,1.2705,1.2705,1.2705,1.2705,1.218,1.1219,1.1047,1.0529,0.9584,1.0269,1.0096,0.9327,1.0028,0.9318,0.7386,0.6596,0.6245,0.6245,0.7482,0.8093,0.8444,0.8528,0.8528,0.8265,0.7044,0.6251,0.5722,0.546,0.5104,0.4752,0.4676,0.423,0.3694,0.3612,0.3074,0.2361,0.2219,0.1951,0.1586,0.1519,0.1335,0.105,0.0957,0.0574,-0.0385,-0.2551,-0.3106,-0.3967,-0.6396,0.0,-0.6771,-0.6865,-0.8589,-1.0036,-1.061,-1.2597,-1.4004,-1.4298,-1.4873,0.0,-1.4783,-1.7817,-2.0107,-2.0926,-2.0953,-2.1516,-2.2706,-2.2618,-2.253,-2.2794,-2.2803,-2.2803,-2.2803,-2.253,-2.253,-2.2715,-2.2274,-2.2185,-2.2264,-2.2097,-2.2176,-2.2353,-2.2353,-2.253,-2.2803,-2.2803,-2.2882,-2.3057,-2.3057,-2.3232,-2.3416,-2.3416,-2.358,-2.3754,0.7356,0.7413,0.7326,0.7143,0.7929,0.8798,0.9579,0.9836,1.0183,1.1149,1.21,1.2619,1.2619,1.2619,1.2619,1.2705,1.2705,1.2705,1.2705,1.2705,1.2705,1.2705,1.2705,1.2705,1.2705,1.2705,1.2528,1.2186,1.1397,1.1144,1.1516,1.088,1.0885,1.1429,1.1073,1.0284,0.9144,0.9139,0.8956,0.869,0.9913,1.0009,0.9492,1.0366,1.0274,0.9401,0.8006,0.6868,0.5994,0.5549,0.5191,0.4938,0.4847,0.4505,0.4242,0.3937,0.3767,0.3394,0.2555,0.2179,0.2087,0.1715,0.1526,0.1532,0.146,0.1368,0.0687,-0.1402,-0.2804,-0.418,-0.5625,0.0,0.0,-0.7286,-0.9042,-1.052,-1.1308,-1.2995,-1.4292,-1.4298,-1.5684,-1.6055,-1.4777,-1.6539,-1.8203,-1.9206,-1.9231,-2.0249,-2.2706,-2.1454,-2.1365,0.0,-2.2618,-2.2618,0.0,0.0,-2.2441,-2.2441,-2.2185,-2.2008,-2.182,-2.182,-2.1919,-2.2185,-2.2185,-2.2362,-2.2803,-2.253,-2.2618,-2.2882,-2.2882,-2.2969,-2.3135,-2.3135,-2.3232,-2.3222,0.778,0.789,0.7836,0.7471,0.8371,0.9448,1.0159,1.0696,1.1326,1.1957,1.2443,1.2705,1.2705,1.2705,1.2705,1.2705,1.2705,1.2705,1.2705,1.2705,1.2705,1.2705,1.2705,1.2705,1.2705,1.2705,1.2619,1.2534,1.2095,1.1837,0.0,1.1666,1.158,1.151,1.116,1.0626,1.0096,0.9836,0.9575,0.9483,1.0611,1.0788,1.0539,1.0982,1.089,1.0202,0.8375,0.7434,0.6809,0.5907,0.5549,0.5297,0.5313,0.5064,0.4889,0.4555,0.4282,0.4007,0.3277,0.2998,0.2715,0.245,0.226,0.197,0.1988,0.1395,0.03,-0.1308,-0.2923,-0.4423,-0.5376,-0.5859,0.0,0.0,0.0,-1.0087,-1.1365,-1.2743,-1.3721,-1.4202,-1.5032,-1.5311,-1.4586,-1.5337,-1.6734,-1.8664,-1.9877,-2.1078,-2.253,-2.1811,-2.1722,0.0,0.0,0.0,-2.2451,0.0,-2.2087,-2.2274,-2.2008,-2.183,-2.1741,-2.1741,-2.1731,-2.1919,-2.1919,-2.2097,-2.2451,-2.2441,-2.2784,-2.3464,-2.2969,-2.3474,-2.4478,-2.3983,-2.3724,-2.3551,0.8117,0.8179,0.8247,0.7969,0.8991,1.0098,1.0828,1.1747,1.2507,1.2769,1.2795,1.2771,1.2711,1.2705,1.2705,1.2705,1.2705,1.2705,1.2705,1.2705,1.2705,1.2705,1.2705,1.2705,1.2705,1.2705,1.2705,1.2705,1.279,0.0,0.0,1.2443,1.2277,1.1327,1.1327,1.123,1.1047,1.0448,1.0188,1.0274,1.0966,1.1322,1.1413,1.1246,1.1278,1.0994,0.8755,0.8018,0.7869,0.6707,0.5964,0.5596,0.5703,0.5551,0.5367,0.5099,0.4818,0.4448,0.4027,0.3649,0.3368,0.3218,0.2927,0.2522,0.2422,0.1312,-0.0101,-0.1208,-0.2922,-0.4435,-0.5236,-0.5536,0.0,0.0,0.0,0.0,-1.1468,-1.2457,-1.3244,-1.4016,-1.4202,-1.4298,-1.4298,-1.4777,-1.5981,-1.838,-2.024,-2.1535,-2.2264,0.0,0.0,0.0,0.0,-2.2176,-2.2097,0.0,-2.183,-2.2097,-2.1731,-2.1553,-2.1553,-2.1553,-2.1553,-2.1553,-2.1651,-2.183,-2.2008,-2.2441,-2.3125,-2.38,-2.3299,-2.4069,-2.5411,-2.4744,-2.4402,-2.4135,0.819,0.8069,0.8153,0.8897,1.001,1.1022,1.1838,1.2768,1.3321,1.3121,1.3085,1.2988,1.2735,1.2705,1.2705,1.2705,1.2705,1.2705,1.2705,1.2705,1.2705,1.2705,1.2705,1.2705,1.2705,1.2705,1.2705,1.2705,1.2966,1.2875,0.0,1.2881,1.2881,1.2534,1.2534,1.2534,0.0,1.2272,1.2106,1.21,1.1946,1.1952,1.1952,1.1866,1.2093,1.2015,0.9782,0.9088,0.9072,0.7991,0.6718,0.5705,0.582,0.5664,0.5491,0.5286,0.5114,0.4916,0.4221,0.3922,0.3823,0.333,0.313,0.3027,0.2522,0.1714,0.0706,-0.0605,-0.2519,-0.4234,-0.4734,-0.5236,-0.6132,0.0,0.0,0.0,0.0,-1.2856,-1.3443,-1.3539,-1.401,-1.4298,-1.4298,-1.5419,-1.6532,-1.7639,-1.8118,-1.9505,-2.1998,0.0,0.0,-2.2097,-2.1919,-2.183,-2.2097,-2.183,-2.183,-2.2097,-2.1365,-2.1087,-2.1087,-2.1087,-2.1087,-2.1087,-2.1553,-2.1731,-2.182,-2.2696,-2.3135,-2.3222,-2.382,-2.4327,-2.4573,-2.4498,-2.4498,-2.4413,0.8343,0.9069,0.9598,0.9493,1.102,1.2263,1.2447,1.3314,1.3888,1.3628,1.3459,1.3254,1.2988,1.2958,1.2886,1.2717,1.2705,1.2705,1.2705,1.2705,1.2705,1.2705,1.2705,1.2705,1.2705,1.2705,1.2705,1.2705,1.2966,1.3052,1.2966,0.0,0.0,0.0,0.0,1.2619,1.2534,1.2534,1.2454,1.2118,1.2203,1.221,1.226,1.2085,1.2148,1.2191,1.0662,1.0197,1.0108,0.9142,0.8025,0.6966,0.7107,0.7051,0.6869,0.5927,0.5539,0.5336,0.4836,0.4636,0.4435,0.4234,0.3932,0.3632,0.3429,0.2218,0.0907,-0.0101,-0.2017,-0.3732,-0.4234,-0.4533,-0.5334,-0.7428,0.0,0.0,0.0,-1.2268,-1.2759,-1.3055,-1.3534,-1.3823,-1.3823,-1.4573,-1.5697,-1.7282,-1.8218,-1.9604,-2.1544,0.0,0.0,-2.183,0.0,-2.1919,-2.183,-2.1731,-2.1642,-2.1454,-2.1177,-2.0997,-2.0997,-2.0997,-2.1177,-2.1463,-2.1642,-2.1909,-2.2353,-2.2794,-2.356,-2.4488,-2.4327,-2.4999,-2.6091,-2.5505,-2.5253,-2.5158,0.9513,1.0301,1.0988,1.0783,1.2047,1.3119,1.3318,1.3902,1.4232,1.4045,1.3857,1.3616,1.3278,1.3236,1.3127,1.285,1.2825,1.2789,1.2711,1.2705,1.2705,1.2705,1.2705,1.2705,1.2705,1.2705,1.2705,1.2705,1.2966,1.3052,0.0,0.0,0.0,0.0,1.2705,1.2619,1.2448,1.2619,1.2416,1.2152,1.2227,1.2289,1.2249,1.207,1.2218,1.2265,1.1194,1.081,1.0789,1.0249,0.9514,0.8751,0.8185,0.8021,0.7726,0.6439,0.5839,0.5536,0.524,0.5037,0.4834,0.4834,0.4535,0.4234,0.4033,0.2822,0.131,-0.0101,-0.1916,-0.3331,-0.3732,-0.3932,-0.4634,-0.6528,0.0,0.0,0.0,-1.1482,-1.2175,-1.2565,-1.2958,-1.3346,-1.3443,-1.4106,-1.514,-1.6929,-1.8234,-1.9613,-2.1177,0.0,0.0,0.0,0.0,0.0,-2.1741,-2.1553,-2.1365,-2.0997,-2.0727,-2.0637,-2.0628,-2.0727,-2.1096,-2.1741,-2.1741,-2.2008,-2.2539,-2.296,-2.3887,-2.4978,-2.4754,-2.5611,-2.6775,-2.6268,-2.5924,-2.5924,1.176,1.176,1.195,1.3221,1.3221,1.3414,1.4496,1.449,1.4298,1.4292,1.4292,1.4087,1.3568,1.3513,1.3405,1.3139,1.3121,1.3,1.2723,1.2705,1.2705,1.2705,1.2705,1.2705,1.2705,1.2705,1.2705,1.2705,1.2966,0.0,1.2705,0.0,1.2705,1.2705,1.2705,1.2705,1.2705,1.2448,1.2429,1.2409,1.2137,1.2013,1.2135,1.2135,1.2194,1.222,1.1157,1.0995,1.117,1.117,1.117,1.0774,0.8711,0.8021,0.7726,0.6439,0.5839,0.5536,0.524,0.5037,0.4834,0.4834,0.4834,0.4634,0.4133,0.3325,0.2014,-0.0605,-0.2219,-0.323,-0.323,-0.3632,-0.4232,-0.5131,0.0,0.0,0.0,-1.0783,-1.198,-1.198,-1.2467,-1.2958,-1.3443,-1.4196,-1.5235,-1.6487,-1.7692,-1.9163,-2.0898,0.0,0.0,-2.1731,-2.1741,0.0,-2.1741,-2.1275,-2.0997,-2.0997,-2.0093,-1.9637,-1.9637,-2.011,-2.0835,-2.1741,-2.1741,-2.1741,-2.182,-2.3193,-2.38,-2.3973,-2.5369,-2.5895,-2.5979,-2.6362,-2.6528,-2.6528,1.0489,1.1365,1.2339,1.3119,1.3908,1.4592,1.4885,1.479,1.4592,1.4592,1.4394,1.4232,1.4063,1.3888,1.3768,1.3687,1.3483,1.3361,1.343,1.3324,1.3157,1.2973,1.2966,1.2875,1.2705,1.2705,1.279,1.2966,0.0,0.0,0.0,1.2966,1.2881,1.2705,1.2705,1.2727,1.2726,1.282,1.2792,1.2666,1.2756,1.2728,1.2582,1.2582,1.2636,1.2651,1.2255,1.2206,1.2268,1.2268,1.2268,1.2068,1.0583,0.9698,0.8814,0.7726,0.6637,0.5839,0.5741,0.5441,0.5037,0.5037,0.4937,0.4734,0.4533,0.312,0.1409,0.0101,-0.1613,-0.2927,-0.2927,-0.3229,-0.3731,-0.4732,-0.6224,0.0,-0.8803,-1.0199,-1.1292,-1.1389,-1.1883,-1.2273,-1.2467,-1.38,-1.4854,-1.5235,-1.6473,-1.7971,0.0,0.0,0.0,0.0,-2.1177,0.0,-2.1177,-2.1087,-2.0727,-2.0093,-2.0102,-2.011,-2.0102,-2.0925,-2.1374,-2.1741,-2.1741,-2.2246,-2.3193,-2.3627,-2.4413,-2.5285,-2.5728,-2.6052,-2.629,-2.6445,-2.6693,-2.7021,1.1945,1.2727,1.3511,1.3992,1.4682,1.5178,1.5267,1.4981,1.479,1.4694,1.4592,1.4394,1.4298,1.4153,1.4042,1.3872,1.3756,1.3641,1.3723,1.3616,1.3453,1.3287,1.3182,1.304,1.2862,1.2759,0.0,1.2966,1.3052,1.3143,1.3222,1.3143,1.3022,1.3028,1.2862,1.2925,1.3094,1.3183,1.3152,1.3107,1.3291,1.317,1.293,1.293,1.2827,1.2764,1.2764,1.2764,1.2764,1.2764,1.2764,1.2662,1.1965,1.1077,0.9899,0.8418,0.7033,0.5942,0.5839,0.5541,0.514,0.5037,0.4937,0.4834,0.4834,0.3221,0.161,0.0805,-0.0806,-0.2219,-0.2623,-0.2826,-0.3229,-0.393,-0.5227,-0.6617,-0.7908,-0.9304,-1.04,-1.0998,-1.1389,-1.1785,-1.1975,-1.3414,-1.4555,-1.5038,-1.6466,-1.7885,0.0,0.0,-2.0439,-2.0727,-2.0907,-2.0997,-2.0997,-2.0628,-2.0365,-2.0093,-2.0283,-2.0292,-2.0292,-2.1096,-2.1553,-2.1741,-2.1741,-2.2344,-2.3464,-2.3714,-2.4498,-2.5549,-2.5968,-2.629,-2.6528,-2.6869,-2.7196,-2.7441,1.5159,1.5166,1.5172,1.5737,1.5458,1.5267,1.5445,1.5267,1.5083,1.4783,1.479,1.4592,1.4394,1.4298,1.4195,1.3954,1.393,1.3821,1.3562,1.3635,1.3622,1.3513,1.3367,1.324,1.324,1.2978,1.2845,1.2845,1.3022,1.3284,1.354,1.3278,1.333,1.3573,1.3322,1.3385,1.3544,1.3544,1.3505,1.3549,1.3549,1.3412,1.3147,1.3147,1.2953,1.2861,1.2764,1.2764,1.2764,1.2764,1.2764,1.2764,1.2764,1.2068,1.0779,0.8711,0.7132,0.6039,0.5737,0.5438,0.5138,0.4935,0.4834,0.4834,0.4834,0.3827,0.2517,0.1509,0.0201,-0.1109,-0.2118,-0.2522,-0.2826,-0.2826,-0.413,-0.5527,-0.6617,-0.8202,-0.96,-1.0703,-1.0998,0.0,-1.1883,-1.3119,-1.4358,-1.5514,-1.7304,-1.8342,0.0,0.0,-1.9438,-2.0201,-2.0736,-2.0907,-2.0907,-2.0093,-2.0184,-2.0988,-2.0555,-2.0292,-2.0374,-2.0817,-2.1275,-2.1741,-2.1731,-2.2176,-2.2882,-2.3637,-2.4327,-2.5115,-2.6113,-2.6528,-2.6693,-2.7545,-2.7893,-2.7962,1.4094,1.4394,1.4682,1.5445,1.5642,1.5642,1.5737,1.554,1.5356,1.535,1.5172,1.4885,1.4592,1.4592,1.4472,1.4214,1.4208,1.4282,1.4297,1.491,1.4813,1.3894,1.4436,1.4747,1.4569,1.4497,1.4458,1.4458,1.3945,1.4034,1.4641,1.4553,1.4586,1.4652,1.4563,1.4282,1.3815,1.3815,1.3966,1.4106,1.4106,1.3957,1.3738,1.3443,1.3249,1.305,1.2861,1.2764,1.2764,1.2764,1.2764,1.2764,1.2764,1.2068,1.0974,0.9604,0.8418,0.7329,0.6237,0.5739,0.5438,0.514,0.4937,0.4834,0.4834,0.3927,0.3021,0.282,0.1007,-0.0605,-0.0806,-0.1917,-0.2826,-0.2826,-0.393,-0.5329,-0.6617,-0.8007,-0.9402,-1.0605,-1.0998,-1.1292,-1.1394,-1.292,-1.3788,0.0,0.0,-1.7044,-1.7145,-1.8056,-1.8988,-1.9737,-2.0192,-2.0283,-1.9911,-2.0456,-2.0817,-2.0988,-2.0555,-2.0464,-2.0817,-2.1275,-2.1553,-2.1731,-2.2274,-2.296,-2.3637,-2.4327,-2.5179,-2.6113,-2.6362,-2.6951,-2.7638,-2.78,-2.8122,-2.8351,1.4675,1.4771,1.5064,1.554,1.5635,1.5642,1.5642,1.5635,1.5547,1.5356,1.5267,1.5172,1.4885,1.4885,1.479,1.4694,1.4867,1.4988,1.5123,1.5937,1.6139,1.5528,1.5833,1.5937,1.5847,1.5707,1.5732,1.5821,1.4943,1.4854,1.528,1.5198,1.5183,1.5312,1.5221,1.5022,1.4735,1.427,1.4165,1.4298,1.4298,1.4112,1.3835,1.3738,1.3443,1.305,1.2953,1.2856,1.2764,1.2764,1.2764,1.2764,1.2764,1.2365,1.1765,1.0685,0.9205,0.7726,0.6339,0.5939,0.5639,0.534,0.5037,0.4834,0.4834,0.4331,0.3827,0.3324,0.1813,0.0403,-0.0101,-0.1513,-0.2623,-0.2623,-0.3429,-0.4531,-0.5727,-0.7117,-0.851,-0.9702,-1.0699,-1.1194,-1.1194,-1.2549,-1.3414,-1.3323,-1.5337,0.0,-1.7044,-1.8071,-1.8812,-1.9188,-1.9737,-1.992,-1.992,-2.0826,-2.1096,-2.0645,-2.0826,-2.1096,-2.1427,-2.1989,-2.2344,-2.2677,-2.3299,-2.3983,-2.4638,-2.5263,-2.603,-2.6857,-2.7033,-2.7464,-2.7881,-2.8122,-2.8283,-2.851,1.5832,1.5642,1.5635,1.5737,1.5642,1.554,1.554,1.5737,1.5642,1.5267,1.5356,1.5452,1.5178,1.5178,1.5172,1.5267,1.5805,1.6075,1.5893,1.6922,1.7483,1.7296,1.7308,1.7258,1.7258,1.6982,1.7024,1.7209,1.6135,1.5866,1.6217,1.6045,1.6007,1.6169,1.5978,1.5844,1.5704,1.486,1.4484,1.4298,1.4298,1.4208,1.3931,1.3931,1.3545,1.3152,1.3147,1.2953,1.2764,1.2764,1.2764,1.2764,1.2764,1.2764,1.2565,1.1468,0.9891,0.812,0.6637,0.6039,0.5741,0.524,0.4937,0.4834,0.4834,0.4834,0.4533,0.3626,0.262,0.1512,0.0403,-0.1008,-0.2118,-0.2321,-0.2826,-0.3531,-0.4634,0.0,-0.7617,-0.8704,-1.0199,-1.1194,-1.1194,-1.2175,-1.3044,-1.3692,-1.5425,-1.6763,-1.7505,-1.8257,-1.8635,-1.8827,-1.9371,-2.0011,-2.0473,-2.1195,-2.1195,-2.0564,-2.1284,-2.1802,-2.2129,-2.2608,-2.3212,-2.3963,-2.4402,-2.4999,-2.5663,-2.6185,-2.6693,-2.736,-2.7708,-2.7973,-2.8042,-2.8351,-2.851,-2.859,1.5832,1.5737,1.573,1.5825,1.5737,1.5737,1.5737,1.5737,1.5737,1.5737,1.5737,1.5642,1.5445,1.5452,1.5629,1.6264,1.7102,1.7203,1.619,1.7669,1.8226,1.7296,1.8264,1.8883,1.8883,1.8835,1.8902,1.9092,1.788,1.7781,1.8621,1.8621,1.847,1.8341,1.8249,1.7338,1.5798,1.5609,1.5045,1.4298,1.4298,1.4298,1.4202,1.4027,1.3738,1.3443,1.3147,1.2953,1.2764,1.2764,1.2764,1.2764,1.2764,1.2764,1.2565,1.1468,1.0974,1.019,0.7925,0.6337,0.524,0.4937,0.4834,0.4834,0.4834,0.4834,0.4734,0.4632,0.3726,0.262,0.1512,0.0202,-0.1009,-0.192,-0.2524,-0.3228,-0.4331,0.0,-0.7617,-0.8704,-1.0199,-1.1194,-1.1194,-1.2175,-1.2861,-1.2953,-1.4573,-1.5913,-1.677,-1.7505,-1.8164,-1.8735,-1.9745,-2.0654,-2.1463,-2.0835,-2.0835,-2.1463,-2.1275,-2.1624,-2.2706,-2.2794,-2.3396,-2.4413,-2.5073,-2.5663,-2.6102,-2.6764,-2.736,-2.78,-2.7893,-2.8122,-2.8431,-2.851,-2.8578,-2.8724,1.5832,1.5832,1.5832,1.5832,1.5832,1.573,1.5635,1.6204,1.6574,1.6379,1.703,1.7404,1.7304,1.7311,1.7397,1.7669,1.8503,1.878,1.8226,1.9338,1.9712,1.9155,1.9795,2.0167,2.0167,2.0167,2.0257,2.0357,1.9239,1.8872,1.9347,1.9247,1.9147,1.8972,1.888,1.8326,1.7382,1.6264,1.5514,1.5051,1.4484,1.4298,1.4298,1.4208,1.3829,1.3443,1.3346,1.3055,1.2764,1.2764,1.2764,1.2764,1.2764,1.2764,1.2662,1.2165,1.0877,0.9205,0.812,0.6734,0.5541,0.5336,0.5135,0.4937,0.4834,0.4834,0.4834,0.4834,0.3927,0.2922,0.1815,0.0504,-0.0806,-0.2019,-0.2523,-0.3026,-0.363,-0.5329,-0.6924,-0.7816,-0.9509,-1.0703,-1.1194,-1.2175,-1.2764,-1.2764,-1.4388,-1.5534,-1.5913,-1.7037,-1.7971,-1.8535,-1.9737,-2.0654,-2.1275,-2.1105,-2.1284,-2.1741,-2.1454,-2.19,-2.2803,-2.2882,-2.3724,-2.5073,-2.5757,-2.6434,-2.7126,-2.7684,-2.8018,-2.8203,-2.8203,-2.8363,-2.851,-2.8657,-2.8724,-2.8803,1.5832,1.5832,1.5832,1.5832,1.6015,1.6109,1.592,1.6943,1.7598,1.7397,1.8234,1.8788,1.8696,1.8703,1.8788,1.9063,1.9521,1.9985,2.0266,2.0817,2.1096,2.0736,2.1006,2.1087,2.1177,2.1096,2.1096,2.1177,2.0357,1.9903,1.9911,1.9704,1.9613,1.953,1.9255,1.898,1.8696,1.7109,1.6264,1.5704,1.4956,1.4484,1.4298,1.4298,1.401,1.3539,1.3539,1.3152,1.2764,1.2764,1.2764,1.2764,1.2764,1.2764,1.2764,1.2764,1.0881,0.8612,0.8021,0.7132,0.6239,0.5737,0.5438,0.514,0.4937,0.4834,0.4834,0.4834,0.413,0.3224,0.2217,0.0907,-0.0403,-0.1714,0.0,-0.2826,-0.3029,-0.463,-0.6129,-0.6825,-0.8616,-1.0109,-1.0801,-1.2073,-1.2764,-1.2764,-1.4292,-1.5248,-1.5432,-1.656,-1.7591,-1.8519,-1.982,-2.0645,-2.1177,-2.1553,-2.1741,-2.1741,-2.1741,-2.2087,-2.2882,-2.3057,-2.4059,-2.5746,-2.6268,-2.7115,-2.8042,-2.8351,-2.851,-2.851,-2.859,-2.8578,-2.8578,-2.8803,-2.887,-2.8949,1.5832,1.5832,1.5832,1.5832,1.6574,1.7138,1.7138,1.8056,1.8696,1.8696,1.8696,1.8703,1.8427,1.8434,1.8796,1.9704,1.9886,2.0266,2.1212,2.1472,2.1463,2.0997,2.1203,2.1482,2.1642,2.1472,2.1482,2.1642,2.1383,2.1302,2.1212,2.1006,2.0727,2.0555,2.0283,1.9637,1.8788,1.8603,1.7483,1.5798,1.5704,1.514,1.4298,1.4298,1.401,1.3539,1.3539,1.3152,1.2764,1.2764,1.2764,1.2764,1.2764,1.2764,1.2764,1.2764,1.1965,1.0485,0.8219,0.7531,0.7132,0.5934,0.5438,0.524,0.514,0.4937,0.4834,0.4834,0.4734,0.4331,0.3324,0.2013,0.0704,-0.0403,0.0,0.0,-0.2826,-0.4228,-0.5429,-0.6029,-0.8011,-0.9501,-1.0019,-1.1688,-1.2764,-1.2764,-1.3817,-1.4675,-1.5337,-1.5527,-1.6648,-1.9055,-2.0348,-2.1177,-2.1642,-2.1651,-2.1741,-2.1741,-2.1741,-2.2176,-2.3047,-2.3047,-2.4327,-2.6434,-2.6445,-2.7267,-2.8431,-2.851,-2.851,-2.851,-2.8724,-2.8803,-2.8803,-2.8973,-2.9197,-2.9341,1.5832,1.6298,1.677,1.677,1.7598,1.8241,1.8241,1.9063,1.9704,1.9704,2.0257,2.0538,2.0447,2.0365,2.0374,2.0826,2.0637,2.0727,2.1096,2.1186,2.1365,2.1463,2.1562,2.1651,2.1741,2.1651,2.1651,2.1741,2.1651,2.1571,2.1562,2.1186,2.0997,2.0916,2.0464,2.0102,1.9729,1.9072,1.8041,1.664,1.6075,1.5235,1.4388,1.4949,1.4484,1.3539,1.4196,1.3715,1.2764,1.2764,1.2764,1.2764,1.2764,1.2764,1.2764,1.2764,1.2462,1.1868,1.0288,0.8715,0.7431,0.6728,0.6234,0.5739,0.5138,0.5238,0.5438,0.4935,0.4834,0.4431,0.3425,0.2114,0.0805,-0.0403,0.0,-0.2826,-0.3029,-0.4131,-0.5231,-0.5929,-0.772,-0.9213,-0.992,-1.1688,-1.2764,-1.2764,-1.3721,-1.4394,-1.4675,-1.6177,-1.8033,-2.0257,-2.0997,-2.1553,-2.1741,-2.1741,-2.1741,-2.1741,-2.1741,-2.1998,-2.2441,-2.2618,-2.38,-2.5924,-2.5997,-2.6999,-2.851,-2.851,-2.8578,-2.8724,-2.8803,-2.8882,-2.904,-2.9197,-2.9341,-2.9419,1.6662,1.7318,1.7785,1.7785,1.8603,1.9247,1.9247,2.0076,2.0718,2.0718,2.1275,2.1651,2.1651,2.1383,2.1293,2.1293,2.1006,2.0907,2.0997,2.0997,2.1177,2.1463,2.1454,2.1454,2.1454,2.1454,2.1553,2.1651,2.1651,2.1651,2.1731,2.1186,2.0997,2.0997,2.0464,2.0292,2.0292,1.9538,1.8696,1.7669,1.664,1.5609,1.4669,1.5337,1.4867,1.3823,1.4765,1.4286,1.3141,1.3141,1.2953,1.2764,1.2764,1.2764,1.2764,1.2764,1.2764,1.2662,1.1868,1.0092,0.8223,0.7524,0.7126,0.6731,0.5534,0.5639,0.5842,0.5338,0.4935,0.4531,0.3827,0.2516,0.1107,-0.0101,-0.1613,-0.2724,-0.313,-0.3831,-0.4634,-0.5532,-0.7226,-0.8623,-0.9521,-1.1585,-1.2764,-1.2764,-1.3721,-1.4298,-1.4394,-1.6546,-1.8495,-2.0158,-2.0997,-2.1553,-2.183,-2.1741,-2.1741,-2.1741,-2.2078,-2.2334,-2.2696,-2.3115,-2.4382,-2.608,-2.6163,-2.7162,-2.8578,-2.8578,-2.8736,-2.8882,-2.8949,-2.904,-2.9197,-2.9431,-2.9586,-2.9664,1.8603,1.8796,1.8788,1.8788,1.9613,2.0348,2.0348,2.1087,2.1741,2.1741,2.1741,2.1651,2.1392,2.1195,2.0997,2.0997,2.0826,2.0736,2.0997,2.0988,2.0997,2.0997,2.0997,2.0997,2.0997,2.0997,2.1096,2.1392,2.1392,2.1482,2.1651,2.1186,2.0997,2.0997,2.0464,2.0292,2.0292,2.0292,1.9729,1.8696,1.7669,1.6539,1.5406,1.5166,1.479,1.4394,1.5153,1.4765,1.3908,1.3902,1.3431,1.2861,1.2764,1.2764,1.2764,1.2764,1.2764,1.2764,1.2764,1.1477,0.9604,0.8024,0.8021,0.8018,0.6734,0.6239,0.6042,0.6042,0.5338,0.4834,0.4834,0.3221,0.1711,0.0905,-0.0806,-0.232,-0.313,-0.323,-0.3632,-0.4634,-0.6226,-0.7624,-0.8722,-1.1189,-1.2764,-1.2764,-1.3721,-1.4394,-1.4688,-1.6365,-1.7662,-1.8395,-2.0068,-2.1365,-2.2097,-2.183,-2.1741,-2.1741,-2.2843,-2.3521,-2.3877,-2.4978,-2.608,-2.7185,-2.7185,-2.7822,-2.8791,-2.8791,-2.8882,-2.9131,-2.9341,-2.9419,-2.9419,-2.9702,-2.9934,-3.0075,1.8703,1.9338,1.9886,1.9886,2.0628,2.1275,2.1275,2.1553,2.1741,2.1741,2.1741,2.1651,2.1651,2.1383,2.1293,2.1293,2.0925,2.0654,2.0555,2.0464,2.0555,2.0736,2.0907,2.0997,2.0997,2.0997,2.0997,2.1096,2.1096,2.1186,2.1177,2.0916,2.0826,2.0736,2.0473,2.0292,2.0292,2.0292,1.9729,1.8788,1.8511,1.749,1.6285,1.6936,1.6278,1.5146,1.6089,1.571,1.4669,1.4094,1.41,1.4292,1.3715,1.3522,1.3431,1.2953,1.2764,1.2764,1.2764,1.2073,1.1086,0.9604,0.8817,0.8131,0.7135,0.6939,0.6639,0.6142,0.5338,0.4834,0.4834,0.3221,0.1711,0.0905,-0.0806,-0.232,-0.313,-0.3531,-0.3831,-0.4234,-0.5829,-0.7226,-0.8124,-1.0485,-1.216,-1.2764,-1.3721,-1.5045,-1.6922,-1.7475,-1.868,-2.0619,-2.1177,-2.1731,-2.2097,-2.2008,-2.2087,-2.2176,-2.3193,-2.379,-2.4049,-2.5062,-2.6235,-2.7395,-2.7395,-2.8063,-2.9052,-2.9052,-2.9118,-2.9341,-2.9419,-2.9509,-2.9702,-2.9934,-3.0088,-3.0152,1.9894,2.0447,2.0808,2.0808,2.1365,2.1741,2.1741,2.1741,2.1741,2.1741,2.1741,2.1741,2.1741,2.1482,2.1392,2.1392,2.0934,2.0654,2.0473,2.0382,2.0382,2.0564,2.0645,2.0727,2.0916,2.0826,2.0826,2.0916,2.0916,2.0907,2.0997,2.0826,2.0744,2.0654,2.0382,2.0292,2.0292,2.0292,1.992,1.9355,1.8788,1.7963,1.7044,1.7412,1.6749,1.5812,1.6756,1.6372,1.5432,1.4956,1.4956,1.5051,1.4573,1.419,1.3811,1.3335,1.305,1.2764,1.2565,1.2078,1.1487,1.04,0.9715,0.8924,0.7935,0.7637,0.7437,0.6639,0.5839,0.5138,0.4834,0.3725,0.2416,0.1408,-0.0101,-0.1613,-0.2623,-0.3229,-0.3833,-0.4234,-0.5632,-0.6927,-0.8223,-1.0288,-1.2058,-1.3335,-1.4382,-1.5697,-1.7289,-1.8218,-1.9513,-2.1087,-2.1642,-2.2008,-2.2185,-2.2362,-2.2353,-2.2441,-2.379,-2.4553,-2.4723,-2.608,-2.7151,-2.8039,-2.8039,-2.8462,-2.9197,-2.9197,-2.9353,-2.9599,-2.9599,-2.9689,-2.9934,-3.0088,-3.0241,-3.0381,2.1553,2.1741,2.1741,2.1741,2.1741,2.1741,2.1741,2.1741,2.1741,2.1741,2.1741,2.1741,2.1741,2.1571,2.1392,2.1392,2.1024,2.0744,2.0744,2.0473,2.0292,2.0382,2.0292,2.0473,2.0654,2.0473,2.0382,2.0654,2.0654,2.0736,2.0907,2.0736,2.0654,2.0654,2.0382,2.0292,2.0292,2.0292,2.0292,2.0102,1.8796,1.8056,1.7692,1.6958,1.6581,1.6379,1.7044,1.6857,1.6285,1.6285,1.5812,1.5146,1.5146,1.4669,1.4094,1.3806,1.3335,1.2662,1.2073,1.159,1.0998,1.0511,1.0314,1.0015,0.8829,0.8432,0.8233,0.7437,0.6639,0.5741,0.5035,0.4334,0.3528,0.2214,0.0907,-0.0403,-0.1815,-0.2623,-0.3531,-0.4634,-0.5432,-0.6628,-0.8425,-1.0391,-1.2344,-1.4202,-1.5507,-1.6351,-1.6633,-1.868,-2.0076,-2.0439,-2.1544,-2.2185,-2.2441,-2.2715,-2.2715,-2.253,-2.4563,-2.5568,-2.5579,-2.758,-2.8657,-2.8803,-2.887,-2.9118,-2.9419,-2.9419,-2.9599,-2.9792,-2.9792,-2.9934,-3.0075,-3.0152,-3.0394,-3.0698,2.1651,2.1741,2.1741,2.1741,2.1741,2.1741,2.1741,2.1741,2.1741,2.1741,2.1741,2.1741,2.1741,2.1651,2.1651,2.1651,2.1186,2.0916,2.0744,2.0473,2.0464,2.0817,2.0464,2.0473,2.0654,2.0473,2.0292,2.0382,2.0382,2.0382,2.0464,2.0382,2.0382,2.0382,2.0292,2.0292,2.0292,2.0292,2.0102,1.9737,1.9363,1.8812,1.7986,1.78,1.752,1.7044,1.7232,1.7232,1.7044,1.7044,1.6567,1.5906,1.5724,1.5629,1.533,1.3522,1.3039,1.284,1.1678,1.0998,1.0507,1.0413,1.0117,0.9723,0.9426,0.8829,0.8333,0.8134,0.7039,0.5942,0.5741,0.4435,0.3026,0.2114,0.1008,-0.0202,-0.1816,-0.2118,-0.2723,-0.4033,-0.4734,-0.5632,-0.7129,-0.9887,-1.2344,-1.4202,-1.5507,-1.6626,-1.7662,-1.9055,-2.0348,-2.1365,-2.183,-2.2185,-2.2441,-2.2715,-2.2882,-2.296,-2.4808,-2.5735,-2.5819,-2.781,-2.8803,-2.904,-2.9197,-2.9443,-2.9702,-2.9702,-2.9792,-2.9792,-2.9934,-3.0088,-3.0152,-3.047,-3.0622,-3.0773,2.1741,2.1741,2.1741,2.1741,2.1741,2.1741,2.1741,2.1741,2.1741,2.1741,2.1741,2.1741,2.1741,2.1741,2.1651,2.1571,2.1186,2.0907,2.0744,2.0473,2.0382,2.0645,2.0473,2.0382,2.0473,2.0382,2.0292,2.0292,2.0292,2.0292,2.0292,2.0292,2.0292,2.0292,2.0292,2.0292,2.0292,2.0102,1.9828,1.9546,1.9088,1.8542,1.8087,1.78,1.752,1.7326,1.7326,1.7239,1.7153,1.7153,1.6864,1.6386,1.6204,1.6008,1.5622,1.4382,1.3516,1.2743,1.1868,1.0993,1.0314,1.0117,0.9826,0.9628,0.9628,0.9229,0.8829,0.8432,0.7437,0.6339,0.5737,0.4533,0.3228,0.2318,0.1412,0.0303,-0.121,-0.2016,-0.2922,-0.4232,-0.4834,-0.6029,-0.8305,-1.0471,-1.2538,-1.4394,-1.5609,-1.6908,-1.8118,-1.9422,-2.0628,-2.183,-2.2087,-2.2353,-2.2618,-2.2794,-2.3057,-2.3319,-2.5062,-2.5964,-2.6047,-2.8051,-2.904,-2.9275,-2.9341,-2.9521,-2.9792,-2.9856,-2.9934,-2.9934,-3.0152,-3.0305,-3.0394,-3.0622,-3.0849,-3.0986,2.1741,2.1741,2.1741,2.1741,2.1741,2.1741,2.1741,2.1741,2.1741,2.1741,2.1741,2.1741,2.1741,2.1741,2.1562,2.1383,2.1096,2.0907,2.0744,2.0473,2.0292,2.0382,2.0292,2.0292,2.0292,2.0292,2.0292,2.0292,2.0292,2.0292,2.0292,2.0292,2.0292,2.0292,2.0292,2.0292,2.0102,1.9737,1.9463,1.9271,1.845,1.8087,1.7893,1.7426,1.7326,1.7326,1.7326,1.7153,1.6979,1.6979,1.6777,1.6581,1.6588,1.6109,1.5534,1.5248,1.4094,1.2651,1.2052,1.1086,1.0117,0.9727,0.9628,0.9628,0.9628,0.9628,0.9426,0.873,0.7836,0.6836,0.5732,0.4632,0.353,0.2724,0.1816,0.0806,-0.0605,-0.1813,-0.3122,-0.4634,-0.5436,-0.7021,-1.007,-1.1258,-1.2635,-1.4592,-1.5798,-1.7095,-1.8303,-1.9596,-2.0889,-2.2097,-2.2353,-2.2618,-2.2803,-2.2969,-2.3232,-2.3503,-2.5136,-2.5953,-2.6047,-2.8211,-2.9197,-2.9172,-2.9341,-2.9599,-2.9869,-3.0011,-3.0152,-3.0152,-3.0368,-3.0585,-3.0853,-3.102,-3.1274,-3.1563,2.1741,2.1741,2.1741,2.1741,2.1741,2.1741,2.1741,2.1741,2.1741,2.1741,2.1741,2.1741,2.1741,2.1741,2.1553,2.1087,2.0997,2.0907,2.0744,2.0473,2.0382,2.0654,2.0382,2.0292,2.0292,2.0292,2.0292,2.0292,2.0292,2.0292,2.0292,2.0292,2.0292,2.0292,2.0292,2.0102,1.9729,1.9646,1.9088,1.8265,1.8172,1.78,1.7419,1.7326,1.7326,1.7326,1.7326,1.7153,1.6979,1.6683,1.6588,1.6588,1.6312,1.6312,1.6204,1.4867,1.3806,1.2829,1.1658,1.0498,0.9727,0.9628,0.9628,0.9628,0.9628,0.9628,0.9529,0.9426,0.8233,0.7138,0.6936,0.4935,0.323,0.313,0.2222,0.101,-0.0605,-0.1309,-0.2516,-0.4531,-0.5839,-0.7627,-1.0173,-1.0774,-1.195,-1.4496,-1.5798,-1.7095,-1.8303,-1.977,-2.106,-2.2097,-2.2539,-2.2803,-2.2803,-2.2969,-2.3232,-2.3503,-2.4723,-2.5231,-2.5432,-2.8119,-2.8937,-2.8303,-2.9287,-2.9856,-3.0088,-3.0075,-3.0228,-3.0368,-3.0609,-3.0983,-3.1526,-3.2345,-3.2685,-3.2841,2.1741,2.1741,2.1741,2.1741,2.1741,2.1741,2.1741,2.1741,2.1741,2.1741,2.1562,2.1562,2.1562,2.1374,2.1186,2.0826,2.0826,2.0736,2.0473,2.0382,2.0382,2.0473,2.0382,2.0292,2.0292,2.0292,2.0292,2.0292,2.0292,2.0292,2.0292,2.0292,2.0292,2.0292,2.0011,1.9828,1.9546,1.9004,1.8542,1.8087,1.78,1.752,1.7326,1.7326,1.7239,1.7153,1.6958,1.6777,1.6508,1.6407,1.6305,1.6116,1.6021,1.6021,1.6015,1.535,1.4484,1.3516,1.2344,1.1663,1.1179,1.0592,1.0498,1.0498,1.0301,0.9916,0.9628,0.9628,0.863,0.7633,0.693,0.5129,0.3629,0.2826,0.2121,0.1111,-0.0202,-0.131,-0.3019,-0.5636,-0.6539,-0.773,-0.9596,-1.0681,-1.2052,-1.3902,-1.5235,-1.6459,-1.7677,-1.9039,-2.0322,-2.1427,-2.2344,-2.2882,-2.2969,-2.3232,-2.3647,-2.4392,-2.5557,-2.5819,-2.5421,-2.7799,-2.87,-2.8383,-2.9521,-3.0011,-3.0088,-3.0318,-3.0637,-3.1061,-3.1228,-3.1733,-3.2398,-3.2817,-3.3158,-3.347]}]]